ftp/pub/palmer/observations_modified/2019/November/AR191107_BASE.txt

Download

Sample DateTime	Unit Id	WS Avg 2min	WD Avg 2min	WGS 10min	WGD 10min	Air Temp	Rel Humidity	Dew Point	Pyranometer	Quantum	Air Pressure	Snow Level	Rainfall	PW Current	Visibility	CBase 1	CBase 2	CBase 3	Vert Vis
2019/11/07  00:00:00  BASE  5.57424  84   6.47388  88   -0.8  51    -9.6  18    0     977.2    NA       0.0000   9999     0     0     0    
2019/11/07  00:01:00  BASE  5.81532  85   6.47388  88   -0.7  51    -9.6  18    0     977.2    NA       0.0000   9999     0     0     0    
2019/11/07  00:02:00  BASE  5.80356  86   6.47388  88   -0.7  51    -9.7  17    0     977.2    NA       0.0000   9999     0     0     0    
2019/11/07  00:03:00  BASE  5.62716  86   6.47388  88   -0.6  51    -9.6  17    0     977.2    NA       0.0000   9999     0     0     0    
2019/11/07  00:04:00  BASE  5.15088  86   6.47388  88   -0.6  50    -9.7  17    0     977.2    NA       0.0000   9999     0     0     0    
2019/11/07  00:05:00  BASE  4.80396  89   6.47388  88   -0.7  51    -9.6  16    0     977.3    NA       0.0000   9999     0     0     0    
2019/11/07  00:06:00  BASE  4.46292  88   6.47388  88   -0.7  51    -9.5  16    0     977.3    NA       0.0000   9999     0     0     0    
2019/11/07  00:07:00  BASE  4.32768  85   6.47388  88   -0.7  51    -9.5  16    0     977.3    NA       0.0000   9999     0     0     0    
2019/11/07  00:08:00  BASE  4.41     83   6.3504   86   -0.7  51    -9.5  15    0     977.3    NA       0.0000   9999     0     0     0    
2019/11/07  00:09:00  BASE  4.28064  80   6.3504   86   -0.7  52    -9.5  15    0     977.3    NA       0.0000   9999     0     0     0    
2019/11/07  00:10:00  BASE  4.116    79   6.321    91   -0.7  51    -9.5  14    0     977.3    NA       0.0000   9999     0     0     0    
2019/11/07  00:11:00  BASE  3.95724  82   6.321    91   -0.7  51    -9.6  14    0     977.3    NA       0.0000   9999     0     0     0    
2019/11/07  00:12:00  BASE  4.00428  84   6.2622   91   -0.8  52    -9.5  13    0     977.3    NA       0.0000   9999     0     0     0    
2019/11/07  00:13:00  BASE  4.29828  80   5.2332   84   -0.8  52    -9.4  13    0     977.3    NA       0.0000   9999     0     0     0    
2019/11/07  00:14:00  BASE  4.3806   78   5.02152  93   -0.7  52    -9.5  13    0     977.4    NA       0.0000   9999     0     0     0    
2019/11/07  00:15:00  BASE  4.4394   80   5.02152  82   -0.7  51    -9.5  12    0     977.4    NA       0.0000   9999     0     0     0    
2019/11/07  00:16:00  BASE  4.59816  79   5.02152  82   -0.6  51    -9.5  12    0     977.4    NA       0.0000   9999     0     0     0    
2019/11/07  00:17:00  BASE  4.69812  77   5.02152  77   -0.5  50    -9.6  11    0     977.4    NA       0.0000   9999     0     0     0    
2019/11/07  00:18:00  BASE  4.80396  78   5.2038   82   -0.4  50    -9.7  11    0     977.5    NA       0.0000   9999     0     0     0    
2019/11/07  00:19:00  BASE  4.5864   81   5.2038   82   -0.4  49    -9.7  11    0     977.5    NA       0.0000   9999     0     0     0    
2019/11/07  00:20:00  BASE  4.19244  85   5.2038   82   -0.3  49    -9.8  10    0     977.6    NA       0.0000   9999     0     0     0    
2019/11/07  00:21:00  BASE  4.13364  84   5.2626   84   -0.3  49    -9.8  10    0     977.6    NA       0.0000   9999     0     0     0    
2019/11/07  00:22:00  BASE  3.83376  84   5.2626   84   -0.3  49    -9.9  10    0     977.7    NA       0.0000   9999     0     0     0    
2019/11/07  00:23:00  BASE  3.53976  86   5.2626   84   -0.4  49    -9.8  9     0     977.7    NA       0.0000   9999     0     0     0    
2019/11/07  00:24:00  BASE  3.48096  80   5.2626   84   -0.4  49    -9.8  9     0     977.7    NA       0.0000   9999     0     0     0    
2019/11/07  00:25:00  BASE  2.90472  78   5.2626   84   -0.4  49    -9.8  9     0     977.8    NA       0.0000   9999     0     0     0    
2019/11/07  00:26:00  BASE  2.54604  78   5.2626   84   -0.3  49    -9.8  9     0     977.8    NA       0.0000   9999     0     0     0    
2019/11/07  00:27:00  BASE  2.7636   74   5.2626   84   -0.1  48    -9.8  9     0     977.8    NA       0.0000   9999     0     0     0    
2019/11/07  00:28:00  BASE  2.76948  72   5.2626   84   -0.1  48    -9.9  8     0     977.8    NA       0.0000   9999     0     0     0    
2019/11/07  00:29:00  BASE  2.4696   82   5.2626   84   -0.1  48    -9.9  8     0     977.9    NA       0.0000   9999     0     0     0    
2019/11/07  00:30:00  BASE  2.49312  93   5.2626   84   -0.3  48    -9.9  7     0     977.9    NA       0.0000   9999     0     0     0    
2019/11/07  00:31:00  BASE  2.57544  82   4.68636  82   -0.6  50    -9.8  7     0     977.9    NA       0.0000   9999     0     0     0    
2019/11/07  00:32:00  BASE  2.42844  63   4.68636  82   -0.7  50    -9.8  7     0     977.9    NA       0.0000   9999     0     0     0    
2019/11/07  00:33:00  BASE  2.03448  45   4.2042   70   -0.7  51    -9.7  7     0     977.9    NA       0.0000   9999     0     0     0    
2019/11/07  00:34:00  BASE  1.39944  2    3.62796  67   -0.8  51    -9.6  7     0     977.9    NA       0.0000   9999     0     0     0    
2019/11/07  00:35:00  BASE  1.46412  318  3.62796  67   -0.7  52    -9.4  7     0     977.9    NA       0.0000   9999     0     0     0    
2019/11/07  00:36:00  BASE  1.80516  306  3.62796  67   -0.6  52    -9.2  6     0     977.9    NA       0.0000   9999     0     0     0    
2019/11/07  00:37:00  BASE  1.68168  304  3.38688  94   -0.7  54    -8.9  6     0     977.9    NA       0.0000   9999     0     0     0    
2019/11/07  00:38:00  BASE  1.34652  293  3.38688  94   -0.7  55    -8.7  6     0     977.9    NA       0.0000   9999     0     0     0    
2019/11/07  00:39:00  BASE  0.93492  281  3.32808  95   -0.8  56    -8.5  6     0     977.9    NA       0.0000   9999     0     0     0    
2019/11/07  00:40:00  BASE  0.37632  281  3.1164   76   -0.8  57    -8.3  6     0     977.9    NA       0.0000   9999     0     0     0    
2019/11/07  00:41:00  BASE  0.0882   306  2.56956  54   -0.9  58    -8.2  5     0     977.9    NA       0.0000   9999     0     0     0    
2019/11/07  00:42:00  BASE  0.0882   339  2.1462   52   -0.9  58    -8.1  5     0     977.9    NA       0.0000   9999     0     0     0    
2019/11/07  00:43:00  BASE  0        353  2.1168   323  -0.9  58    -8.1  5     0     977.9    NA       0.0000   9999     0     0     0    
2019/11/07  00:44:00  BASE  0.05292  341  2.1168   323  -0.9  58    -8.1  5     0     977.9    NA       0.0000   9999     0     0     0    
2019/11/07  00:45:00  BASE  0.33516  299  1.90512  307  -0.9  58    -8.1  4     0     977.9    NA       0.0000   9999     0     0     0    
2019/11/07  00:46:00  BASE  0.50568  251  1.90512  307  -0.9  58    -8.2  4     0     978.0    NA       0.0000   9999     0     0     0    
2019/11/07  00:47:00  BASE  1.14072  126  2.0286   98   -0.9  57    -8.3  4     0     978.1    NA       0.0000   9999     0     0     0    
2019/11/07  00:48:00  BASE  1.52292  104  2.0286   98   -1.0  57    -8.5  4     0     978.1    NA       0.0000   9999     0     0     0    
2019/11/07  00:49:00  BASE  0.84672  123  2.0286   98   -1.0  56    -8.6  4     0     978.1    NA       0.0000   9999     0     0     0    
2019/11/07  00:50:00  BASE  0.49392  125  2.0286   98   -1.0  56    -8.8  4     0     978.1    NA       0.0000   9999     0     0     0    
2019/11/07  00:51:00  BASE  0.68796  102  2.0286   98   -1.0  55    -9.0  3     0     978.1    NA       0.0000   9999     0     0     0    
2019/11/07  00:52:00  BASE  0.90552  89   2.0286   98   -1.0  54    -9.1  3     0     978.1    NA       0.0000   9999     0     0     0    
2019/11/07  00:53:00  BASE  0.86436  92   2.0286   98   -0.9  53    -9.3  3     0     978.1    NA       0.0000   9999     0     0     0    
2019/11/07  00:54:00  BASE  0.77028  97   2.0286   98   -0.9  52    -9.5  3     0     978.2    NA       0.0000   9999     0     0     0    
2019/11/07  00:55:00  BASE  0.57624  94   2.0286   98   -1.0  52    -9.6  3     0     978.2    NA       0.0000   9999     0     0     0    
2019/11/07  00:56:00  BASE  0.59388  97   2.0286   98   -1.0  52    -9.7  3     0     978.2    NA       0.0000   9999     0     0     0    
2019/11/07  00:57:00  BASE  0.74676  109  1.69344  107  -1.1  52    -9.8  3     0     978.2    NA       0.0000   9999     0     0     0    
2019/11/07  00:58:00  BASE  0.81732  114  1.39356  94   -1.2  52    -9.9  3     0     978.2    NA       0.0000   9999     0     0     0    
2019/11/07  00:59:00  BASE  1.06428  113  1.39356  94   -1.3  52    -9.9  2     0     978.2    NA       0.0000   9999     0     0     0    
2019/11/07  01:00:00  BASE  1.28184  102  1.54056  93   -1.3  52    -9.9  2     0     978.2    NA       0.0000   9999     0     0     0    
2019/11/07  01:01:00  BASE  1.06428  84   1.54056  93   -1.2  52    -9.8  2     0     978.2    NA       0.0000   9999     0     0     0    
2019/11/07  01:02:00  BASE  0.59976  58   1.54056  93   -1.0  51    -9.8  2     0     978.2    NA       0.0000   9999     0     0     0    
2019/11/07  01:03:00  BASE  0.71148  25   1.54056  93   -0.8  50    -9.9  2     0     978.2    NA       0.0000   9999     0     0     0    
2019/11/07  01:04:00  BASE  1.01136  5    1.54056  93   -0.6  50    -9.8  2     0     978.2    NA       0.0000   9999     0     0     0    
2019/11/07  01:05:00  BASE  1.029    359  1.54056  93   -0.5  50    -9.7  2     0     978.2    NA       0.0000   9999     0     0     0    
2019/11/07  01:06:00  BASE  1.07016  358  1.54056  93   -0.6  51    -9.5  2     0     978.2    NA       0.0000   9999     0     0     0    
2019/11/07  01:07:00  BASE  1.1172   349  1.54056  93   -0.9  53    -9.2  2     0     978.2    NA       0.0000   9999     0     0     0    
2019/11/07  01:08:00  BASE  1.22892  326  1.57584  307  -1.1  56    -8.8  2     0     978.2    NA       0.0000   9999     0     0     0    
2019/11/07  01:09:00  BASE  1.53468  303  1.84632  300  -1.3  58    -8.5  1     0     978.2    NA       0.0000   9999     0     0     0    
2019/11/07  01:10:00  BASE  1.94628  300  2.81064  308  -1.5  60    -8.2  1     0     978.2    NA       0.0000   9999     0     0     0    
2019/11/07  01:11:00  BASE  2.42844  313  2.96352  319  -1.6  62    -8.0  1     0     978.2    NA       0.0000   9999     0     0     0    
2019/11/07  01:12:00  BASE  2.77536  325  3.02232  331  -1.7  64    -7.7  1     0     978.1    NA       0.0000   9999     0     0     0    
2019/11/07  01:13:00  BASE  2.93412  334  3.2046   332  -1.9  66    -7.4  1     0     978.1    NA       0.0000   9999     0     0     0    
2019/11/07  01:14:00  BASE  2.9106   340  3.2046   332  -2.0  69    -7.1  1     0     978.1    NA       0.0000   9999     0     0     0    
2019/11/07  01:15:00  BASE  2.96352  341  3.26928  337  -2.2  71    -6.8  1     0     978.1    NA       0.0000   9999     0     0     0    
2019/11/07  01:16:00  BASE  2.8224   345  3.26928  337  -2.3  72    -6.6  1     0     978.1    NA       0.0000   9999     0     0     0    
2019/11/07  01:17:00  BASE  2.28144  349  3.26928  337  -2.3  73    -6.5  1     0     978.1    NA       0.0000   9999     0     0     0    
2019/11/07  01:18:00  BASE  1.9992   356  3.26928  337  -2.3  73    -6.4  1     0     978.1    NA       0.0000   9999     0     0     0    
2019/11/07  01:19:00  BASE  1.911    5    3.26928  337  -2.2  73    -6.5  1     0     978.1    NA       0.0000   9999     0     0     0    
2019/11/07  01:20:00  BASE  1.6464   4    3.26928  337  -2.2  72    -6.5  1     0     978.2    NA       0.0000   9999     0     0     0    
2019/11/07  01:21:00  BASE  1.34064  353  3.26928  337  -2.1  71    -6.6  1     0     978.2    NA       0.0000   9999     0     0     0    
2019/11/07  01:22:00  BASE  1.14072  342  3.26928  337  -2.1  71    -6.7  1     0     978.2    NA       0.0000   9999     0     0     0    
2019/11/07  01:23:00  BASE  0.66444  334  3.26928  337  -2.0  70    -6.8  1     0     978.2    NA       0.0000   9999     0     0     0    
2019/11/07  01:24:00  BASE  0.15288  325  3.26928  337  -1.9  69    -6.9  0     0     978.3    NA       0.0000   9999     0     0     0    
2019/11/07  01:25:00  BASE  0        315  2.69304  352  -1.8  67    -7.0  0     0     978.3    NA       0.0000   9999     0     0     0    
2019/11/07  01:26:00  BASE  0        304  2.24028  352  -1.7  66    -7.2  0     0     978.3    NA       0.0000   9999     0     0     0    
2019/11/07  01:27:00  BASE  0.09996  290  2.1462   4    -1.7  65    -7.4  0     0     978.3    NA       0.0000   9999     0     0     0    
2019/11/07  01:28:00  BASE  0.4704   287  2.0874   8    -1.7  65    -7.5  0     0     978.3    NA       0.0000   9999     0     0     0    
2019/11/07  01:29:00  BASE  0.90552  289  1.57584  4    -1.7  64    -7.6  0     0     978.3    NA       0.0000   9999     0     0     0    
2019/11/07  01:30:00  BASE  1.24656  285  1.63464  289  -1.7  63    -7.7  0     0     978.3    NA       0.0000   9999     0     0     0    
2019/11/07  01:31:00  BASE  1.36416  272  1.63464  256  -1.6  63    -7.8  0     0     978.3    NA       0.0000   9999     0     0     0    
2019/11/07  01:32:00  BASE  1.39356  255  1.63464  256  -1.6  62    -7.9  0     0     978.3    NA       0.0000   9999     0     0     0    
2019/11/07  01:33:00  BASE  1.43472  237  1.63464  256  -1.5  62    -8.0  0     0     978.3    NA       0.0000   9999     0     0     0    
2019/11/07  01:34:00  BASE  1.39944  196  1.63464  153  -1.6  62    -8.0  0     0     978.4    NA       0.0000   9999     0     0     0    
2019/11/07  01:35:00  BASE  1.52292  158  1.78752  151  -1.8  62    -8.1  0     0     978.4    NA       0.0000   9999     0     0     0    
2019/11/07  01:36:00  BASE  1.53468  162  1.78752  151  -2.1  63    -8.1  0     0     978.4    NA       0.0000   9999     0     0     0    
2019/11/07  01:37:00  BASE  1.2936   185  1.78752  151  -2.2  65    -8.0  0     0     978.4    NA       0.0000   9999     0     0     0    
2019/11/07  01:38:00  BASE  1.24068  210  1.78752  151  -2.3  66    -7.9  0     0     978.5    NA       0.0000   9999     0     0     0    
2019/11/07  01:39:00  BASE  1.53468  223  1.90512  214  -2.3  66    -7.8  0     0     978.5    NA       0.0000   9999     0     0     0    
2019/11/07  01:40:00  BASE  1.81104  224  1.9992   231  -2.3  67    -7.6  0     0     978.5    NA       0.0000   9999     0     0     0    
2019/11/07  01:41:00  BASE  1.83456  227  1.9992   231  -2.2  68    -7.4  0     0     978.5    NA       0.0000   9999     0     0     0    
2019/11/07  01:42:00  BASE  1.51116  228  1.9992   231  -2.2  69    -7.2  0     0     978.5    NA       0.0000   9999     0     0     0    
2019/11/07  01:43:00  BASE  1.14072  232  1.9992   231  -2.2  70    -6.9  0     0     978.5    NA       0.0000   9999     0     0     0    
2019/11/07  01:44:00  BASE  1.01136  247  1.9992   231  -2.2  72    -6.6  0     0     978.5    NA       0.0000   9999     0     0     0    
2019/11/07  01:45:00  BASE  1.18188  268  1.9992   231  -2.2  74    -6.3  0     0     978.5    NA       0.0000   9999     0     0     0    
2019/11/07  01:46:00  BASE  1.39944  287  1.9992   231  -2.2  75    -6.1  0     0     978.5    NA       0.0000   9999     0     0     0    
2019/11/07  01:47:00  BASE  1.4994   300  1.9992   231  -2.2  75    -6.0  0     0     978.5    NA       0.0000   9999     0     0     0    
2019/11/07  01:48:00  BASE  1.47     304  1.9992   231  -2.2  76    -5.9  0     0     978.5    NA       0.0000   9999     0     0     0    
2019/11/07  01:49:00  BASE  1.2642   315  1.9992   231  -2.2  76    -5.9  0     0     978.5    NA       0.0000   9999     0     0     0    
2019/11/07  01:50:00  BASE  1.18776  341  1.96392  234  -2.2  75    -6.0  0     0     978.5    NA       0.0000   9999     0     0     0    
2019/11/07  01:51:00  BASE  1.40532  8    1.90512  12   -2.2  75    -6.1  0     0     978.5    NA       0.0000   9999     0     0     0    
2019/11/07  01:52:00  BASE  1.42884  34   1.90512  12   -2.2  74    -6.1  0     0     978.5    NA       0.0000   9999     0     0     0    
2019/11/07  01:53:00  BASE  1.31124  52   1.90512  12   -2.2  74    -6.2  0     0     978.5    NA       0.0000   9999     0     0     0    
2019/11/07  01:54:00  BASE  1.54644  57   1.90512  64   -2.2  74    -6.2  0     0     978.5    NA       0.0000   9999     0     0     0    
2019/11/07  01:55:00  BASE  1.68756  63   1.96392  65   -2.2  74    -6.2  0     0     978.5    NA       0.0000   9999     0     0     0    
2019/11/07  01:56:00  BASE  1.57584  73   1.96392  65   -2.2  74    -6.2  0     0     978.5    NA       0.0000   9999     0     0     0    
2019/11/07  01:57:00  BASE  1.53468  77   1.96392  65   -2.2  74    -6.3  0     0     978.5    NA       0.0000   9999     0     0     0    
2019/11/07  01:58:00  BASE  1.4994   68   1.96392  65   -2.2  73    -6.3  0     0     978.6    NA       0.0000   9999     0     0     0    
2019/11/07  01:59:00  BASE  1.45824  49   1.96392  65   -2.2  73    -6.4  0     0     978.6    NA       0.0000   9999     0     0     0    
2019/11/07  02:00:00  BASE  1.37004  24   1.96392  65   -2.1  72    -6.5  0     0     978.6    NA       0.0000   9999     0     0     0    
2019/11/07  02:01:00  BASE  1.07604  346  1.96392  65   -2.1  71    -6.6  0     0     978.7    NA       0.0000   9999     0     0     0    
2019/11/07  02:02:00  BASE  0.77616  320  1.96392  65   -2.1  71    -6.6  0     0     978.7    NA       0.0000   9999     0     0     0    
2019/11/07  02:03:00  BASE  0.441    325  1.96392  65   -2.2  72    -6.6  0     0     978.7    NA       0.0000   9999     0     0     0    
2019/11/07  02:04:00  BASE  0.45276  357  1.96392  65   -2.2  72    -6.5  0     0     978.7    NA       0.0000   9999     0     0     0    
2019/11/07  02:05:00  BASE  0.7056   35   1.69344  76   -2.3  73    -6.5  0     0     978.7    NA       0.0000   9999     0     0     0    
2019/11/07  02:06:00  BASE  0.87024  54   1.69344  76   -2.4  74    -6.3  0     0     978.8    NA       0.0000   9999     0     0     0    
2019/11/07  02:07:00  BASE  1.0878   61   1.63464  56   -2.4  75    -6.2  0     0     978.9    NA       0.0000   9999     0     0     0    
2019/11/07  02:08:00  BASE  1.3524   64   1.78752  75   -2.4  75    -6.1  0     0     978.9    NA       0.0000   9999     0     0     0    
2019/11/07  02:09:00  BASE  1.76988  74   2.26968  85   -2.3  75    -6.1  0     0     978.9    NA       0.0000   9999     0     0     0    
2019/11/07  02:10:00  BASE  1.97568  80   2.26968  85   -2.3  75    -6.2  0     0     978.9    NA       0.0000   9999     0     0     0    
2019/11/07  02:11:00  BASE  1.53468  70   2.26968  85   -2.2  73    -6.4  0     0     978.9    NA       0.0000   9999     0     0     0    
2019/11/07  02:12:00  BASE  1.17012  62   2.26968  85   -2.1  71    -6.7  0     0     978.9    NA       0.0000   9999     0     0     0    
2019/11/07  02:13:00  BASE  1.39356  58   2.26968  85   -2.0  69    -7.0  0     0     978.9    NA       0.0000   9999     0     0     0    
2019/11/07  02:14:00  BASE  1.74636  53   2.26968  85   -1.9  66    -7.4  0     0     978.9    NA       0.0000   9999     0     0     0    
2019/11/07  02:15:01  BASE  1.74636  51   2.26968  85   -1.8  64    -7.7  0     0     979.0    NA       0.0000   9999     0     0     0    
2019/11/07  02:16:00  BASE  1.48764  47   2.26968  85   -1.8  64    -7.8  0     0     979.0    NA       0.0000   9999     0     0     0    
2019/11/07  02:17:00  BASE  1.28184  43   2.26968  85   -1.7  63    -7.8  0     0     979.0    NA       0.0000   9999     0     0     0    
2019/11/07  02:18:00  BASE  1.08192  41   2.26968  85   -1.7  63    -7.9  0     0     979.0    NA       0.0000   9999     0     0     0    
2019/11/07  02:19:00  BASE  0.92316  44   2.21088  82   -1.7  63    -7.9  0     0     979.0    NA       0.0000   9999     0     0     0    
2019/11/07  02:20:00  BASE  0.68208  44   2.0286   47   -1.7  62    -7.9  0     0     979.0    NA       0.0000   9999     0     0     0    
2019/11/07  02:21:00  BASE  0.25872  34   2.0286   47   -1.6  62    -8.0  0     0     979.1    NA       0.0000   9999     0     0     0    
2019/11/07  02:22:00  BASE  0        26   2.0286   47   -1.6  61    -8.1  0     0     979.1    NA       0.0000   9999     0     0     0    
2019/11/07  02:23:00  BASE  0        29   2.0286   47   -1.5  60    -8.2  0     0     979.1    NA       0.0000   9999     0     0     0    
2019/11/07  02:24:00  BASE  0        37   1.90512  54   -1.5  60    -8.3  0     0     979.1    NA       0.0000   9999     0     0     0    
2019/11/07  02:25:00  BASE  0.0294   31   1.48176  38   -1.3  59    -8.4  0     0     979.1    NA       0.0000   9999     0     0     0    
2019/11/07  02:26:00  BASE  0.31752  13   1.35828  39   -1.2  58    -8.5  0     0     979.1    NA       0.0000   9999     0     0     0    
2019/11/07  02:27:00  BASE  0.65856  9    1.27008  47   -1.1  57    -8.5  0     0     979.1    NA       0.0000   9999     0     0     0    
2019/11/07  02:28:00  BASE  0.75852  12   1.1466   354  -1.0  57    -8.5  0     0     979.1    NA       0.0000   9999     0     0     0    
2019/11/07  02:29:00  BASE  0.5586   12   1.1466   354  -1.0  56    -8.5  0     0     979.1    NA       0.0000   9999     0     0     0    
2019/11/07  02:30:00  BASE  0.42924  18   1.1466   354  -0.9  56    -8.6  0     0     979.1    NA       0.0000   9999     0     0     0    
2019/11/07  02:31:00  BASE  0.5292   21   1.1466   354  -0.9  56    -8.6  0     0     979.1    NA       0.0000   9999     0     0     0    
2019/11/07  02:32:00  BASE  0.5586   25   1.1466   354  -0.9  56    -8.6  0     0     979.1    NA       0.0000   9999     0     0     0    
2019/11/07  02:33:00  BASE  0.57036  37   1.1466   354  -0.9  56    -8.6  0     0     979.1    NA       0.0000   9999     0     0     0    
2019/11/07  02:34:00  BASE  0.96432  39   1.81692  41   -1.0  56    -8.6  0     0     979.1    NA       0.0000   9999     0     0     0    
2019/11/07  02:35:00  BASE  1.47     32   1.87572  20   -1.0  57    -8.5  0     0     979.1    NA       0.0000   9999     0     0     0    
2019/11/07  02:36:00  BASE  1.54644  36   1.87572  20   -1.1  57    -8.5  0     0     979.1    NA       0.0000   9999     0     0     0    
2019/11/07  02:37:00  BASE  1.76988  50   2.29908  70   -1.1  57    -8.6  0     0     979.1    NA       0.0000   9999     0     0     0    
2019/11/07  02:38:00  BASE  1.82868  55   2.29908  70   -1.1  57    -8.5  0     0     979.2    NA       0.0000   9999     0     0     0    
2019/11/07  02:39:00  BASE  1.71696  53   2.29908  54   -1.1  58    -8.5  0     0     979.2    NA       0.0000   9999     0     0     0    
2019/11/07  02:40:00  BASE  1.84044  51   2.29908  54   -1.2  58    -8.4  0     0     979.2    NA       0.0000   9999     0     0     0    
2019/11/07  02:41:00  BASE  1.74636  53   2.29908  54   -1.3  59    -8.3  0     0     979.2    NA       0.0000   9999     0     0     0    
2019/11/07  02:42:00  BASE  1.63464  52   2.29908  54   -1.3  59    -8.2  0     0     979.2    NA       0.0000   9999     0     0     0    
2019/11/07  02:43:00  BASE  1.60524  55   2.29908  54   -1.4  60    -8.2  0     0     979.2    NA       0.0000   9999     0     0     0    
2019/11/07  02:44:00  BASE  1.62288  58   2.29908  54   -1.4  60    -8.2  0     0     979.2    NA       0.0000   9999     0     0     0    
2019/11/07  02:45:00  BASE  1.60524  57   2.29908  54   -1.4  60    -8.2  0     0     979.2    NA       0.0000   9999     0     0     0    
2019/11/07  02:46:00  BASE  1.63464  53   2.29908  54   -1.4  60    -8.2  0     0     979.2    NA       0.0000   9999     0     0     0    
2019/11/07  02:47:00  BASE  1.58172  45   2.29908  54   -1.4  60    -8.2  0     0     979.2    NA       0.0000   9999     0     0     0    
2019/11/07  02:48:00  BASE  1.34064  39   2.29908  54   -1.4  60    -8.1  0     0     979.2    NA       0.0000   9999     0     0     0    
2019/11/07  02:49:00  BASE  1.2348   39   2.21088  52   -1.4  60    -8.1  0     0     979.3    NA       0.0000   9999     0     0     0    
2019/11/07  02:50:00  BASE  1.19364  39   2.1756   50   -1.3  60    -8.1  0     0     979.3    NA       0.0000   9999     0     0     0    
2019/11/07  02:51:00  BASE  1.27008  46   2.1756   50   -1.3  59    -8.2  0     0     979.3    NA       0.0000   9999     0     0     0    
2019/11/07  02:52:00  BASE  1.50528  55   2.1756   50   -1.2  59    -8.2  0     0     979.3    NA       0.0000   9999     0     0     0    
2019/11/07  02:53:00  BASE  1.81104  61   2.1756   50   -1.2  59    -8.3  0     0     979.4    NA       0.0000   9999     0     0     0    
2019/11/07  02:54:00  BASE  2.04036  63   2.32848  59   -1.3  59    -8.3  0     0     979.5    NA       0.0000   9999     0     0     0    
2019/11/07  02:55:00  BASE  2.25792  59   2.51076  54   -1.3  59    -8.3  0     0     979.5    NA       0.0000   9999     0     0     0    
2019/11/07  02:56:00  BASE  2.4108   55   2.56956  56   -1.3  59    -8.2  0     0     979.5    NA       0.0000   9999     0     0     0    
2019/11/07  02:57:00  BASE  2.3226   55   2.56956  56   -1.4  60    -8.2  0     0     979.5    NA       0.0000   9999     0     0     0    
2019/11/07  02:58:00  BASE  1.9992   57   2.56956  56   -1.4  60    -8.2  0     0     979.5    NA       0.0000   9999     0     0     0    
2019/11/07  02:59:00  BASE  1.8228   53   2.56956  56   -1.3  60    -8.2  0     0     979.5    NA       0.0000   9999     0     0     0    
2019/11/07  03:00:00  BASE  1.95216  45   2.56956  56   -1.3  59    -8.2  0     0     979.5    NA       0.0000   9999     0     0     0    
2019/11/07  03:01:00  BASE  1.9404   36   2.56956  56   -1.3  59    -8.2  0     0     979.5    NA       0.0000   9999     0     0     0    
2019/11/07  03:02:00  BASE  1.77576  33   2.56956  56   -1.2  59    -8.2  0     0     979.5    NA       0.0000   9999     0     0     0    
2019/11/07  03:03:00  BASE  1.6464   36   2.56956  56   -1.3  59    -8.2  0     0     979.6    NA       0.0000   9999     0     0     0    
2019/11/07  03:04:00  BASE  1.66992  34   2.56956  56   -1.3  59    -8.2  0     0     979.6    NA       0.0000   9999     0     0     0    
2019/11/07  03:05:00  BASE  1.6464   30   2.56956  56   -1.3  60    -8.2  0     0     979.6    NA       0.0000   9999     0     0     0    
2019/11/07  03:06:00  BASE  1.51116  29   2.35788  64   -1.3  60    -8.2  0     0     979.6    NA       0.0000   9999     0     0     0    
2019/11/07  03:07:00  BASE  1.48764  32   2.21088  41   -1.3  59    -8.2  0     0     979.6    NA       0.0000   9999     0     0     0    
2019/11/07  03:08:00  BASE  1.45236  35   2.21088  41   -1.3  59    -8.2  0     0     979.6    NA       0.0000   9999     0     0     0    
2019/11/07  03:09:00  BASE  1.53468  36   2.1462   41   -1.3  59    -8.2  0     0     979.6    NA       0.0000   9999     0     0     0    
2019/11/07  03:10:00  BASE  1.59348  39   2.0286   34   -1.3  59    -8.2  0     0     979.6    NA       0.0000   9999     0     0     0    
2019/11/07  03:11:00  BASE  1.54644  37   2.0286   34   -1.3  59    -8.2  0     0     979.6    NA       0.0000   9999     0     0     0    
2019/11/07  03:12:00  BASE  1.47588  35   2.0286   34   -1.3  60    -8.1  0     0     979.6    NA       0.0000   9999     0     0     0    
2019/11/07  03:13:00  BASE  1.37004  32   2.0286   34   -1.2  59    -8.2  0     0     979.6    NA       0.0000   9999     0     0     0    
2019/11/07  03:14:00  BASE  1.37004  35   1.75224  40   -1.2  59    -8.2  0     0     979.6    NA       0.0000   9999     0     0     0    
2019/11/07  03:15:00  BASE  1.47     48   1.75224  40   -1.2  59    -8.1  0     0     979.6    NA       0.0000   9999     0     0     0    
2019/11/07  03:16:00  BASE  1.58172  54   1.75224  53   -1.2  59    -8.2  0     0     979.6    NA       0.0000   9999     0     0     0    
2019/11/07  03:17:00  BASE  1.63464  50   1.75224  53   -1.2  59    -8.2  0     0     979.6    NA       0.0000   9999     0     0     0    
2019/11/07  03:18:00  BASE  1.62876  46   1.75224  53   -1.2  59    -8.2  0     0     979.7    NA       0.0000   9999     0     0     0    
2019/11/07  03:19:00  BASE  1.59348  45   1.75224  53   -1.3  60    -8.1  0     0     979.7    NA       0.0000   9999     0     0     0    
2019/11/07  03:20:00  BASE  1.5582   46   1.75224  53   -1.3  60    -8.1  0     0     979.7    NA       0.0000   9999     0     0     0    
2019/11/07  03:21:00  BASE  1.56408  50   1.75224  53   -1.3  60    -8.0  0     0     979.7    NA       0.0000   9999     0     0     0    
2019/11/07  03:22:00  BASE  1.58172  48   1.75224  53   -1.3  60    -8.0  0     0     979.7    NA       0.0000   9999     0     0     0    
2019/11/07  03:23:00  BASE  1.57584  50   1.75224  53   -1.3  60    -8.0  0     0     979.7    NA       0.0000   9999     0     0     0    
2019/11/07  03:24:00  BASE  1.5876   57   1.75224  58   -1.2  59    -8.1  0     0     979.7    NA       0.0000   9999     0     0     0    
2019/11/07  03:25:00  BASE  1.55232  61   1.75224  58   -1.2  59    -8.2  0     0     979.7    NA       0.0000   9999     0     0     0    
2019/11/07  03:26:00  BASE  1.57584  63   1.75224  58   -1.2  58    -8.3  0     0     979.7    NA       0.0000   9999     0     0     0    
2019/11/07  03:27:00  BASE  1.617    66   1.75224  58   -1.2  58    -8.3  0     0     979.7    NA       0.0000   9999     0     0     0    
2019/11/07  03:28:00  BASE  1.56408  66   1.75224  58   -1.2  58    -8.3  0     0     979.8    NA       0.0000   9999     0     0     0    
2019/11/07  03:29:00  BASE  1.45824  69   1.75224  58   -1.2  58    -8.3  0     0     979.8    NA       0.0000   9999     0     0     0    
2019/11/07  03:30:01  BASE  1.2348   75   1.75224  58   -1.2  59    -8.3  0     0     979.8    NA       0.0000   9999     0     0     0    
2019/11/07  03:31:01  BASE  0.9114   76   1.75224  58   -1.2  59    -8.3  0     0     979.8    NA       0.0000   9999     0     0     0    
2019/11/07  03:32:01  BASE  0.46452  71   1.75224  58   -1.2  59    -8.3  0     0     979.8    NA       0.0000   9999     0     0     0    
2019/11/07  03:33:01  BASE  0.08232  56   1.75224  58   -1.2  58    -8.3  0     0     979.8    NA       0.0000   9999     0     0     0    
2019/11/07  03:34:01  BASE  0.1764   41   1.69344  64   -1.2  58    -8.3  0     0     979.8    NA       0.0000   9999     0     0     0    
2019/11/07  03:35:01  BASE  0.37632  38   1.69344  64   -1.2  58    -8.3  0     0     979.8    NA       0.0000   9999     0     0     0    
2019/11/07  03:36:01  BASE  0.19992  31   1.66404  65   -1.2  58    -8.3  0     0     979.8    NA       0.0000   9999     0     0     0    
2019/11/07  03:37:01  BASE  0        14   1.63464  67   -1.1  58    -8.3  0     0     979.8    NA       0.0000   9999     0     0     0    
2019/11/07  03:38:01  BASE  0        6    1.48176  79   -1.1  58    -8.3  0     0     979.8    NA       0.0000   9999     0     0     0    
2019/11/07  03:39:01  BASE  0        6    1.21128  73   -1.1  58    -8.3  0     0     979.8    NA       0.0000   9999     0     0     0    
2019/11/07  03:40:01  BASE  0        4    0.90552  78   -1.2  59    -8.3  0     0     979.8    NA       0.0000   9999     0     0     0    
2019/11/07  03:41:01  BASE  0.05292  193  0.78792  41   -1.3  59    -8.3  0     0     979.8    NA       0.0000   9999     0     0     0    
2019/11/07  03:42:01  BASE  0.05292  184  0.78792  41   -1.4  59    -8.4  0     0     979.8    NA       0.0000   9999     0     0     0    
2019/11/07  03:43:01  BASE  0        174  0.78792  41   -1.5  59    -8.4  0     0     979.8    NA       0.0000   9999     0     0     0    
2019/11/07  03:44:01  BASE  0.0882   169  0.78792  41   -1.6  59    -8.5  0     0     979.9    NA       0.0000   9999     0     0     0    
2019/11/07  03:45:01  BASE  0.35868  172  0.78792  177  -1.7  60    -8.5  0     0     979.9    NA       0.0000   9999     0     0     0    
2019/11/07  03:46:01  BASE  0.51156  178  0.84672  184  -1.7  60    -8.5  0     0     979.9    NA       0.0000   9999     0     0     0    
2019/11/07  03:47:01  BASE  0.75264  179  1.21128  170  -1.7  60    -8.5  0     0     979.9    NA       0.0000   9999     0     0     0    
2019/11/07  03:48:01  BASE  1.21128  171  1.66404  163  -1.7  60    -8.5  0     0     979.9    NA       0.0000   9999     0     0     0    
2019/11/07  03:49:01  BASE  1.37592  168  1.66404  163  -1.9  61    -8.4  0     0     979.9    NA       0.0000   9999     0     0     0    
2019/11/07  03:50:01  BASE  1.29948  168  1.66404  163  -2.0  62    -8.3  0     0     979.9    NA       0.0000   9999     0     0     0    
2019/11/07  03:51:01  BASE  1.25832  163  1.66404  163  -2.2  64    -8.1  0     0     979.9    NA       0.0000   9999     0     0     0    
2019/11/07  03:52:01  BASE  1.29948  159  1.66404  163  -2.4  66    -7.9  0     0     979.9    NA       0.0000   9999     0     0     0    
2019/11/07  03:53:01  BASE  1.13484  150  1.66404  163  -2.4  67    -7.7  0     0     979.9    NA       0.0000   9999     0     0     0    
2019/11/07  03:54:01  BASE  0.87612  142  1.66404  163  -2.4  68    -7.5  0     0     979.9    NA       0.0000   9999     0     0     0    
2019/11/07  03:55:01  BASE  0.81144  144  1.66404  163  -2.4  68    -7.4  0     0     979.9    NA       0.0000   9999     0     0     0    
2019/11/07  03:56:01  BASE  0.7644   148  1.66404  163  -2.3  68    -7.5  0     0     980.0    NA       0.0000   9999     0     0     0    
2019/11/07  03:57:01  BASE  0.35868  147  1.66404  163  -2.2  67    -7.5  0     0     980.1    NA       0.0000   9999     0     0     0    
2019/11/07  03:58:01  BASE  0.18228  147  1.48176  160  -2.2  66    -7.6  0     0     980.1    NA       0.0000   9999     0     0     0    
2019/11/07  03:59:01  BASE  0.25872  150  1.48176  160  -2.0  65    -7.8  0     0     980.1    NA       0.0000   9999     0     0     0    
2019/11/07  04:00:01  BASE  0.12936  152  1.48176  160  -1.9  64    -7.9  0     0     980.1    NA       0.0000   9999     0     0     0    
2019/11/07  04:02:00  BASE  0.24108  146  1.29948  154  -1.8  62    -8.1  0     0     980.1    NA       0.0000   9999     0     0     0    
2019/11/07  04:03:00  BASE  0.41748  144  0.90552  146  -1.7  61    -8.2  0     0     980.1    NA       0.0000   9999     0     0     0    
2019/11/07  04:04:00  BASE  0.34692  144  0.90552  146  -1.6  60    -8.4  0     0     980.1    NA       0.0000   9999     0     0     0    
2019/11/07  04:05:00  BASE  0.25284  142  0.87612  154  -1.6  59    -8.5  0     0     980.1    NA       0.0000   9999     0     0     0    
2019/11/07  04:06:00  BASE  0.12936  128  0.87612  154  -1.6  59    -8.5  0     0     980.2    NA       0.0000   9999     0     0     0    
2019/11/07  04:07:00  BASE  0.15288  83   1.0878   38   -1.5  59    -8.6  0     0     980.2    NA       0.0000   9999     0     0     0    
2019/11/07  04:08:00  BASE  0.78204  43   1.35828  35   -1.6  59    -8.5  0     0     980.2    NA       0.0000   9999     0     0     0    
2019/11/07  04:09:00  BASE  1.2642   32   1.42296  33   -1.7  60    -8.4  0     0     980.2    NA       0.0000   9999     0     0     0    
2019/11/07  04:10:00  BASE  1.37592  31   1.63464  32   -1.8  61    -8.3  0     0     980.2    NA       0.0000   9999     0     0     0    
2019/11/07  04:11:00  BASE  1.5582   34   1.69344  36   -1.9  62    -8.2  0     0     980.2    NA       0.0000   9999     0     0     0    
2019/11/07  04:12:00  BASE  1.7052   39   1.87572  45   -2.1  64    -8.1  0     0     980.2    NA       0.0000   9999     0     0     0    
2019/11/07  04:13:00  BASE  1.71108  42   1.87572  45   -2.3  65    -7.9  0     0     980.2    NA       0.0000   9999     0     0     0    
2019/11/07  04:14:00  BASE  1.57584  43   1.87572  45   -2.4  67    -7.7  0     0     980.2    NA       0.0000   9999     0     0     0    
2019/11/07  04:15:00  BASE  1.43472  45   1.87572  45   -2.4  68    -7.5  0     0     980.2    NA       0.0000   9999     0     0     0    
2019/11/07  04:16:00  BASE  1.27008  42   1.87572  45   -2.4  69    -7.3  0     0     980.2    NA       0.0000   9999     0     0     0    
2019/11/07  04:17:00  BASE  1.15836  33   1.87572  45   -2.4  70    -7.2  0     0     980.2    NA       0.0000   9999     0     0     0    
2019/11/07  04:18:00  BASE  1.15836  22   1.87572  45   -2.3  70    -7.1  0     0     980.2    NA       0.0000   9999     0     0     0    
2019/11/07  04:19:00  BASE  1.18188  23   1.87572  45   -2.2  69    -7.2  0     0     980.2    NA       0.0000   9999     0     0     0    
2019/11/07  04:20:00  BASE  1.19364  29   1.87572  45   -2.2  68    -7.3  0     0     980.2    NA       0.0000   9999     0     0     0    
2019/11/07  04:21:00  BASE  1.11132  33   1.87572  45   -2.1  67    -7.4  0     0     980.2    NA       0.0000   9999     0     0     0    
2019/11/07  04:22:00  BASE  0.98196  39   1.81692  41   -2.0  66    -7.5  0     0     980.3    NA       0.0000   9999     0     0     0    
2019/11/07  04:23:00  BASE  0.90552  48   1.66404  42   -2.0  66    -7.6  0     0     980.3    NA       0.0000   9999     0     0     0    
2019/11/07  04:24:00  BASE  0.99372  58   1.63464  45   -1.9  65    -7.6  0     0     980.3    NA       0.0000   9999     0     0     0    
2019/11/07  04:25:00  BASE  0.98784  60   1.29948  24   -1.8  64    -7.7  0     0     980.3    NA       0.0000   9999     0     0     0    
2019/11/07  04:26:00  BASE  0.90552  55   1.29948  24   -1.7  63    -7.8  0     0     980.3    NA       0.0000   9999     0     0     0    
2019/11/07  04:27:00  BASE  0.99372  51   1.29948  24   -1.6  62    -7.9  0     0     980.3    NA       0.0000   9999     0     0     0    
2019/11/07  04:28:00  BASE  1.13484  48   1.32888  49   -1.6  62    -7.9  0     0     980.3    NA       0.0000   9999     0     0     0    
2019/11/07  04:29:00  BASE  1.176    48   1.32888  49   -1.6  62    -7.9  0     0     980.3    NA       0.0000   9999     0     0     0    
2019/11/07  04:30:00  BASE  1.08192  48   1.32888  49   -1.6  62    -7.9  0     0     980.3    NA       0.0000   9999     0     0     0    
2019/11/07  04:31:00  BASE  1.08192  53   1.32888  49   -1.7  63    -7.9  0     0     980.4    NA       0.0000   9999     0     0     0    
2019/11/07  04:32:00  BASE  1.21716  69   1.60524  85   -1.8  63    -8.0  0     0     980.4    NA       0.0000   9999     0     0     0    
2019/11/07  04:33:00  BASE  1.24068  86   1.60524  85   -1.9  62    -8.1  0     0     980.4    NA       0.0000   9999     0     0     0    
2019/11/07  04:34:00  BASE  0.90552  94   1.60524  85   -2.0  62    -8.2  0     0     980.4    NA       0.0000   9999     0     0     0    
2019/11/07  04:35:00  BASE  0.61152  77   1.60524  85   -2.1  62    -8.4  0     0     980.3    NA       0.0000   9999     0     0     0    
2019/11/07  04:36:00  BASE  0.7056   40   1.60524  85   -2.2  63    -8.4  0     0     980.3    NA       0.0000   9999     0     0     0    
2019/11/07  04:37:00  BASE  0.87024  15   1.60524  85   -2.2  63    -8.3  0     0     980.3    NA       0.0000   9999     0     0     0    
2019/11/07  04:38:00  BASE  0.96432  5    1.60524  85   -2.2  63    -8.2  0     0     980.3    NA       0.0000   9999     0     0     0    
2019/11/07  04:39:00  BASE  0.98784  4    1.60524  85   -2.2  64    -8.1  0     0     980.3    NA       0.0000   9999     0     0     0    
2019/11/07  04:40:00  BASE  0.92904  4    1.60524  85   -2.0  64    -7.9  0     0     980.3    NA       0.0000   9999     0     0     0    
2019/11/07  04:41:00  BASE  0.57624  7    1.60524  85   -2.0  64    -7.9  0     0     980.4    NA       0.0000   9999     0     0     0    
2019/11/07  04:42:00  BASE  0.12936  14   1.57584  94   -1.9  64    -7.9  0     0     980.4    NA       0.0000   9999     0     0     0    
2019/11/07  04:43:00  BASE  0.74088  85   2.21088  152  -2.0  63    -8.1  0     0     980.4    NA       0.0000   9999     0     0     0    
2019/11/07  04:44:00  BASE  1.32888  146  2.21088  152  -2.2  63    -8.3  0     0     980.4    NA       0.0000   9999     0     0     0    
2019/11/07  04:45:00  BASE  0.6174   139  2.21088  152  -2.3  64    -8.2  0     0     980.4    NA       0.0000   9999     0     0     0    
2019/11/07  04:46:00  BASE  0.0294   100  2.21088  152  -2.3  64    -8.1  0     0     980.4    NA       0.0000   9999     0     0     0    
2019/11/07  04:47:00  BASE  0.39396  34   2.21088  152  -2.3  65    -8.1  0     0     980.4    NA       0.0000   9999     0     0     0    
2019/11/07  04:48:00  BASE  1.0584   1    2.21088  152  -2.3  65    -8.0  0     0     980.4    NA       0.0000   9999     0     0     0    
2019/11/07  04:49:00  BASE  1.46412  358  2.21088  152  -2.0  64    -7.8  0     0     980.4    NA       0.0000   9999     0     0     0    
2019/11/07  04:50:00  BASE  1.44648  0    2.21088  152  -1.9  63    -8.0  0     0     980.4    NA       0.0000   9999     0     0     0    
2019/11/07  04:51:00  BASE  1.14072  356  2.21088  152  -1.8  63    -8.0  0     0     980.4    NA       0.0000   9999     0     0     0    
2019/11/07  04:52:00  BASE  0.63504  358  2.21088  152  -1.9  63    -8.1  0     0     980.4    NA       0.0000   9999     0     0     0    
2019/11/07  04:53:00  BASE  0.56448  20   2.24028  162  -1.9  63    -8.0  0     0     980.4    NA       0.0000   9999     0     0     0    
2019/11/07  04:54:00  BASE  1.54056  169  2.54016  187  -2.2  64    -8.1  0     0     980.4    NA       0.0000   9999     0     0     0    
2019/11/07  04:55:00  BASE  1.764    191  2.54016  187  -2.4  65    -8.1  0     0     980.4    NA       0.0000   9999     0     0     0    
2019/11/07  04:56:00  BASE  0.69972  201  2.54016  187  -2.6  67    -8.0  0     0     980.4    NA       0.0000   9999     0     0     0    
2019/11/07  04:57:00  BASE  0.05292  211  2.54016  187  -2.8  68    -7.8  0     0     980.4    NA       0.0000   9999     0     0     0    
2019/11/07  04:58:00  BASE  0.39984  276  2.54016  187  -2.9  70    -7.7  0     0     980.4    NA       0.0000   9999     0     0     0    
2019/11/07  04:59:00  BASE  1.48176  300  2.63424  288  -2.9  71    -7.5  0     0     980.4    NA       0.0000   9999     0     0     0    
2019/11/07  05:00:00  BASE  2.16972  290  2.63424  288  -2.8  72    -7.2  0     0     980.4    NA       0.0000   9999     0     0     0    
2019/11/07  05:01:00  BASE  1.92276  297  2.63424  288  -2.9  73    -7.1  0     0     980.4    NA       0.0000   9999     0     0     0    
2019/11/07  05:02:00  BASE  1.54644  300  2.63424  288  -2.9  74    -7.0  0     0     980.4    NA       0.0000   9999     0     0     0    
2019/11/07  05:03:00  BASE  1.31712  291  2.63424  288  -3.0  75    -6.8  0     0     980.4    NA       0.0000   9999     0     0     0    
2019/11/07  05:04:00  BASE  1.04076  290  2.63424  288  -3.0  76    -6.7  0     0     980.4    NA       0.0000   9999     0     0     0    
2019/11/07  05:05:00  BASE  0.48804  281  2.63424  288  -3.1  76    -6.6  0     0     980.4    NA       0.0000   9999     0     0     0    
2019/11/07  05:06:00  BASE  0.05292  264  2.63424  288  -3.2  77    -6.6  0     0     980.4    NA       0.0000   9999     0     0     0    
2019/11/07  05:07:00  BASE  0.45276  270  2.63424  288  -3.3  78    -6.6  0     0     980.4    NA       0.0000   9999     0     0     0    
2019/11/07  05:08:00  BASE  1.12308  288  2.63424  288  -3.3  78    -6.6  0     0     980.4    NA       0.0000   9999     0     0     0    
2019/11/07  05:09:00  BASE  1.28184  307  2.54016  294  -3.4  79    -6.5  0     0     980.4    NA       0.0000   9999     0     0     0    
2019/11/07  05:10:00  BASE  1.24656  325  1.90512  301  -3.3  80    -6.4  0     0     980.4    NA       0.0000   9999     0     0     0    
2019/11/07  05:11:00  BASE  1.27008  350  1.57584  283  -3.2  80    -6.1  0     0     980.4    NA       0.0000   9999     0     0     0    
2019/11/07  05:12:00  BASE  1.13484  12   1.57584  283  -3.1  81    -6.0  0     0     980.4    NA       0.0000   9999     0     0     0    
2019/11/07  05:13:00  BASE  0.78792  35   1.57584  283  -3.1  81    -5.9  0     0     980.5    NA       0.0000   9999     0     0     0    
2019/11/07  05:14:00  BASE  0.27048  48   1.57584  283  -3.1  82    -5.8  0     0     980.6    NA       0.0000   9999     0     0     0    
2019/11/07  05:15:00  BASE  0.12348  70   1.57584  283  -3.1  82    -5.7  0     0     980.6    NA       0.0000   9999     0     0     0    
2019/11/07  05:16:00  BASE  0.2352   103  1.57584  283  -3.1  83    -5.6  0     0     980.6    NA       0.0000   9999     0     0     0    
2019/11/07  05:17:00  BASE  0.25872  87   1.57584  283  -3.1  83    -5.6  0     0     980.6    NA       0.0000   9999     0     0     0    
2019/11/07  05:18:00  BASE  0.55272  44   1.42296  9    -3.1  84    -5.5  0     0     980.6    NA       0.0000   9999     0     0     0    
2019/11/07  05:19:00  BASE  0.97608  19   1.42296  9    -3.1  84    -5.4  0     0     980.6    NA       0.0000   9999     0     0     0    
2019/11/07  05:20:00  BASE  1.2936   8    1.54056  3    -3.0  84    -5.4  0     0     980.6    NA       0.0000   9999     0     0     0    
2019/11/07  05:21:01  BASE  1.42296  5    1.54056  3    -2.9  83    -5.4  0     0     980.6    NA       0.0000   9999     0     0     0    
2019/11/07  05:22:01  BASE  1.33476  4    1.54056  3    -2.9  83    -5.4  0     0     980.6    NA       0.0000   9999     0     0     0    
2019/11/07  05:23:00  BASE  1.16424  4    1.54056  3    -2.9  82    -5.4  0     0     980.6    NA       0.0000   9999     0     0     0    
2019/11/07  05:24:00  BASE  0.9996   4    1.54056  3    -2.9  82    -5.5  0     0     980.6    NA       0.0000   9999     0     0     0    
2019/11/07  05:25:00  BASE  0.95256  6    1.54056  3    -2.9  83    -5.4  0     0     980.6    NA       0.0000   9999     0     0     0    
2019/11/07  05:26:00  BASE  1.029    8    1.54056  3    -2.9  83    -5.4  0     0     980.6    NA       0.0000   9999     0     0     0    
2019/11/07  05:27:00  BASE  1.12896  15   1.54056  3    -3.0  83    -5.4  0     0     980.7    NA       0.0000   9999     0     0     0    
2019/11/07  05:28:00  BASE  1.10544  17   1.54056  3    -3.0  84    -5.3  0     0     980.7    NA       0.0000   9999     0     0     0    
2019/11/07  05:29:00  BASE  0.92904  16   1.54056  3    -3.0  84    -5.3  0     0     980.7    NA       0.0000   9999     0     0     0    
2019/11/07  05:30:00  BASE  0.39984  20   1.51116  360  -3.0  84    -5.3  0     0     980.7    NA       0.0000   9999     0     0     0    
2019/11/07  05:31:00  BASE  0        21   1.32888  1    -3.0  84    -5.3  0     0     980.7    NA       0.0000   9999     0     0     0    
2019/11/07  05:32:00  BASE  0        14   1.21128  23   -3.0  84    -5.3  0     0     980.7    NA       0.0000   9999     0     0     0    
2019/11/07  05:33:00  BASE  0        352  1.21128  23   -3.0  84    -5.4  0     0     980.8    NA       0.0000   9999     0     0     0    
2019/11/07  05:34:00  BASE  0        333  1.21128  23   -3.0  83    -5.5  0     0     980.8    NA       0.0000   9999     0     0     0    
2019/11/07  05:35:00  BASE  0        326  1.21128  23   -3.0  83    -5.5  0     0     980.8    NA       0.0000   9999     0     0     0    
2019/11/07  05:36:00  BASE  0        304  1.21128  23   -3.0  83    -5.6  0     0     980.8    NA       0.0000   9999     0     0     0    
2019/11/07  05:37:00  BASE  0.30576  265  1.1466   14   -3.0  83    -5.6  0     0     980.8    NA       0.0000   9999     0     0     0    
2019/11/07  05:38:00  BASE  0.75852  252  1.0584   264  -3.0  83    -5.6  0     0     980.9    NA       0.0000   9999     0     0     0    
2019/11/07  05:39:00  BASE  0.9702   262  1.1466   280  -3.1  83    -5.5  0     0     980.9    NA       0.0000   9999     0     0     0    
2019/11/07  05:40:00  BASE  1.1172   278  1.21128  289  -3.1  83    -5.5  0     0     980.9    NA       0.0000   9999     0     0     0    
2019/11/07  05:41:00  BASE  1.1466   287  1.24068  286  -3.1  83    -5.5  0     0     980.9    NA       0.0000   9999     0     0     0    
2019/11/07  05:42:00  BASE  0.92316  285  1.24068  286  -3.1  83    -5.5  0     0     980.9    NA       0.0000   9999     0     0     0    
2019/11/07  05:43:00  BASE  0.42924  266  1.24068  286  -3.1  83    -5.5  0     0     981.0    NA       0.0000   9999     0     0     0    
2019/11/07  05:44:00  BASE  0.05292  231  1.24068  286  -3.1  83    -5.6  0     0     981.0    NA       0.0000   9999     0     0     0    
2019/11/07  05:45:00  BASE  0        187  1.24068  286  -3.1  82    -5.7  0     0     981.0    NA       0.0000   9999     0     0     0    
2019/11/07  05:46:00  BASE  0.0294   143  1.24068  286  -3.2  82    -5.8  0     0     981.0    NA       0.0000   9999     0     0     0    
2019/11/07  05:47:00  BASE  0.05292  80   1.24068  286  -3.3  82    -5.9  0     0     981.0    NA       0.0000   9999     0     0     0    
2019/11/07  05:48:00  BASE  0.3822   352  1.24068  286  -3.3  82    -5.9  0     0     981.0    NA       0.0000   9999     0     0     0    
2019/11/07  05:49:00  BASE  0.90552  322  1.27008  297  -3.3  83    -5.9  0     0     981.0    NA       0.0000   9999     0     0     0    
2019/11/07  05:50:00  BASE  1.12896  295  1.29948  292  -3.3  83    -5.8  0     0     981.0    NA       0.0000   9999     0     0     0    
2019/11/07  05:51:00  BASE  1.01136  268  1.29948  292  -3.2  83    -5.7  0     0     981.0    NA       0.0000   9999     0     0     0    
2019/11/07  05:52:00  BASE  0.80556  235  1.29948  292  -3.2  83    -5.7  0     0     981.0    NA       0.0000   9999     0     0     0    
2019/11/07  05:53:00  BASE  0.84084  179  1.29948  292  -3.3  83    -5.7  0     0     981.0    NA       0.0000   9999     0     0     0    
2019/11/07  05:54:00  BASE  0.9114   134  1.29948  292  -3.4  83    -5.9  0     0     981.0    NA       0.0000   9999     0     0     0    
2019/11/07  05:55:00  BASE  0.45276  115  1.29948  292  -3.5  83    -5.9  0     0     981.0    NA       0.0000   9999     0     0     0    
2019/11/07  05:56:00  BASE  0        80   1.29948  292  -3.5  84    -5.9  0     0     981.0    NA       0.0000   9999     0     0     0    
2019/11/07  05:57:00  BASE  0.05292  7    1.29948  292  -3.5  84    -5.8  0     0     981.0    NA       0.0000   9999     0     0     0    
2019/11/07  05:58:00  BASE  0.05292  318  1.29948  292  -3.4  84    -5.7  0     0     981.0    NA       0.0000   9999     0     0     0    
2019/11/07  05:59:00  BASE  0        309  1.29948  292  -3.3  84    -5.6  0     0     981.0    NA       0.0000   9999     0     0     0    
2019/11/07  06:00:00  BASE  0.47628  183  1.39356  142  -3.2  83    -5.6  0     0     981.0    NA       0.0000   9999     0     0     0    
2019/11/07  06:01:00  BASE  1.029    147  1.45236  151  -3.2  83    -5.7  0     0     981.1    NA       0.0000   9999     0     0     0    
2019/11/07  06:02:00  BASE  0.58212  137  1.45236  151  -3.4  82    -6.1  0     0     981.1    NA       0.0000   9999     0     0     0    
2019/11/07  06:03:00  BASE  0.0294   121  1.45236  151  -3.6  82    -6.3  0     0     981.0    NA       0.0000   9999     0     0     0    
2019/11/07  06:04:00  BASE  0        118  1.45236  151  -3.6  81    -6.4  0     0     981.0    NA       0.0000   9999     0     0     0    
2019/11/07  06:05:00  BASE  0        132  1.45236  151  -3.7  81    -6.5  0     0     981.0    NA       0.0000   9999     0     0     0    
2019/11/07  06:06:00  BASE  0.33516  147  1.45236  151  -3.7  80    -6.6  0     0     981.1    NA       0.0000   9999     0     0     0    
2019/11/07  06:07:00  BASE  0.46452  162  1.45236  151  -3.6  80    -6.5  0     0     981.1    NA       0.0000   9999     0     0     0    
2019/11/07  06:08:00  BASE  0.31752  193  1.45236  151  -3.5  80    -6.5  0     0     981.0    NA       0.0000   9999     0     0     0    
2019/11/07  06:09:00  BASE  0.2646   224  1.45236  151  -3.5  80    -6.4  0     0     981.1    NA       0.0000   9999     0     0     0    
2019/11/07  06:10:00  BASE  0.07644  238  1.45236  151  -3.5  80    -6.3  0     0     981.2    NA       0.0000   9999     0     0     0    
2019/11/07  06:11:00  BASE  0.2646   234  0.78792  230  -3.4  81    -6.2  0     0     981.2    NA       0.0000   9999     0     0     0    
2019/11/07  06:12:00  BASE  0.6174   216  0.81732  194  -3.3  81    -6.1  0     0     981.2    NA       0.0000   9999     0     0     0    
2019/11/07  06:13:00  BASE  0.58212  186  0.81732  194  -3.3  82    -6.0  0     0     981.2    NA       0.0000   9999     0     0     0    
2019/11/07  06:14:00  BASE  0.22932  188  0.81732  194  -3.3  82    -6.0  0     0     981.2    NA       0.0000   9999     0     0     0    
2019/11/07  06:15:00  BASE  0        226  0.81732  194  -3.4  83    -5.9  0     0     981.2    NA       0.0000   9999     0     0     0    
2019/11/07  06:16:00  BASE  0.25284  242  0.81732  194  -3.4  83    -5.9  0     0     981.2    NA       0.0000   9999     0     0     0    
2019/11/07  06:17:00  BASE  0.61152  229  0.93492  212  -3.4  84    -5.8  0     0     981.2    NA       0.0000   9999     0     0     0    
2019/11/07  06:18:00  BASE  0.7938   203  0.9702   180  -3.4  84    -5.7  0     0     981.2    NA       0.0000   9999     0     0     0    
2019/11/07  06:19:00  BASE  0.89964  181  1.0878   177  -3.4  85    -5.6  0     0     981.2    NA       0.0000   9999     0     0     0    
2019/11/07  06:20:00  BASE  0.85848  177  1.0878   177  -3.4  85    -5.6  0     0     981.2    NA       0.0000   9999     0     0     0    
2019/11/07  06:21:00  BASE  0.63504  180  1.0878   177  -3.5  85    -5.6  0     0     981.2    NA       0.0000   9999     0     0     0    
2019/11/07  06:22:00  BASE  0.47628  176  1.0878   177  -3.6  85    -5.7  0     0     981.2    NA       0.0000   9999     0     0     0    
2019/11/07  06:23:00  BASE  0.62916  163  1.0878   177  -3.7  85    -5.8  0     0     981.2    NA       0.0000   9999     0     0     0    
2019/11/07  06:24:00  BASE  0.78792  153  1.0878   177  -3.8  85    -5.9  0     0     981.2    NA       0.0000   9999     0     0     0    
2019/11/07  06:25:00  BASE  0.735    152  1.0878   177  -3.8  85    -5.9  0     0     981.2    NA       0.0000   9999     0     0     0    
2019/11/07  06:26:00  BASE  0.441    161  1.0878   177  -3.8  85    -5.9  0     0     981.2    NA       0.0000   9999     0     0     0    
2019/11/07  06:27:00  BASE  0.12936  179  1.0878   177  -3.8  85    -6.0  0     0     981.2    NA       0.0000   9999     0     0     0    
2019/11/07  06:28:00  BASE  0.33516  193  1.0878   177  -3.7  84    -5.9  0     0     981.2    NA       0.0000   9999     0     0     0    
2019/11/07  06:29:00  BASE  0.441    193  0.90552  153  -3.6  84    -5.9  0     0     981.2    NA       0.0000   9999     0     0     0    
2019/11/07  06:30:00  BASE  0.12936  182  0.90552  153  -3.5  84    -5.8  0     0     981.2    NA       0.0000   9999     0     0     0    
2019/11/07  06:31:00  BASE  0        147  0.90552  153  -3.5  84    -5.8  0     0     981.2    NA       0.0000   9999     0     0     0    
2019/11/07  06:32:00  BASE  0.0294   98   0.90552  153  -3.5  84    -5.8  0     0     981.2    NA       0.0000   9999     0     0     0    
2019/11/07  06:33:00  BASE  0.67032  73   1.48176  63   -3.5  84    -5.7  0     0     981.2    NA       0.0000   9999     0     0     0    
2019/11/07  06:34:00  BASE  1.34064  65   1.60524  62   -3.5  84    -5.8  0     0     981.2    NA       0.0000   9999     0     0     0    
2019/11/07  06:35:00  BASE  1.38768  58   1.60524  62   -3.5  84    -5.8  0     0     981.2    NA       0.0000   9999     0     0     0    
2019/11/07  06:36:00  BASE  1.12308  49   1.60524  62   -3.5  84    -5.9  0     0     981.2    NA       0.0000   9999     0     0     0    
2019/11/07  06:37:00  BASE  0.77028  39   1.60524  62   -3.5  83    -6.0  0     0     981.2    NA       0.0000   9999     0     0     0    
2019/11/07  06:38:00  BASE  0.77616  37   1.60524  62   -3.5  82    -6.1  0     0     981.2    NA       0.0000   9999     0     0     0    
2019/11/07  06:39:00  BASE  1.029    39   1.60524  62   -3.4  81    -6.2  0     0     981.3    NA       0.0000   9999     0     0     0    
2019/11/07  06:40:00  BASE  0.94668  33   1.60524  62   -3.4  81    -6.2  0     0     981.4    NA       0.0000   9999     0     0     0    
2019/11/07  06:41:00  BASE  0.42336  28   1.60524  62   -3.3  80    -6.2  0     0     981.4    NA       0.0000   9999     0     0     0    
2019/11/07  06:42:00  BASE  0.0588   31   1.60524  62   -3.2  80    -6.2  1     0     981.4    NA       0.0000   9999     0     0     0    
2019/11/07  06:43:00  BASE  0.05292  35   1.60524  62   -3.2  80    -6.2  1     0     981.4    NA       0.0000   9999     0     0     0    
2019/11/07  06:44:00  BASE  0.16464  39   1.48176  58   -3.2  79    -6.2  1     0     981.4    NA       0.0000   9999     0     0     0    
2019/11/07  06:45:00  BASE  0.39984  41   1.32888  31   -3.2  79    -6.3  1     0     981.4    NA       0.0000   9999     0     0     0    
2019/11/07  06:46:00  BASE  0.6762   40   1.32888  31   -3.2  79    -6.4  1     0     981.4    NA       0.0000   9999     0     0     0    
2019/11/07  06:47:00  BASE  0.78204  40   1.32888  31   -3.2  78    -6.4  1     0     981.4    NA       0.0000   9999     0     0     0    
2019/11/07  06:48:00  BASE  0.78204  42   1.32888  31   -3.1  78    -6.4  1     0     981.4    NA       0.0000   9999     0     0     0    
2019/11/07  06:49:00  BASE  0.74676  42   0.84672  42   -3.1  78    -6.5  1     0     981.4    NA       0.0000   9999     0     0     0    
2019/11/07  06:50:00  BASE  0.75852  37   0.90552  31   -3.1  77    -6.5  1     0     981.4    NA       0.0000   9999     0     0     0    
2019/11/07  06:51:00  BASE  0.8526   31   0.93492  28   -3.1  77    -6.5  1     0     981.4    NA       0.0000   9999     0     0     0    
2019/11/07  06:52:00  BASE  0.87612  28   0.93492  28   -3.1  77    -6.6  1     0     981.4    NA       0.0000   9999     0     0     0    
2019/11/07  06:53:00  BASE  0.81144  28   0.93492  28   -3.0  76    -6.7  1     0     981.4    NA       0.0000   9999     0     0     0    
2019/11/07  06:54:00  BASE  0.9114   44   1.21128  67   -3.0  76    -6.7  1     0     981.4    NA       0.0000   9999     0     0     0    
2019/11/07  06:55:00  BASE  0.91728  42   1.21128  67   -3.0  75    -6.9  1     0     981.4    NA       0.0000   9999     0     0     0    
2019/11/07  06:56:00  BASE  0.77616  18   1.21128  67   -3.0  74    -7.0  1     0     981.4    NA       0.0000   9999     0     0     0    
2019/11/07  06:57:00  BASE  0.8232   5    1.21128  67   -2.9  73    -7.0  1     0     981.4    NA       0.0000   9999     0     0     0    
2019/11/07  06:58:00  BASE  0.92316  3    1.21128  67   -2.8  73    -7.1  2     0     981.4    NA       0.0000   9999     0     0     0    
2019/11/07  06:59:00  BASE  0.9996   6    1.21128  67   -2.8  72    -7.1  2     0     981.4    NA       0.0000   9999     0     0     0    
2019/11/07  07:00:00  BASE  0.97608  6    1.21128  67   -2.8  72    -7.1  2     0     981.4    NA       0.0000   9999     0     0     0    
2019/11/07  07:01:00  BASE  0.87612  14   1.21128  67   -2.8  72    -7.2  2     0     981.4    NA       0.0000   9999     0     0     0    
2019/11/07  07:02:00  BASE  0.81732  30   1.21128  67   -2.9  72    -7.2  2     0     981.4    NA       0.0000   9999     0     0     0    
2019/11/07  07:03:00  BASE  0.81732  47   1.21128  67   -3.0  73    -7.3  2     0     981.5    NA       0.0000   9999     0     0     0    
2019/11/07  07:04:00  BASE  0.94668  54   1.35828  47   -3.1  73    -7.3  2     0     981.5    NA       0.0000   9999     0     0     0    
2019/11/07  07:05:00  BASE  1.09956  40   1.35828  47   -3.1  73    -7.3  2     0     981.5    NA       0.0000   9999     0     0     0    
2019/11/07  07:06:00  BASE  1.15836  23   1.35828  47   -3.1  73    -7.3  3     0     981.5    NA       0.0000   9999     0     0     0    
2019/11/07  07:07:00  BASE  1.09956  26   1.42296  41   -3.1  73    -7.3  3     0     981.5    NA       0.0000   9999     0     0     0    
2019/11/07  07:08:00  BASE  1.06428  33   1.48176  41   -3.2  73    -7.3  3     0     981.5    NA       0.0000   9999     0     0     0    
2019/11/07  07:09:00  BASE  0.91728  15   1.48176  41   -3.2  74    -7.3  3     0     981.5    NA       0.0000   9999     0     0     0    
2019/11/07  07:10:00  BASE  0.86436  349  1.48176  41   -3.3  74    -7.2  3     0     981.5    NA       0.0000   9999     0     0     0    
2019/11/07  07:11:00  BASE  1.1466   338  1.48176  333  -3.3  75    -7.2  3     0     981.5    NA       0.0000   9999     0     0     0    
2019/11/07  07:12:00  BASE  1.21716  336  1.48176  333  -3.3  76    -7.0  4     0     981.5    NA       0.0000   9999     0     0     0    
2019/11/07  07:13:00  BASE  0.95844  331  1.48176  333  -3.3  76    -6.9  4     0     981.6    NA       0.0000   9999     0     0     0    
2019/11/07  07:14:00  BASE  0.39984  332  1.48176  333  -3.3  77    -6.8  4     0     981.6    NA       0.0000   9999     0     0     0    
2019/11/07  07:15:00  BASE  0        338  1.48176  333  -3.2  77    -6.8  4     0     981.6    NA       0.0000   9999     0     0     0    
2019/11/07  07:16:00  BASE  0        343  1.48176  333  -3.2  76    -6.7  4     0     981.6    NA       0.0000   9999     0     0     0    
2019/11/07  07:17:00  BASE  0.18228  336  1.48176  333  -3.1  76    -6.8  5     0     981.6    NA       0.0000   9999     0     0     0    
2019/11/07  07:18:00  BASE  0.65856  311  1.48176  333  -3.1  75    -6.8  5     0     981.6    NA       0.0000   9999     0     0     0    
2019/11/07  07:19:00  BASE  1.0584   289  1.48176  333  -3.1  75    -6.9  5     0     981.6    NA       0.0000   9999     0     0     0    
2019/11/07  07:20:00  BASE  1.10544  269  1.48176  333  -3.1  74    -7.0  5     0     981.6    NA       0.0000   9999     0     0     0    
2019/11/07  07:21:00  BASE  1.09956  253  1.32888  271  -3.2  74    -7.1  5     0     981.6    NA       0.0000   9999     0     0     0    
2019/11/07  07:22:00  BASE  1.17012  249  1.32888  254  -3.3  75    -7.1  5     0     981.6    NA       0.0000   9999     0     0     0    
2019/11/07  07:23:00  BASE  1.0878   252  1.32888  254  -3.4  76    -7.0  6     0     981.6    NA       0.0000   9999     0     0     0    
2019/11/07  07:24:00  BASE  0.57036  246  1.32888  254  -3.4  77    -6.8  6     0     981.7    NA       0.0000   9999     0     0     0    
2019/11/07  07:25:00  BASE  0.0882   234  1.32888  254  -3.4  78    -6.6  6     0     981.7    NA       0.0000   9999     0     0     0    
2019/11/07  07:26:00  BASE  0        220  1.32888  254  -3.4  79    -6.5  6     0     981.7    NA       0.0000   9999     0     0     0    
2019/11/07  07:27:00  BASE  0        198  1.32888  254  -3.3  80    -6.4  6     0     981.7    NA       0.0000   9999     0     0     0    
2019/11/07  07:28:00  BASE  0        179  1.32888  254  -3.4  80    -6.4  6     0     981.7    NA       0.0000   9999     0     0     0    
2019/11/07  07:29:00  BASE  0        171  1.32888  254  -3.5  80    -6.4  7     0     981.7    NA       0.0000   9999     0     0     0    
2019/11/07  07:30:00  BASE  0        154  1.32888  254  -3.6  80    -6.5  7     0     981.7    NA       0.0000   9999     0     0     0    
2019/11/07  07:31:00  BASE  0        131  1.32888  254  -3.7  81    -6.6  7     0     981.7    NA       0.0000   9999     0     0     0    
2019/11/07  07:32:00  BASE  0        111  1.1466   256  -3.8  81    -6.6  7     0     981.7    NA       0.0000   9999     0     0     0    
2019/11/07  07:33:00  BASE  0        87   0.75852  244  -3.8  81    -6.5  7     0     981.7    NA       0.0000   9999     0     0     0    
2019/11/07  07:34:00  BASE  0        24   0        M    -3.7  81    -6.4  7     0     981.7    NA       0.0000   9999     0     0     0    
2019/11/07  07:35:00  BASE  0        26   0        M    -3.6  81    -6.4  8     0     981.8    NA       0.0000   9999     0     0     0    
2019/11/07  07:36:00  BASE  0        75   0        M    -3.4  80    -6.4  8     0     981.7    NA       0.0000   9999     0     0     0    
2019/11/07  07:37:00  BASE  0        67   0        M    -3.3  79    -6.5  8     0     981.8    NA       0.0000   9999     0     0     0    
2019/11/07  07:38:00  BASE  0        67   0        M    -3.2  77    -6.6  8     0     981.8    NA       0.0000   9999     0     0     0    
2019/11/07  07:39:00  BASE  0        73   0        M    -3.1  76    -6.7  8     0     981.8    NA       0.0000   9999     0     0     0    
2019/11/07  07:40:00  BASE  0        96   0        M    -3.1  75    -6.9  8     0     981.8    NA       0.0000   9999     0     0     0    
2019/11/07  07:41:00  BASE  0        128  0        M    -3.1  74    -7.1  9     0     981.8    NA       0.0000   9999     0     0     0    
2019/11/07  07:42:00  BASE  0        144  0        M    -3.1  72    -7.3  9     0     981.8    NA       0.0000   9999     0     0     0    
2019/11/07  07:43:00  BASE  0        141  0        M    -3.1  71    -7.5  9     0     981.8    NA       0.0000   9999     0     0     0    
2019/11/07  07:44:00  BASE  0        153  0        M    -3.1  70    -7.7  9     0     981.8    NA       0.0000   9999     0     0     0    
2019/11/07  07:45:00  BASE  0        175  0        M    -3.1  70    -7.8  10    0     981.8    NA       0.0000   9999     0     0     0    
2019/11/07  07:46:00  BASE  0        195  0        M    -3.0  69    -7.9  10    0     981.8    NA       0.0000   9999     0     0     0    
2019/11/07  07:47:00  BASE  0        210  0        M    -3.0  69    -7.9  10    0     981.8    NA       0.0000   9999     0     0     0    
2019/11/07  07:48:00  BASE  0        214  0        M    -3.0  69    -7.9  10    0     981.8    NA       0.0000   9999     0     0     0    
2019/11/07  07:49:00  BASE  0        213  0        M    -3.0  69    -7.9  10    0     981.8    NA       0.0000   9999     0     0     0    
2019/11/07  07:50:00  BASE  0        206  0        M    -3.0  70    -7.8  10    0     981.8    NA       0.0000   9999     0     0     0    
2019/11/07  07:51:00  BASE  0        200  0        M    -3.0  70    -7.7  11    0     981.8    NA       0.0000   9999     0     0     0    
2019/11/07  07:52:00  BASE  0        216  0        M    -3.0  71    -7.5  11    0     981.8    NA       0.0000   9999     0     0     0    
2019/11/07  07:53:00  BASE  0        259  0        M    -3.0  71    -7.5  11    0     981.8    NA       0.0000   9999     0     0     0    
2019/11/07  07:54:00  BASE  0        281  0        M    -3.0  72    -7.4  11    0     981.8    NA       0.0000   9999     0     0     0    
2019/11/07  07:55:00  BASE  0        279  0        M    -3.0  72    -7.4  12    0     981.9    NA       0.0000   9999     0     0     0    
2019/11/07  07:56:00  BASE  0        283  0        M    -3.1  72    -7.4  12    0     981.9    NA       0.0000   9999     0     0     0    
2019/11/07  07:57:00  BASE  0.2646   279  0.84672  262  -3.1  72    -7.4  12    0     981.9    NA       0.0000   9999     0     0     0    
2019/11/07  07:58:00  BASE  0.69972  265  0.90552  253  -3.1  72    -7.4  12    0     982.0    NA       0.0000   9999     0     0     0    
2019/11/07  07:59:00  BASE  0.84084  251  0.90552  251  -3.2  73    -7.4  12    0     982.0    NA       0.0000   9999     0     0     0    
2019/11/07  08:00:00  BASE  0.82908  241  1.029    237  -3.2  73    -7.4  13    0     982.0    NA       0.0000   9999     0     0     0    
2019/11/07  08:01:00  BASE  0.98196  235  1.21128  228  -3.3  73    -7.4  13    0     982.0    NA       0.0000   9999     0     0     0    
2019/11/07  08:02:00  BASE  1.12896  227  1.24068  222  -3.4  73    -7.5  13    0     982.1    NA       0.0000   9999     0     0     0    
2019/11/07  08:03:00  BASE  1.15248  217  1.24068  213  -3.5  73    -7.5  13    0     982.1    NA       0.0000   9999     0     0     0    
2019/11/07  08:04:00  BASE  1.04076  208  1.24068  213  -3.6  73    -7.7  13    0     982.1    NA       0.0000   9999     0     0     0    
2019/11/07  08:05:00  BASE  0.89376  207  1.24068  213  -3.8  73    -7.8  14    0     982.1    NA       0.0000   9999     0     0     0    
2019/11/07  08:06:00  BASE  0.83496  218  1.24068  213  -3.9  73    -7.9  14    0     982.1    NA       0.0000   9999     0     0     0    
2019/11/07  08:07:00  BASE  0.8232   230  1.24068  213  -3.9  73    -7.9  14    0     982.1    NA       0.0000   9999     0     0     0    
2019/11/07  08:08:00  BASE  0.95844  229  1.24068  213  -3.8  73    -7.9  14    0     982.1    NA       0.0000   9999     0     0     0    
2019/11/07  08:09:00  BASE  1.11132  209  1.24068  213  -3.7  74    -7.7  15    0     982.1    NA       0.0000   9999     0     0     0    
2019/11/07  08:10:00  BASE  1.15836  169  1.29948  142  -3.7  74    -7.7  15    0     982.1    NA       0.0000   9999     0     0     0    
2019/11/07  08:11:00  BASE  0.98784  164  1.29948  142  -3.7  74    -7.6  15    0     982.1    NA       0.0000   9999     0     0     0    
2019/11/07  08:12:00  BASE  0.82908  193  1.29948  142  -3.7  74    -7.6  15    0     982.1    NA       0.0000   9999     0     0     0    
2019/11/07  08:13:00  BASE  0.8526   205  1.29948  142  -3.7  74    -7.7  16    0     982.2    NA       0.0000   9999     0     0     0    
2019/11/07  08:14:00  BASE  0.65268  212  1.29948  142  -3.7  74    -7.8  16    0     982.2    NA       0.0000   9999     0     0     0    
2019/11/07  08:15:00  BASE  0.22932  209  1.29948  142  -3.7  73    -7.8  16    0     982.2    NA       0.0000   9999     0     0     0    
2019/11/07  08:16:00  BASE  0.0294   188  1.29948  142  -3.6  73    -7.8  16    0     982.2    NA       0.0000   9999     0     0     0    
2019/11/07  08:17:00  BASE  0.294    188  1.29948  142  -3.6  72    -7.8  16    0     982.2    NA       0.0000   9999     0     0     0    
2019/11/07  08:18:00  BASE  0.6174   213  1.29948  142  -3.5  72    -7.8  17    0     982.2    NA       0.0000   9999     0     0     0    
2019/11/07  08:19:00  BASE  0.55272  212  1.29948  142  -3.5  72    -7.8  17    0     982.2    NA       0.0000   9999     0     0     0    
2019/11/07  08:20:00  BASE  0.22932  162  1.21128  226  -3.5  72    -7.7  17    0     982.2    NA       0.0000   9999     0     0     0    
2019/11/07  08:21:00  BASE  0.16464  106  1.21128  226  -3.5  72    -7.7  17    0     982.2    NA       0.0000   9999     0     0     0    
2019/11/07  08:22:00  BASE  0.40572  82   1.21128  226  -3.4  72    -7.6  17    0     982.2    NA       0.0000   9999     0     0     0    
2019/11/07  08:23:00  BASE  0.68208  75   1.21128  76   -3.3  72    -7.6  18    0     982.3    NA       0.0000   9999     0     0     0    
2019/11/07  08:24:00  BASE  0.65268  89   1.24068  98   -3.3  71    -7.8  18    0     982.3    NA       0.0000   9999     0     0     0    
2019/11/07  08:25:00  BASE  0.72324  94   1.24068  98   -3.3  70    -7.9  18    0     982.3    NA       0.0000   9999     0     0     0    
2019/11/07  08:26:00  BASE  0.96432  86   1.24068  98   -3.3  70    -8.1  18    0     982.3    NA       0.0000   9999     0     0     0    
2019/11/07  08:27:00  BASE  0.63504  85   1.24068  98   -3.4  69    -8.3  19    0     982.3    NA       0.0000   9999     0     0     0    
2019/11/07  08:28:00  BASE  0.15876  76   1.24068  98   -3.5  68    -8.5  19    0     982.3    NA       0.0000   9999     0     0     0    
2019/11/07  08:29:00  BASE  0        88   1.24068  98   -3.5  68    -8.5  19    0     982.3    NA       0.0000   9999     0     0     0    
2019/11/07  08:30:00  BASE  0        149  1.24068  98   -3.5  68    -8.5  19    0     982.3    NA       0.0000   9999     0     0     0    
2019/11/07  08:31:00  BASE  0.05292  159  1.24068  98   -3.5  68    -8.5  19    0     982.3    NA       0.0000   9999     0     0     0    
2019/11/07  08:32:00  BASE  0.1764   87   1.24068  98   -3.4  68    -8.5  19    0     982.3    NA       0.0000   9999     0     0     0    
2019/11/07  08:33:00  BASE  0.15288  65   1.24068  98   -3.3  68    -8.4  19    0     982.3    NA       0.0000   9999     0     0     0    
2019/11/07  08:34:00  BASE  0.15288  67   1.21128  77   -3.2  67    -8.4  19    0     982.3    NA       0.0000   9999     0     0     0    
2019/11/07  08:35:00  BASE  0.6174   77   1.21128  70   -3.2  67    -8.5  19    0     982.3    NA       0.0000   9999     0     0     0    
2019/11/07  08:36:00  BASE  0.735    74   1.21128  70   -3.1  67    -8.5  19    0     982.3    NA       0.0000   9999     0     0     0    
2019/11/07  08:37:00  BASE  0.59976  81   1.21128  70   -3.1  66    -8.5  20    0     982.3    NA       0.0000   9999     0     0     0    
2019/11/07  08:38:00  BASE  0.54684  106  1.21128  70   -3.1  66    -8.6  20    0     982.3    NA       0.0000   9999     0     0     0    
2019/11/07  08:39:00  BASE  0.65268  113  1.21128  70   -3.2  66    -8.7  20    0     982.3    NA       0.0000   9999     0     0     0    
2019/11/07  08:40:00  BASE  1.0584   94   1.63464  70   -3.2  66    -8.7  20    0     982.3    NA       0.0000   9999     0     0     0    
2019/11/07  08:41:00  BASE  1.3524   87   1.69344  97   -3.2  66    -8.7  21    0     982.3    NA       0.0000   9999     0     0     0    
2019/11/07  08:42:00  BASE  1.21716  89   1.69344  90   -3.2  66    -8.6  21    0     982.3    NA       0.0000   9999     0     0     0    
2019/11/07  08:43:00  BASE  0.45276  73   1.69344  90   -3.2  67    -8.4  21    0     982.3    NA       0.0000   9999     0     0     0    
2019/11/07  08:44:00  BASE  0        311  1.69344  90   -3.2  68    -8.3  21    0     982.3    NA       0.0000   9999     0     0     0    
2019/11/07  08:45:00  BASE  0        265  1.69344  90   -3.2  69    -8.1  22    0     982.4    NA       0.0000   9999     0     0     0    
2019/11/07  08:46:00  BASE  0.19404  210  1.69344  90   -3.2  70    -7.9  22    0     982.4    NA       0.0000   9999     0     0     0    
2019/11/07  08:47:00  BASE  0.7056   111  1.69344  90   -3.2  71    -7.8  22    0     982.5    NA       0.0000   9999     0     0     0    
2019/11/07  08:48:00  BASE  0.64092  89   1.69344  90   -3.2  71    -7.7  22    0     982.4    NA       0.0000   9999     0     0     0    
2019/11/07  08:49:00  BASE  0.12936  62   1.69344  90   -3.2  71    -7.7  22    0     982.4    NA       0.0000   9999     0     0     0    
2019/11/07  08:50:00  BASE  0        46   1.69344  90   -3.2  71    -7.7  22    0     982.4    NA       0.0000   9999     0     0     0    
2019/11/07  08:51:00  BASE  0        46   1.69344  90   -3.2  71    -7.7  22    0     982.5    NA       0.0000   9999     0     0     0    
2019/11/07  08:52:00  BASE  0        24   1.29948  80   -3.1  71    -7.7  22    0     982.6    NA       0.0000   9999     0     0     0    
2019/11/07  08:53:00  BASE  0.22344  299  1.29948  80   -3.1  70    -7.8  23    0     982.6    NA       0.0000   9999     0     0     0    
2019/11/07  08:54:00  BASE  0.81732  227  1.29948  215  -3.3  69    -8.1  23    0     982.6    NA       0.0000   9999     0     0     0    
2019/11/07  08:55:00  BASE  0.74676  223  1.29948  215  -3.5  69    -8.3  23    0     982.6    NA       0.0000   9999     0     0     0    
2019/11/07  08:56:00  BASE  0.147    220  1.29948  215  -3.7  70    -8.4  23    0     982.6    NA       0.0000   9999     0     0     0    
2019/11/07  08:57:00  BASE  0        208  1.29948  215  -4.0  72    -8.4  24    0     982.6    NA       0.0000   9999     0     0     0    
2019/11/07  08:58:00  BASE  0        206  1.29948  215  -4.2  74    -8.2  24    0     982.6    NA       0.0000   9999     0     0     0    
2019/11/07  08:59:00  BASE  0.25284  213  1.29948  215  -4.2  76    -7.8  25    0     982.6    NA       0.0000   9999     0     0     0    
2019/11/07  09:00:00  BASE  0.71736  225  1.29948  215  -4.3  79    -7.4  25    0     982.6    NA       0.0000   9999     0     0     0    
2019/11/07  09:01:00  BASE  0.91728  227  1.29948  215  -4.3  81    -7.1  26    0     982.6    NA       0.0000   9999     0     0     0    
2019/11/07  09:02:00  BASE  0.89964  224  1.29948  215  -4.3  83    -6.8  26    0     982.6    NA       0.0000   9999     0     0     0    
2019/11/07  09:03:00  BASE  0.89376  227  1.29948  215  -4.4  84    -6.6  26    0     982.6    NA       0.0000   9999     0     0     0    
2019/11/07  09:04:00  BASE  0.81144  222  1.029    234  -4.4  86    -6.4  27    0     982.6    NA       0.0000   9999     0     0     0    
2019/11/07  09:05:00  BASE  0.66444  224  1.029    234  -4.5  87    -6.3  27    0     982.6    NA       0.0000   9999     0     0     0    
2019/11/07  09:06:00  BASE  0.6762   235  1.029    234  -4.6  88    -6.2  27    0     982.6    NA       0.0000   9999     0     0     0    
2019/11/07  09:07:00  BASE  0.7644   235  1.029    234  -4.6  90    -6.1  27    0     982.6    NA       0.0000   9999     0     0     0    
2019/11/07  09:08:00  BASE  0.77616  229  1.029    234  -4.7  91    -5.9  28    0     982.7    NA       0.0000   9999     0     0     0    
2019/11/07  09:09:00  BASE  0.78792  215  1.029    234  -4.7  92    -5.8  28    0     982.7    NA       0.0000   9999     0     0     0    
2019/11/07  09:10:00  BASE  0.7644   208  0.9702   230  -4.7  93    -5.6  29    0     982.7    NA       0.0000   9999     0     0     0    
2019/11/07  09:11:00  BASE  0.65856  217  0.9702   230  -4.7  94    -5.5  30    0     982.7    NA       0.0000   9999     0     0     0    
2019/11/07  09:12:00  BASE  0.45864  230  0.9702   230  -4.7  95    -5.3  30    0     982.7    NA       0.0000   9999     0     0     0    
2019/11/07  09:13:00  BASE  0.52332  239  0.87612  202  -4.6  96    -5.2  31    0     982.7    NA       0.0000   9999     0     0     0    
2019/11/07  09:14:00  BASE  0.5586   238  0.87612  202  -4.6  97    -5.0  31    0     982.7    NA       0.0000   9999     0     0     0    
2019/11/07  09:15:00  BASE  0.24108  231  0.87612  202  -4.5  97    -4.9  31    0     982.7    NA       0.0000   9999     0     0     0    
2019/11/07  09:16:00  BASE  0.05292  226  0.87612  202  -4.5  98    -4.8  31    0     982.7    NA       0.0000   9999     0     0     0    
2019/11/07  09:17:00  BASE  0        226  0.87612  202  -4.4  98    -4.7  30    0     982.7    NA       0.0000   9999     0     0     0    
2019/11/07  09:18:00  BASE  0        226  0.87612  202  -4.4  98    -4.6  30    0     982.7    NA       0.0000   9999     0     0     0    
2019/11/07  09:19:00  BASE  0        226  0.87612  202  -4.3  98    -4.6  30    0     982.7    NA       0.0000   9999     0     0     0    
2019/11/07  09:20:00  BASE  0        227  0.78792  243  -4.2  98    -4.5  31    0     982.7    NA       0.0000   9999     0     0     0    
2019/11/07  09:21:00  BASE  0        228  0.78792  243  -4.1  98    -4.4  31    0     982.7    NA       0.0000   9999     0     0     0    
2019/11/07  09:22:00  BASE  0        227  0.78792  243  -4.0  97    -4.4  31    0     982.8    NA       0.0000   9999     0     0     0    
2019/11/07  09:23:00  BASE  0        217  0.75852  243  -3.9  97    -4.4  32    0     982.8    NA       0.0000   9999     0     0     0    
2019/11/07  09:24:00  BASE  0        71   0.60564  226  -3.9  96    -4.4  33    0     982.8    NA       0.0000   9999     0     0     0    
2019/11/07  09:25:00  BASE  0        58   0        M    -3.8  95    -4.5  33    0     982.8    NA       0.0000   9999     0     0     0    
2019/11/07  09:26:00  BASE  0.07644  54   0.63504  58   -3.8  94    -4.7  35    0     982.8    NA       0.0000   9999     0     0     0    
2019/11/07  09:27:00  BASE  0.42336  54   0.9996   65   -3.8  92    -4.9  36    0     982.8    NA       0.0000   9999     0     0     0    
2019/11/07  09:28:00  BASE  0.75852  60   0.9996   65   -3.8  91    -5.1  37    0     982.8    NA       0.0000   9999     0     0     0    
2019/11/07  09:29:00  BASE  0.74676  59   0.9996   65   -3.8  89    -5.3  38    0     982.8    NA       0.0000   9999     0     0     0    
2019/11/07  09:30:00  BASE  0.72324  52   0.9996   65   -3.8  88    -5.6  39    0     982.8    NA       0.0000   9999     0     0     0    
2019/11/07  09:31:00  BASE  0.79968  51   0.9996   65   -3.8  86    -5.8  41    0     982.8    NA       0.0000   9999     0     0     0    
2019/11/07  09:32:00  BASE  0.82908  50   0.9996   65   -3.8  84    -6.1  42    0     982.8    NA       0.0000   9999     0     0     0    
2019/11/07  09:33:00  BASE  0.84672  44   0.9996   65   -3.7  82    -6.3  43    0     982.8    NA       0.0000   9999     0     0     0    
2019/11/07  09:34:00  BASE  0.89964  47   0.9996   65   -3.7  81    -6.5  44    0     982.8    NA       0.0000   9999     0     0     0    
2019/11/07  09:35:00  BASE  0.93492  52   0.9996   65   -3.6  79    -6.8  45    0     982.8    NA       0.0000   9999     0     0     0    
2019/11/07  09:36:00  BASE  0.85848  53   0.9996   65   -3.6  78    -7.0  45    0     982.8    NA       0.0000   9999     0     0     0    
2019/11/07  09:37:00  BASE  0.71736  48   0.9996   65   -3.6  76    -7.2  45    0     982.8    NA       0.0000   9999     0     0     0    
2019/11/07  09:38:00  BASE  0.34692  38   0.9702   53   -3.6  75    -7.4  45    0     982.8    NA       0.0000   9999     0     0     0    
2019/11/07  09:39:00  BASE  0.02352  28   0.9702   53   -3.6  74    -7.5  45    0     982.8    NA       0.0000   9999     0     0     0    
2019/11/07  09:40:00  BASE  0.02352  9    0.9702   53   -3.6  74    -7.6  45    0     982.8    NA       0.0000   9999     0     0     0    
2019/11/07  09:41:00  BASE  0.37044  352  0.9702   53   -3.6  73    -7.7  44    0     982.8    NA       0.0000   9999     0     0     0    
2019/11/07  09:42:00  BASE  0.61152  348  0.9702   53   -3.6  73    -7.8  45    0     982.9    NA       0.0000   9999     0     0     0    
2019/11/07  09:43:00  BASE  0.39396  353  0.9702   53   -3.7  73    -7.8  45    0     982.9    NA       0.0000   9999     0     0     0    
2019/11/07  09:44:00  BASE  0.45276  7    0.9702   53   -3.7  73    -7.8  47    0     982.9    NA       0.0000   9999     0     0     0    
2019/11/07  09:45:00  BASE  0.71736  11   0.87612  5    -3.7  73    -7.9  48    0     982.9    NA       0.0000   9999     0     0     0    
2019/11/07  09:46:00  BASE  0.65268  354  0.87612  5    -3.7  73    -7.9  50    0     982.9    NA       0.0000   9999     0     0     0    
2019/11/07  09:47:00  BASE  0.30576  336  0.87612  5    -3.7  73    -7.9  53    0     982.9    NA       0.0000   9999     0     0     0    
2019/11/07  09:48:00  BASE  0.05292  327  0.87612  5    -3.7  73    -7.9  53    0     982.9    NA       0.0000   9999     0     0     0    
2019/11/07  09:49:00  BASE  0        321  0.87612  5    -3.7  73    -7.9  56    0     982.9    NA       0.0000   9999     0     0     0    
2019/11/07  09:50:00  BASE  0        321  0.87612  5    -3.7  73    -7.9  56    0     982.9    NA       0.0000   9999     0     0     0    
2019/11/07  09:51:00  BASE  0        316  0.87612  5    -3.7  73    -7.8  58    0     982.9    NA       0.0000   9999     0     0     0    
2019/11/07  09:52:00  BASE  0        318  0.87612  5    -3.7  73    -7.9  60    0     982.9    NA       0.0000   9999     0     0     0    
2019/11/07  09:53:00  BASE  0        30   0.87612  5    -3.7  72    -8.0  62    0     982.9    NA       0.0000   9999     0     0     0    
2019/11/07  09:54:00  BASE  0        64   0.87612  5    -3.7  71    -8.2  63    0     982.9    NA       0.0000   9999     0     0     0    
2019/11/07  09:55:00  BASE  0        53   0.75852  340  -3.6  70    -8.4  65    0     983.0    NA       0.0000   9999     0     0     0    
2019/11/07  09:56:00  BASE  0.16464  61   0.69384  71   -3.6  68    -8.6  66    0     983.0    NA       0.0000   9999     0     0     0    
2019/11/07  09:57:00  BASE  0.72324  67   1.39356  71   -3.5  67    -8.9  67    0     983.0    NA       0.0000   9999     0     0     0    
2019/11/07  09:58:00  BASE  0.68796  58   1.39356  71   -3.5  65    -9.1  69    0     983.0    NA       0.0000   9999     0     0     0    
2019/11/07  09:59:00  BASE  0.12348  45   1.39356  71   -3.5  65    -9.2  70    0     983.0    NA       0.0000   9999     0     0     0    
2019/11/07  10:00:00  BASE  0.21756  39   1.39356  71   -3.5  64    -9.3  72    0     983.1    NA       0.0000   9999     0     0     0    
2019/11/07  10:01:00  BASE  0.84672  43   1.39356  71   -3.5  64    -9.4  74    0     983.1    NA       0.0000   9999     0     0     0    
2019/11/07  10:02:00  BASE  1.2054   43   1.39356  71   -3.6  63    -9.5  75    0     983.1    NA       0.0000   9999     0     0     0    
2019/11/07  10:03:00  BASE  0.88788  37   1.39356  71   -3.6  63    -9.5  77    0     983.1    NA       0.0000   9999     0     0     0    
2019/11/07  10:04:00  BASE  0.42924  40   1.39356  71   -3.6  64    -9.5  78    0     983.1    NA       0.0000   9999     0     0     0    
2019/11/07  10:05:00  BASE  0.19992  50   1.39356  71   -3.6  64    -9.5  78    0     983.1    NA       0.0000   9999     0     0     0    
2019/11/07  10:06:00  BASE  0.08232  4    1.39356  71   -3.6  64    -9.4  78    0     983.1    NA       0.0000   9999     0     0     0    
2019/11/07  10:07:00  BASE  0        277  1.35828  51   -3.6  65    -9.3  78    0     983.1    NA       0.0000   9999     0     0     0    
2019/11/07  10:08:00  BASE  0.07644  225  1.35828  51   -3.5  65    -9.1  78    0     983.2    NA       0.0000   9999     0     0     0    
2019/11/07  10:09:00  BASE  0.07644  210  1.35828  51   -3.5  65    -9.2  79    0     983.2    NA       0.0000   9999     0     0     0    
2019/11/07  10:10:00  BASE  0        191  1.35828  51   -3.6  65    -9.3  79    0     983.2    NA       0.0000   9999     0     0     0    
2019/11/07  10:11:00  BASE  0.02352  154  1.35828  51   -3.7  65    -9.3  84    0     983.2    NA       0.0000   9999     0     0     0    
2019/11/07  10:12:00  BASE  0.294    133  0.9996   39   -3.9  66    -9.3  77    0     983.2    NA       0.0000   9999     0     0     0    
2019/11/07  10:13:00  BASE  0.294    138  0.75852  68   -4.0  66    -9.4  77    0     983.2    NA       0.0000   9999     0     0     0    
2019/11/07  10:14:00  BASE  0.02352  154  0.69384  136  -4.0  66    -9.4  78    0     983.2    NA       0.0000   9999     0     0     0    
2019/11/07  10:15:00  BASE  0        178  0.69384  136  -3.9  65    -9.5  80    0     983.2    NA       0.0000   9999     0     0     0    
2019/11/07  10:16:00  BASE  0        197  0.69384  136  -3.9  64    -9.7  83    0     983.2    NA       0.0000   9999     0     0     0    
2019/11/07  10:17:00  BASE  0        201  0.69384  136  -3.9  63    -9.9  85    0     983.2    NA       0.0000   9999     0     0     0    
2019/11/07  10:18:00  BASE  0        201  0.69384  136  -3.8  63    -9.9  87    0     983.2    NA       0.0000   9999     0     0     0    
2019/11/07  10:19:00  BASE  0        217  0.69384  136  -3.8  62    -10.0 89    0     983.3    NA       0.0000   9999     0     0     0    
2019/11/07  10:20:00  BASE  0        237  0.69384  136  -3.8  62    -10.1 91    0     983.3    NA       0.0000   9999     0     0     0    
2019/11/07  10:21:00  BASE  0        241  0.69384  136  -3.8  62    -10.1 92    0     983.3    NA       0.0000   9999     11940 0     0    
2019/11/07  10:22:00  BASE  0        241  0.60564  128  -3.7  62    -10.0 94    0     983.3    NA       0.0000   9999     0     0     0    
2019/11/07  10:23:00  BASE  0        219  0        M    -3.7  62    -10.0 95    0     983.3    NA       0.0000   9999     0     0     0    
2019/11/07  10:24:00  BASE  0        185  0        M    -3.8  62    -9.9  98    0     983.3    NA       0.0000   9999     0     0     0    
2019/11/07  10:25:00  BASE  0        177  0        M    -3.7  63    -9.8  101   0     983.3    NA       0.0000   9999     0     0     0    
2019/11/07  10:26:00  BASE  0        157  0        M    -3.7  63    -9.7  101   0     983.3    NA       0.0000   9999     0     0     0    
2019/11/07  10:27:00  BASE  0.2646   121  0.78792  105  -3.7  64    -9.6  102   0     983.3    NA       0.0000   9999     0     0     0    
2019/11/07  10:28:00  BASE  0.66444  116  0.90552  115  -3.7  64    -9.5  103   0     983.4    NA       0.0000   9999     0     0     0    
2019/11/07  10:29:00  BASE  0.62916  114  0.90552  115  -3.7  65    -9.4  104   0     983.3    NA       0.0000   9999     0     0     0    
2019/11/07  10:30:00  BASE  0.22932  86   0.90552  115  -3.7  65    -9.3  104   0     983.3    NA       0.0000   9999     0     0     0    
2019/11/07  10:31:00  BASE  0        65   0.90552  115  -3.8  66    -9.3  105   0     983.3    NA       0.0000   9999     0     0     0    
2019/11/07  10:32:00  BASE  0        51   0.90552  115  -3.8  66    -9.2  105   0     983.3    NA       0.0000   9999     0     0     0    
2019/11/07  10:33:00  BASE  0        41   0.90552  115  -3.8  67    -9.0  106   0     983.4    NA       0.0000   9999     0     0     0    
2019/11/07  10:34:00  BASE  0        41   0.90552  115  -3.7  67    -9.0  108   0     983.4    NA       0.0000   9999     0     0     0    
2019/11/07  10:35:00  BASE  0        41   0.90552  115  -3.6  67    -8.9  107   0     983.4    NA       0.0000   9999     0     0     0    
2019/11/07  10:36:00  BASE  0        41   0.90552  115  -3.5  66    -8.9  107   0     983.4    NA       0.0000   9999     0     0     0    
2019/11/07  10:37:00  BASE  0        41   0.90552  115  -3.5  65    -9.1  109   0     983.4    NA       0.0000   9999     0     0     0    
2019/11/07  10:38:00  BASE  0        41   0.72324  98   -3.5  65    -9.1  117   0     983.4    NA       0.0000   9999     0     0     0    
2019/11/07  10:39:00  BASE  0        22   0        M    -3.5  65    -9.1  127   0     983.4    NA       0.0000   9999     0     0     0    
2019/11/07  10:40:00  BASE  0        308  0        M    -3.5  65    -9.1  116   0     983.4    NA       0.0000   9999     0     0     0    
2019/11/07  10:41:00  BASE  0        296  0        M    -3.6  66    -9.1  113   0     983.4    NA       0.0000   9999     0     0     0    
2019/11/07  10:42:00  BASE  0        65   0        M    -3.6  66    -9.0  121   0     983.4    NA       0.0000   9999     0     0     0    
2019/11/07  10:43:00  BASE  0        80   0        M    -3.6  66    -8.9  119   0     983.4    NA       0.0000   9999     0     0     0    
2019/11/07  10:44:00  BASE  0        61   0        M    -3.6  67    -8.9  115   0     983.4    NA       0.0000   9999     0     0     0    
2019/11/07  10:45:00  BASE  0        39   0        M    -3.6  67    -8.9  116   0     983.4    NA       0.0000   9999     0     0     0    
2019/11/07  10:46:00  BASE  0        34   0        M    -3.6  67    -8.9  122   0     983.4    NA       0.0000   9999     0     0     0    
2019/11/07  10:47:00  BASE  0        25   0        M    -3.6  66    -9.0  123   0     983.4    NA       0.0000   9999     0     0     0    
2019/11/07  10:48:00  BASE  0        3    0        M    -3.7  66    -9.1  123   0     983.4    NA       0.0000   9999     0     0     0    
2019/11/07  10:49:00  BASE  0        352  0        M    -3.7  66    -9.2  127   0     983.4    NA       0.0000   9999     0     0     0    
2019/11/07  10:50:00  BASE  0        360  0        M    -3.7  66    -9.2  152   0     983.4    NA       0.0000   9999     0     0     0    
2019/11/07  10:51:00  BASE  0        13   0        M    -3.7  66    -9.1  216   0     983.5    NA       0.0000   9999     0     0     0    
2019/11/07  10:52:00  BASE  0        20   0        M    -3.7  66    -9.1  169   0     983.5    NA       0.0000   9999     0     0     0    
2019/11/07  10:53:00  BASE  0        26   0        M    -3.6  67    -9.0  148   0     983.5    NA       0.0000   9999     0     0     0    
2019/11/07  10:54:00  BASE  0        26   0        M    -3.6  67    -8.9  123   0     983.5    NA       0.0000   9999     0     0     0    
2019/11/07  10:55:00  BASE  0        354  0        M    -3.6  67    -8.9  115   0     983.5    NA       0.0000   9999     0     0     0    
2019/11/07  10:56:00  BASE  0        323  0        M    -3.5  66    -8.9  112   0     983.5    NA       0.0000   9999     0     0     0    
2019/11/07  10:57:00  BASE  0        323  0        M    -3.5  66    -8.8  112   0     983.5    NA       0.0000   9999     0     0     0    
2019/11/07  10:58:00  BASE  0        323  0        M    -3.5  66    -8.8  115   0     983.5    NA       0.0000   9999     0     0     0    
2019/11/07  10:59:00  BASE  0        323  0        M    -3.5  67    -8.8  111   0     983.5    NA       0.0000   9999     0     0     0    
2019/11/07  11:00:00  BASE  0        323  0        M    -3.4  67    -8.8  109   0     983.5    NA       0.0000   9999     0     0     0    
2019/11/07  11:01:00  BASE  0        325  0        M    -3.4  66    -8.8  115   0     983.5    NA       0.0000   9999     0     0     0    
2019/11/07  11:02:00  BASE  0        11   0        M    -3.4  66    -8.9  114   0     983.5    NA       0.0000   9999     0     0     0    
2019/11/07  11:03:00  BASE  0.28224  55   0.75852  62   -3.4  65    -9.0  116   0     983.5    NA       0.0000   9999     0     0     0    
2019/11/07  11:04:00  BASE  0.63504  51   0.87612  54   -3.3  65    -9.1  116   0     983.5    NA       0.0000   9999     0     0     0    
2019/11/07  11:05:00  BASE  0.91728  48   1.42296  54   -3.3  64    -9.1  117   0     983.5    NA       0.0000   9999     0     0     0    
2019/11/07  11:06:00  BASE  1.40532  57   1.96392  70   -3.4  64    -9.1  119   0     983.5    NA       0.0000   9999     0     0     0    
2019/11/07  11:07:00  BASE  1.84632  69   2.21088  72   -3.4  65    -9.1  120   0     983.5    NA       0.0000   9999     0     0     0    
2019/11/07  11:08:00  BASE  2.01096  82   2.32848  93   -3.4  65    -9.1  139   0     983.5    NA       0.0000   9999     0     0     0    
2019/11/07  11:09:00  BASE  1.84044  84   2.32848  93   -3.4  64    -9.2  124   0     983.5    NA       0.0000   9999     0     0     0    
2019/11/07  11:10:00  BASE  1.617    77   2.32848  93   -3.3  63    -9.4  114   0     983.5    NA       0.0000   9999     0     0     0    
2019/11/07  11:11:00  BASE  1.01136  83   2.32848  93   -3.3  62    -9.6  113   0     983.5    NA       0.0000   9999     0     0     0    
2019/11/07  11:12:00  BASE  0.60564  78   2.32848  93   -3.2  61    -9.8  115   0     983.5    NA       0.0000   9999     0     0     0    
2019/11/07  11:13:00  BASE  0.82908  71   2.32848  93   -3.2  60    -9.8  116   0     983.5    NA       0.0000   9999     0     0     0    
2019/11/07  11:14:00  BASE  0.54684  95   2.32848  93   -3.1  61    -9.6  120   0     983.5    NA       0.0000   9999     0     0     0    
2019/11/07  11:15:00  BASE  0.0882   160  2.32848  93   -3.1  61    -9.5  126   0     983.5    NA       0.0000   9999     0     0     0    
2019/11/07  11:16:00  BASE  0        170  2.32848  93   -3.1  61    -9.5  132   0     983.5    NA       0.0000   9999     0     0     0    
2019/11/07  11:17:00  BASE  0        127  2.32848  93   -3.0  61    -9.5  176   0     983.5    NA       0.0000   9999     0     0     0    
2019/11/07  11:18:00  BASE  0.05292  129  2.1756   80   -3.0  61    -9.6  131   0     983.5    NA       0.0000   9999     0     0     0    
2019/11/07  11:19:00  BASE  0.17052  159  1.90512  79   -3.0  60    -9.7  128   0     983.5    NA       0.0000   9999     0     0     0    
2019/11/07  11:20:00  BASE  0.1176   176  1.32888  76   -3.1  59    -9.9  132   0     983.5    NA       0.0000   9999     0     0     0    
2019/11/07  11:21:00  BASE  0        214  1.32888  76   -3.2  60    -9.9  126   0     983.5    NA       0.0000   9999     0     0     0    
2019/11/07  11:22:00  BASE  0        288  1.1466   85   -3.2  61    -9.7  128   0     983.6    NA       0.0000   9999     0     0     0    
2019/11/07  11:23:00  BASE  0        315  0.87612  77   -3.4  63    -9.3  129   0     983.7    NA       0.0000   9999     0     0     0    
2019/11/07  11:24:00  BASE  0        333  0.75852  183  -3.5  66    -8.9  132   0     983.6    NA       0.0000   9999     0     0     0    
2019/11/07  11:25:00  BASE  0        125  0.75852  183  -3.5  69    -8.4  136   0     983.6    NA       0.0000   9999     0     0     0    
2019/11/07  11:26:00  BASE  0        149  0.75852  183  -3.6  71    -8.0  144   0     983.5    NA       0.0000   9999     0     0     0    
2019/11/07  11:27:00  BASE  0        177  0.75852  183  -3.6  72    -7.9  142   0     983.5    NA       0.0000   9999     0     0     0    
2019/11/07  11:28:00  BASE  0        198  0.75852  183  -3.6  72    -7.9  142   0     983.6    NA       0.0000   9999     0     0     0    
2019/11/07  11:29:00  BASE  0.05292  209  0.60564  216  -3.6  72    -7.9  138   0     983.7    NA       0.0000   9999     0     0     0    
2019/11/07  11:30:00  BASE  0.05292  214  0.60564  216  -3.7  72    -8.0  141   0     983.7    NA       0.0000   9999     0     0     0    
2019/11/07  11:31:00  BASE  0.0588   234  0.69384  247  -3.7  72    -8.1  144   0     983.7    NA       0.0000   9999     0     0     0    
2019/11/07  11:32:00  BASE  0.11172  247  0.69384  247  -3.8  72    -8.1  150   0     983.7    NA       0.0000   9999     0     0     0    
2019/11/07  11:33:00  BASE  0.05292  254  0.69384  247  -4.0  74    -8.0  160   0     983.7    NA       0.0000   9999     0     0     0    
2019/11/07  11:34:00  BASE  0        269  0.69384  247  -4.1  75    -7.8  200   0     983.7    NA       0.0000   9999     0     0     0    
2019/11/07  11:35:00  BASE  0        4    0.69384  247  -4.1  77    -7.6  227   0     983.7    NA       0.0000   9999     0     0     0    
2019/11/07  11:36:00  BASE  0        48   0.69384  247  -4.1  79    -7.3  232   0     983.7    NA       0.0000   9999     0     0     0    
2019/11/07  11:37:00  BASE  0        27   0.69384  247  -4.1  80    -7.0  185   0     983.7    NA       0.0000   9999     0     0     0    
2019/11/07  11:38:00  BASE  0        320  0.69384  247  -4.1  82    -6.8  173   0     983.7    NA       0.0000   9999     0     0     0    
2019/11/07  11:39:00  BASE  0        267  0.69384  247  -4.1  83    -6.6  169   0     983.7    NA       0.0000   9999     0     0     0    
2019/11/07  11:40:00  BASE  0        156  0.69384  247  -4.1  83    -6.5  193   0     983.7    NA       0.0000   9999     0     0     0    
2019/11/07  11:41:00  BASE  0        138  0.66444  249  -4.0  83    -6.4  163   0     983.7    NA       0.0000   9999     0     0     0    
2019/11/07  11:42:00  BASE  0        122  0        M    -4.0  83    -6.5  162   0     983.8    NA       0.0000   9999     0     0     0    
2019/11/07  11:43:00  BASE  0        102  0        M    -3.9  83    -6.4  159   0     983.7    NA       0.0000   9999     0     0     0    
2019/11/07  11:44:00  BASE  0.1764   78   0.87612  75   -3.9  82    -6.5  160   0     983.7    NA       0.0000   9999     0     0     0    
2019/11/07  11:45:00  BASE  0.29988  72   0.87612  75   -3.8  81    -6.5  168   0     983.7    NA       0.0000   9999     0     0     0    
2019/11/07  11:46:00  BASE  0.12348  83   0.87612  75   -3.7  80    -6.6  175   0     983.7    NA       0.0000   9999     0     0     0    
2019/11/07  11:47:00  BASE  0        86   0.87612  75   -3.7  80    -6.7  177   0     983.7    NA       0.0000   9999     0     0     0    
2019/11/07  11:48:00  BASE  0.0294   105  0.87612  75   -3.6  79    -6.8  191   0     983.7    NA       0.0000   9999     0     0     0    
2019/11/07  11:49:00  BASE  0.22344  131  0.87612  75   -3.5  77    -6.9  188   0     983.7    NA       0.0000   9999     0     0     0    
2019/11/07  11:50:00  BASE  0.3822   137  0.87612  75   -3.4  76    -7.0  179   0     983.8    NA       0.0000   9999     0     0     0    
2019/11/07  11:51:00  BASE  0.18816  135  0.87612  75   -3.3  75    -7.1  189   0     983.8    NA       0.0000   9999     0     0     0    
2019/11/07  11:52:00  BASE  0.0294   99   0.87612  75   -3.3  74    -7.3  201   0     983.9    NA       0.0000   9999     0     0     0    
2019/11/07  11:53:00  BASE  0.25872  45   0.87612  75   -3.3  74    -7.3  180   0     983.9    NA       0.0000   9999     0     0     0    
2019/11/07  11:54:00  BASE  0.50568  30   1.029    48   -3.4  74    -7.4  186   0     983.9    NA       0.0000   9999     0     0     0    
2019/11/07  11:55:00  BASE  0.71148  40   1.21128  42   -3.4  74    -7.4  184   0     983.9    NA       0.0000   9999     0     0     0    
2019/11/07  11:56:00  BASE  0.5586   42   1.21128  42   -3.5  75    -7.3  178   0     983.9    NA       0.0000   9999     0     0     0    
2019/11/07  11:57:00  BASE  0.12936  35   1.21128  42   -3.6  76    -7.2  173   0     983.9    NA       0.0000   9999     0     0     0    
2019/11/07  11:58:00  BASE  0.3528   39   1.21128  42   -3.6  77    -7.0  169   0     983.9    NA       0.0000   9999     0     0     0    
2019/11/07  11:59:00  BASE  0.79968  43   1.21128  42   -3.6  78    -6.9  173   0     983.9    NA       0.0000   9999     0     0     0    
2019/11/07  12:00:00  BASE  0.81144  30   1.21128  42   -3.7  78    -6.9  203   0     983.9    NA       0.0000   9999     0     0     0    
2019/11/07  12:01:00  BASE  0.71148  24   1.21128  42   -3.7  79    -6.8  195   0     983.9    NA       0.0000   9999     0     0     0    
2019/11/07  12:02:00  BASE  0.34104  25   1.21128  42   -3.7  79    -6.7  205   0     983.9    NA       0.0000   9999     0     0     0    
2019/11/07  12:03:00  BASE  0.07644  329  1.21128  42   -3.6  79    -6.7  186   0     983.9    NA       0.0000   9999     0     0     0    
2019/11/07  12:04:00  BASE  0.15876  247  1.21128  42   -3.7  80    -6.7  178   0     983.9    NA       0.0000   9999     0     0     0    
2019/11/07  12:05:00  BASE  0.2058   234  1.029    42   -3.8  80    -6.8  191   0     983.9    NA       0.0000   9999     0     0     0    
2019/11/07  12:06:00  BASE  0.6468   48   1.21128  57   -3.8  80    -6.7  187   0     983.9    NA       0.0000   9999     0     0     0    
2019/11/07  12:07:00  BASE  0.93492  53   1.21128  57   -3.9  81    -6.7  199   0     983.9    NA       0.0000   9999     0     0     0    
2019/11/07  12:08:00  BASE  0.86436  61   1.21128  57   -3.9  81    -6.6  227   0     984.0    NA       0.0000   9999     0     0     0    
2019/11/07  12:09:00  BASE  0.8526   67   1.21128  57   -3.7  82    -6.4  228   0     984.0    NA       0.0000   9999     0     0     0    
2019/11/07  12:10:00  BASE  0.81732  61   1.21128  57   -3.5  81    -6.3  235   0     984.0    NA       0.0000   9999     0     0     0    
2019/11/07  12:11:00  BASE  0.82908  49   1.21128  57   -3.4  81    -6.3  251   0     984.0    NA       0.0000   9999     0     0     0    
2019/11/07  12:12:00  BASE  0.95256  43   1.21128  45   -3.4  80    -6.4  280   0     984.0    NA       0.0000   9999     0     0     0    
2019/11/07  12:13:00  BASE  0.97608  52   1.21128  59   -3.4  79    -6.6  237   0     984.0    NA       0.0000   9999     0     0     0    
2019/11/07  12:14:00  BASE  0.81144  60   1.21128  59   -3.4  78    -6.7  271   0     984.0    NA       0.0000   9999     0     0     0    
2019/11/07  12:15:00  BASE  0.81144  60   1.21128  59   -3.5  78    -6.8  312   0     984.0    NA       0.0000   9999     0     0     0    
2019/11/07  12:16:00  BASE  0.87612  64   1.21128  59   -3.5  78    -6.8  292   0     984.0    NA       0.0000   9999     0     0     0    
2019/11/07  12:17:00  BASE  0.62916  71   1.21128  59   -3.4  78    -6.6  324   0     984.0    NA       0.0000   9999     0     0     0    
2019/11/07  12:18:00  BASE  0.22932  79   1.21128  59   -3.3  79    -6.5  450   0     984.0    NA       0.0000   9999     0     0     0    
2019/11/07  12:19:00  BASE  0.02352  83   1.21128  59   -3.2  78    -6.4  403   0     984.0    NA       0.0000   9999     0     0     0    
2019/11/07  12:20:00  BASE  0        83   1.21128  59   -3.2  78    -6.5  414   0     984.0    NA       0.0000   9999     0     0     0    
2019/11/07  12:21:00  BASE  0.09996  76   1.21128  59   -3.2  77    -6.6  460   0     984.0    NA       0.0000   9999     0     0     0    
2019/11/07  12:22:00  BASE  0.38808  57   1.21128  59   -3.2  77    -6.7  400   0     984.0    NA       0.0000   9999     0     0     0    
2019/11/07  12:23:00  BASE  0.64092  46   1.0878   44   -3.3  76    -6.9  297   0     984.0    NA       0.0000   9999     0     0     0    
2019/11/07  12:24:00  BASE  0.69384  51   1.0878   44   -3.4  77    -6.9  219   0     984.1    NA       0.0000   9999     0     0     0    
2019/11/07  12:25:00  BASE  0.79968  64   1.29948  70   -3.4  78    -6.8  174   0     984.0    NA       0.0000   9999     0     0     0    
2019/11/07  12:26:00  BASE  0.80556  78   1.29948  70   -3.4  78    -6.7  181   0     984.1    NA       0.0000   9999     0     0     0    
2019/11/07  12:27:01  BASE  0.66444  85   1.29948  70   -3.4  78    -6.8  173   0     984.1    NA       0.0000   9999     0     0     0    
2019/11/07  12:28:01  BASE  0.63504  82   1.29948  70   -3.4  77    -6.8  182   0     984.1    NA       0.0000   9999     0     0     0    
2019/11/07  12:29:00  BASE  0.4998   66   1.29948  70   -3.3  76    -7.0  188   0     984.1    NA       0.0000   9999     0     0     0    
2019/11/07  12:30:00  BASE  0.735    65   1.29948  70   -3.2  74    -7.2  199   0     984.1    NA       0.0000   9999     0     0     0    
2019/11/07  12:31:00  BASE  0.98784  80   1.29948  70   -3.1  72    -7.4  215   0     984.1    NA       0.0000   9999     0     0     0    
2019/11/07  12:32:00  BASE  0.82908  89   1.29948  70   -2.9  70    -7.6  266   0     984.1    NA       0.0000   9999     0     0     0    
2019/11/07  12:33:00  BASE  0.78792  101  1.29948  70   -2.8  68    -7.9  350   0     984.1    NA       0.0000   9999     0     0     0    
2019/11/07  12:34:00  BASE  0.74088  122  1.29948  70   -2.7  66    -8.1  358   0     984.1    NA       0.0000   9999     0     0     0    
2019/11/07  12:35:00  BASE  0.56448  125  1.24068  95   -2.7  65    -8.3  335   0     984.1    NA       0.0000   9999     0     0     0    
2019/11/07  12:36:00  BASE  0.33516  118  1.24068  95   -2.6  65    -8.4  248   0     984.1    NA       0.0000   9999     0     0     0    
2019/11/07  12:37:00  BASE  0.3234   133  1.24068  95   -2.6  64    -8.4  218   0     984.1    NA       0.0000   9999     0     0     0    
2019/11/07  12:38:00  BASE  0.81144  145  1.48176  142  -2.6  64    -8.4  217   0     984.1    NA       0.0000   9999     0     0     0    
2019/11/07  12:39:00  BASE  1.2348   151  1.54056  149  -2.6  64    -8.4  256   0     984.1    NA       0.0000   9999     0     0     0    
2019/11/07  12:40:00  BASE  1.34652  153  1.54056  160  -2.7  64    -8.5  417   0     984.2    NA       0.0000   9999     0     0     0    
2019/11/07  12:41:00  BASE  1.42296  150  1.66404  138  -2.8  65    -8.5  490   0     984.2    NA       0.0000   9999     0     0     0    
2019/11/07  12:42:00  BASE  1.53468  140  1.81692  134  -2.8  65    -8.6  538   0     984.2    NA       0.0000   9999     0     0     0    
2019/11/07  12:43:00  BASE  1.60524  128  1.81692  134  -2.9  65    -8.5  498   0     984.3    NA       0.0000   9999     0     0     0    
2019/11/07  12:44:00  BASE  1.43472  113  1.81692  134  -2.9  66    -8.4  623   0     984.3    NA       0.0000   9999     0     0     0    
2019/11/07  12:45:00  BASE  1.2936   95   1.81692  134  -2.9  66    -8.3  569   0     984.3    NA       0.0000   9999     0     0     0    
2019/11/07  12:46:00  BASE  1.16424  91   1.81692  134  -2.8  66    -8.3  630   0     984.3    NA       0.0000   9999     0     0     0    
2019/11/07  12:47:00  BASE  1.0584   109  1.81692  134  -2.7  66    -8.2  626   0     984.3    NA       0.0000   9999     0     0     0    
2019/11/07  12:48:00  BASE  1.16424  121  1.81692  134  -2.6  66    -8.2  637   0     984.3    NA       0.0000   9999     0     0     0    
2019/11/07  12:49:00  BASE  1.34064  116  1.81692  134  -2.5  65    -8.2  664   0     984.3    NA       0.0000   9999     0     0     0    
2019/11/07  12:50:00  BASE  1.37004  113  1.81692  134  -2.3  64    -8.2  677   0     984.3    NA       0.0000   9999     0     0     0    
2019/11/07  12:51:00  BASE  1.15836  116  1.81692  134  -2.2  63    -8.3  645   0     984.3    NA       0.0000   9999     0     0     0    
2019/11/07  12:52:00  BASE  1.4406   115  2.24028  115  -2.2  62    -8.5  666   0     984.3    NA       0.0000   9999     0     0     0    
2019/11/07  12:53:00  BASE  2.15796  112  2.63424  119  -2.1  62    -8.5  658   0     984.4    NA       0.0000   9999     0     0     0    
2019/11/07  12:54:00  BASE  2.34612  112  2.63424  119  -2.1  62    -8.4  662   0     984.3    NA       0.0000   9999     0     0     0    
2019/11/07  12:55:00  BASE  2.21676  118  2.63424  128  -2.0  62    -8.3  640   0     984.3    NA       0.0000   9999     0     0     0    
2019/11/07  12:56:00  BASE  1.81692  125  2.63424  128  -2.0  63    -8.2  668   0     984.4    NA       0.0000   9999     0     0     0    
2019/11/07  12:57:00  BASE  1.42884  129  2.63424  128  -2.0  63    -8.1  669   0     984.5    NA       0.0000   9999     0     0     0    
2019/11/07  12:58:00  BASE  1.2348   127  2.63424  128  -2.0  63    -8.1  669   0     984.5    NA       0.0000   9999     0     0     0    
2019/11/07  12:59:00  BASE  1.4406   113  2.63424  128  -2.0  63    -8.1  670   0     984.5    NA       0.0000   9999     0     0     0    
2019/11/07  13:00:00  BASE  1.911    115  2.63424  128  -2.0  63    -8.1  669   0     984.5    NA       0.0000   9999     0     0     0    
2019/11/07  13:01:00  BASE  2.05212  126  2.63424  128  -1.9  63    -8.0  667   0     984.5    NA       0.0000   9999     0     0     0    
2019/11/07  13:02:00  BASE  2.21676  130  2.63424  128  -1.8  63    -7.9  667   0     984.5    NA       0.0000   9999     0     0     0    
2019/11/07  13:03:00  BASE  2.1756   130  2.63424  128  -1.8  63    -8.0  609   0     984.5    NA       0.0000   9999     0     0     0    
2019/11/07  13:04:00  BASE  1.98156  131  2.63424  128  -1.7  62    -8.0  505   0     984.5    NA       0.0000   9999     0     0     0    
2019/11/07  13:05:00  BASE  2.09328  118  3.48096  95   -1.7  62    -8.2  498   0     984.6    NA       0.0000   9999     0     0     0    
2019/11/07  13:06:00  BASE  2.63424  99   3.48096  95   -1.8  62    -8.2  526   0     984.6    NA       0.0000   9999     0     0     0    
2019/11/07  13:07:00  BASE  2.84004  96   3.48096  95   -1.8  62    -8.2  678   0     984.6    NA       0.0000   9999     0     0     0    
2019/11/07  13:08:00  BASE  2.72832  99   3.48096  95   -1.9  62    -8.3  657   0     984.6    NA       0.0000   9999     0     0     0    
2019/11/07  13:09:00  BASE  2.79888  103  3.48096  95   -1.9  62    -8.3  672   0     984.6    NA       0.0000   9999     0     0     0    
2019/11/07  13:10:00  BASE  2.78124  109  3.48096  95   -1.9  62    -8.3  669   0     984.6    NA       0.0000   9999     0     0     0    
2019/11/07  13:11:01  BASE  2.59308  113  3.48096  95   -1.8  61    -8.3  669   0     984.6    NA       0.0000   9999     0     0     0    
2019/11/07  13:12:01  BASE  2.45784  112  3.48096  95   -1.7  61    -8.3  671   0     984.6    NA       0.0000   9999     0     0     0    
2019/11/07  13:13:01  BASE  2.51664  108  3.48096  95   -1.6  60    -8.3  677   0     984.6    NA       0.0000   9999     0     0     0    
2019/11/07  13:14:01  BASE  2.58132  108  3.48096  95   -1.5  60    -8.3  664   0     984.6    NA       0.0000   9999     0     0     0    
2019/11/07  13:15:01  BASE  2.51664  112  3.44568  93   -1.4  60    -8.2  627   0     984.6    NA       0.0000   9999     0     0     0    
2019/11/07  13:16:01  BASE  2.39904  119  2.96352  118  -1.4  60    -8.2  561   0     984.6    NA       0.0000   9999     0     0     0    
2019/11/07  13:17:01  BASE  1.8522   143  2.96352  118  -1.4  60    -8.2  568   0     984.7    NA       0.0000   9999     0     0     0    
2019/11/07  13:18:01  BASE  1.1172   192  2.96352  118  -1.5  61    -8.1  528   0     984.7    NA       0.0000   9999     0     0     0    
2019/11/07  13:19:01  BASE  1.029    224  2.96352  118  -1.7  62    -8.0  541   0     984.7    NA       0.0000   9999     0     0     0    
2019/11/07  13:20:01  BASE  1.34064  235  2.81064  111  -1.9  64    -7.9  543   0     984.6    NA       0.0000   9999     0     0     0    
2019/11/07  13:21:01  BASE  1.49352  241  2.81064  111  -2.1  66    -7.6  577   0     984.7    NA       0.0000   9999     0     0     0    
2019/11/07  13:22:01  BASE  1.39356  254  2.81064  111  -2.3  68    -7.4  538   0     984.8    NA       0.0000   9999     0     0     0    
2019/11/07  13:23:01  BASE  1.38768  261  2.81064  111  -2.4  70    -7.1  580   0     984.8    NA       0.0000   9999     0     0     0    
2019/11/07  13:24:01  BASE  1.42296  258  2.63424  126  -2.4  71    -7.1  517   0     984.8    NA       0.0000   9999     0     0     0    
2019/11/07  13:25:01  BASE  1.39944  257  2.63424  126  -2.4  71    -7.0  532   0     984.8    NA       0.0000   9999     0     0     0    
2019/11/07  13:26:01  BASE  1.48176  255  2.0874   126  -2.4  71    -6.9  561   0     984.8    NA       0.0000   9999     0     0     0    
2019/11/07  13:27:01  BASE  1.58172  255  1.87572  250  -2.4  71    -6.9  616   0     984.8    NA       0.0000   9999     0     0     0    
2019/11/07  13:28:01  BASE  1.63464  255  1.87572  250  -2.4  72    -6.7  674   0     984.8    NA       0.0000   9999     0     0     0    
2019/11/07  13:29:01  BASE  1.5876   256  1.87572  250  -2.4  74    -6.4  673   0     984.8    NA       0.0000   9999     0     0     0    
2019/11/07  13:30:01  BASE  1.27008  264  1.87572  250  -2.4  76    -6.1  672   0     984.8    NA       0.0000   9999     0     0     0    
2019/11/07  13:31:01  BASE  0.8232   277  1.87572  250  -2.4  77    -5.9  671   0     984.8    NA       0.0000   9999     0     0     0    
2019/11/07  13:32:01  BASE  0.38808  283  1.87572  250  -2.4  78    -5.7  669   0     984.8    NA       0.0000   9999     0     0     0    
2019/11/07  13:33:01  BASE  0.11172  278  1.87572  250  -2.4  79    -5.6  668   0     984.8    NA       0.0000   9999     0     0     0    
2019/11/07  13:34:01  BASE  0.08232  281  1.87572  250  -2.3  79    -5.5  668   0     984.8    NA       0.0000   9999     0     0     0    
2019/11/07  13:35:01  BASE  0.43512  298  1.87572  250  -2.1  79    -5.3  668   0     984.8    NA       0.0000   9999     0     0     0    
2019/11/07  13:36:01  BASE  0.59388  313  1.87572  250  -1.9  79    -5.2  668   0     984.8    NA       0.0000   9999     0     0     0    
2019/11/07  13:37:01  BASE  0.21168  318  1.81692  251  -1.8  79    -5.0  668   0     984.8    NA       0.0000   9999     0     0     0    
2019/11/07  13:38:01  BASE  0        320  1.60524  254  -1.6  79    -4.8  668   0     984.8    NA       0.0000   9999     0     0     0    
2019/11/07  13:39:01  BASE  0        311  1.27008  266  -1.5  79    -4.7  670   0     984.8    NA       0.0000   9999     0     0     0    
2019/11/07  13:40:01  BASE  0        278  1.029    261  -1.5  78    -4.8  671   0     984.9    NA       0.0000   9999     0     0     0    
2019/11/07  13:41:01  BASE  0        241  0.9702   302  -1.6  77    -5.1  671   0     984.6    NA       0.0000   9999     0     0     0    
2019/11/07  13:42:00  BASE  0        225  0.9702   302  -1.6  77    -5.2  672   0     984.8    NA       0.0000   9999     0     0     0    
2019/11/07  13:43:01  BASE  0        224  0.9702   302  -1.7  76    -5.4  673   0     984.9    NA       0.0000   9999     0     0     0    
2019/11/07  13:44:00  BASE  0        219  0.9702   302  -1.8  75    -5.6  673   0     984.9    NA       0.0000   9999     0     0     0    
2019/11/07  13:45:00  BASE  0        202  0.84672  303  -1.7  74    -5.7  674   0     984.9    NA       0.0000   9999     0     0     0    
2019/11/07  13:46:01  BASE  0        164  0        M    -1.6  74    -5.7  674   0     985.0    NA       0.0000   9999     0     0     0    
2019/11/07  13:47:01  BASE  0        118  0        M    -1.6  73    -5.8  676   0     985.0    NA       0.0000   9999     0     0     0    
2019/11/07  13:48:01  BASE  0        71   0        M    -1.5  73    -5.8  676   0     985.1    NA       0.0000   9999     0     0     0    
2019/11/07  13:49:01  BASE  0.27048  46   1.57584  54   -1.4  72    -5.7  677   0     985.1    NA       0.0000   9999     0     0     0    
2019/11/07  13:50:00  BASE  0.94668  36   1.57584  54   -1.2  72    -5.7  678   0     985.1    NA       0.0000   9999     0     0     0    
2019/11/07  13:51:00  BASE  1.19364  25   1.57584  54   -1.2  72    -5.6  679   0     985.1    NA       0.0000   9999     0     0     0    
2019/11/07  13:52:00  BASE  0.9408   18   1.57584  54   -1.2  72    -5.5  679   0     985.1    NA       0.0000   9999     0     0     0    
2019/11/07  13:53:01  BASE  0.94668  5    1.57584  54   -1.2  73    -5.4  680   0     985.1    NA       0.0000   9999     0     0     0    
2019/11/07  13:54:01  BASE  0.77028  2    1.57584  54   -1.3  74    -5.3  682   0     985.1    NA       0.0000   9999     0     0     0    
2019/11/07  13:55:01  BASE  0.65856  4    1.57584  54   -1.5  76    -5.2  681   0     985.2    NA       0.0000   9999     0     0     0    
2019/11/07  13:56:01  BASE  0.87612  358  1.57584  54   -1.6  77    -5.1  683   0     985.2    NA       0.0000   9999     0     0     0    
2019/11/07  13:57:01  BASE  0.9996   351  1.57584  54   -1.7  78    -5.0  684   0     985.2    NA       0.0000   9999     0     0     0    
2019/11/07  13:58:01  BASE  1.03488  352  1.57584  54   -1.7  78    -5.0  684   0     985.2    NA       0.0000   9999     0     0     0    
2019/11/07  13:59:01  BASE  1.09956  357  1.51116  16   -1.8  79    -5.0  686   0     985.2    NA       0.0000   9999     0     0     0    
2019/11/07  14:00:01  BASE  1.18776  352  1.39356  1    -1.7  79    -4.9  686   0     985.2    NA       0.0000   9999     0     0     0    
2019/11/07  14:01:01  BASE  1.22892  350  1.42296  347  -1.7  79    -4.9  687   0     985.2    NA       0.0000   9999     0     0     0    
2019/11/07  14:02:01  BASE  1.43472  357  1.72284  262  -1.6  79    -4.9  688   0     985.2    NA       0.0000   9999     0     0     0    
2019/11/07  14:03:01  BASE  1.5288   354  1.72284  262  -1.6  78    -4.9  688   0     985.2    NA       0.0000   9999     0     0     0    
2019/11/07  14:04:01  BASE  1.4994   354  1.87572  348  -1.5  78    -4.9  690   0     985.3    NA       0.0000   9999     0     0     0    
2019/11/07  14:05:01  BASE  1.764    353  2.45196  354  -1.4  78    -4.9  691   0     985.3    NA       0.0000   9999     0     0     0    
2019/11/07  14:06:01  BASE  2.1462   349  2.45196  354  -1.4  78    -4.8  691   0     985.3    NA       0.0000   9999     0     0     0    
2019/11/07  14:07:01  BASE  2.18736  350  2.45196  354  -1.4  78    -4.8  691   0     985.3    NA       0.0000   9999     0     0     0    
2019/11/07  14:08:01  BASE  1.99332  349  2.45196  354  -1.5  78    -4.8  692   0     985.3    NA       0.0000   9999     0     0     0    
2019/11/07  14:09:01  BASE  1.8228   349  2.45196  354  -1.5  79    -4.7  693   0     985.3    NA       0.0000   9999     0     0     0    
2019/11/07  14:10:01  BASE  1.74636  346  2.45196  354  -1.6  79    -4.8  693   0     985.3    NA       0.0000   9999     0     0     0    
2019/11/07  14:11:01  BASE  1.7052   349  2.45196  354  -1.7  80    -4.8  694   0     985.3    NA       0.0000   9999     0     0     0    
2019/11/07  14:12:01  BASE  1.69344  353  2.45196  354  -1.8  80    -4.8  696   0     985.3    NA       0.0000   9999     0     0     0    
2019/11/07  14:13:01  BASE  1.57584  351  2.45196  354  -1.8  80    -4.8  697   0     985.4    NA       0.0000   9999     0     0     0    
2019/11/07  14:14:01  BASE  1.40532  347  2.45196  354  -1.8  80    -4.8  697   0     985.4    NA       0.0000   9999     0     0     0    
2019/11/07  14:15:01  BASE  1.31712  342  2.42256  353  -1.8  80    -4.8  699   0     985.4    NA       0.0000   9999     0     0     0    
2019/11/07  14:16:01  BASE  1.2642   343  2.21088  350  -1.7  80    -4.7  699   0     985.4    NA       0.0000   9999     0     0     0    
2019/11/07  14:17:01  BASE  1.21128  347  2.058    347  -1.7  80    -4.7  701   0     985.4    NA       0.0000   9999     0     0     0    
2019/11/07  14:18:01  BASE  1.21716  349  1.90512  347  -1.6  80    -4.7  701   0     985.4    NA       0.0000   9999     0     0     0    
2019/11/07  14:19:01  BASE  1.27008  348  1.90512  347  -1.6  79    -4.7  702   0     985.4    NA       0.0000   9999     0     0     0    
2019/11/07  14:20:01  BASE  1.31712  347  1.90512  347  -1.5  79    -4.8  704   0     985.4    NA       0.0000   9999     0     0     0    
2019/11/07  14:21:01  BASE  1.4406   352  1.90512  347  -1.5  78    -4.8  704   0     985.4    NA       0.0000   9999     0     0     0    
2019/11/07  14:22:01  BASE  1.58172  355  1.81692  354  -1.5  78    -4.9  705   0     985.4    NA       0.0000   9999     0     0     0    
2019/11/07  14:23:01  BASE  1.62288  358  1.87572  4    -1.5  77    -4.9  706   0     985.4    NA       0.0000   9999     0     0     0    
2019/11/07  14:24:01  BASE  1.65228  2    1.87572  4    -1.5  77    -5.0  708   0     985.4    NA       0.0000   9999     0     0     0    
2019/11/07  14:25:01  BASE  1.72284  2    1.87572  5    -1.4  77    -5.0  708   0     985.4    NA       0.0000   9999     0     0     0    
2019/11/07  14:26:01  BASE  1.72284  5    1.9992   6    -1.4  76    -5.0  708   0     985.4    NA       0.0000   9999     0     0     0    
2019/11/07  14:27:01  BASE  1.68168  4    1.9992   6    -1.4  77    -4.9  709   0     985.4    NA       0.0000   9999     0     0     0    
2019/11/07  14:28:01  BASE  1.58172  1    1.9992   6    -1.4  77    -4.9  711   0     985.4    NA       0.0000   9999     0     0     0    
2019/11/07  14:29:01  BASE  1.47588  11   1.9992   6    -1.4  77    -4.9  710   0     985.4    NA       0.0000   9999     0     0     0    
2019/11/07  14:30:01  BASE  1.31712  26   1.9992   6    -1.4  78    -4.8  712   0     985.4    NA       0.0000   9999     0     0     0    
2019/11/07  14:31:01  BASE  1.22892  29   1.9992   6    -1.4  78    -4.7  714   0     985.4    NA       0.0000   9999     0     0     0    
2019/11/07  14:32:01  BASE  1.27596  17   1.9992   6    -1.4  78    -4.7  715   0     985.4    NA       0.0000   9999     0     0     0    
2019/11/07  14:33:01  BASE  1.34064  5    1.9992   6    -1.4  78    -4.7  716   0     985.4    NA       0.0000   9999     0     0     0    
2019/11/07  14:34:01  BASE  1.53468  1    1.9992   6    -1.4  78    -4.7  717   0     985.4    NA       0.0000   9999     0     0     0    
2019/11/07  14:35:01  BASE  1.65816  5    1.9992   6    -1.4  78    -4.7  717   0     985.4    NA       0.0000   9999     0     0     0    
2019/11/07  14:36:01  BASE  1.65816  4    1.96392  15   -1.4  78    -4.8  718   0     985.4    NA       0.0000   9999     0     0     0    
2019/11/07  14:37:01  BASE  1.65816  2    1.9992   16   -1.4  78    -4.8  718   0     985.4    NA       0.0000   9999     0     0     0    
2019/11/07  14:38:01  BASE  1.60524  7    1.9992   16   -1.4  78    -4.7  719   0     985.4    NA       0.0000   9999     0     0     0    
2019/11/07  14:39:01  BASE  1.54644  7    1.9992   16   -1.4  78    -4.7  720   0     985.4    NA       0.0000   9999     0     0     0    
2019/11/07  14:40:01  BASE  1.56996  7    1.9992   16   -1.4  78    -4.7  721   0     985.5    NA       0.0000   9999     0     0     0    
2019/11/07  14:41:01  BASE  1.47588  8    1.9992   16   -1.4  78    -4.7  722   0     985.5    NA       0.0000   9999     0     0     0    
2019/11/07  14:42:01  BASE  1.323    10   1.9992   16   -1.4  78    -4.7  723   0     985.6    NA       0.0000   9999     0     0     0    
2019/11/07  14:43:01  BASE  1.28772  15   1.9992   16   -1.4  78    -4.7  723   0     985.6    NA       0.0000   9999     0     0     0    
2019/11/07  14:44:01  BASE  1.2936   14   1.9992   16   -1.4  78    -4.7  724   0     985.6    NA       0.0000   9999     0     0     0    
2019/11/07  14:45:01  BASE  1.39944  6    1.9992   16   -1.3  78    -4.6  726   0     985.6    NA       0.0000   9999     0     0     0    
2019/11/07  14:46:01  BASE  1.51116  8    1.9992   16   -1.3  78    -4.6  725   0     985.6    NA       0.0000   9999     0     0     0    
2019/11/07  14:47:01  BASE  1.41708  16   1.87572  350  -1.3  78    -4.7  727   0     985.6    NA       0.0000   9999     0     0     0    
2019/11/07  14:48:01  BASE  1.31124  21   1.84632  4    -1.3  77    -4.8  728   0     985.6    NA       0.0000   9999     0     0     0    
2019/11/07  14:49:01  BASE  1.25244  20   1.84632  4    -1.2  77    -4.8  728   0     985.6    NA       0.0000   9999     0     0     0    
2019/11/07  14:50:01  BASE  1.31124  10   1.81692  19   -1.2  76    -5.0  729   0     985.6    NA       0.0000   9999     0     0     0    
2019/11/07  14:51:01  BASE  1.31124  7    1.81692  19   -1.2  75    -5.1  730   0     985.6    NA       0.0000   9999     0     0     0    
2019/11/07  14:52:01  BASE  1.06428  7    1.81692  19   -1.1  74    -5.2  730   0     985.6    NA       0.0000   9999     0     0     0    
2019/11/07  14:53:01  BASE  0.94668  4    1.81692  19   -1.0  72    -5.4  731   0     985.6    NA       0.0000   9999     0     0     0    
2019/11/07  14:54:01  BASE  0.9996   2    1.81692  19   -0.9  71    -5.6  732   0     985.6    NA       0.0000   9999     0     0     0    
2019/11/07  14:55:01  BASE  0.97608  4    1.69344  10   -0.8  69    -5.8  734   0     985.6    NA       0.0000   9999     0     0     0    
2019/11/07  14:56:01  BASE  0.90552  3    1.60524  5    -0.6  67    -6.0  734   0     985.6    NA       0.0000   9999     0     0     0    
2019/11/07  14:57:01  BASE  0.71148  358  1.60524  5    -0.6  65    -6.3  734   0     985.6    NA       0.0000   9999     0     0     0    
2019/11/07  14:58:01  BASE  0.52332  352  1.60524  5    -0.4  64    -6.4  735   0     985.6    NA       0.0000   9999     0     0     0    
2019/11/07  14:59:01  BASE  0.65268  344  1.60524  5    -0.3  63    -6.5  736   0     985.6    NA       0.0000   9999     0     0     0    
2019/11/07  15:00:01  BASE  0.89376  332  1.42296  4    -0.3  62    -6.6  737   0     985.7    NA       0.0000   9999     0     0     0    
2019/11/07  15:01:01  BASE  0.90552  329  1.18188  9    -0.4  62    -6.8  737   0     985.7    NA       0.0000   9999     0     0     0    
2019/11/07  15:02:01  BASE  0.84084  338  1.18188  9    -0.3  61    -6.9  738   0     985.7    NA       0.0000   9999     0     0     0    
2019/11/07  15:03:01  BASE  0.9996   339  1.24068  331  -0.4  61    -7.0  738   0     985.7    NA       0.0000   9999     0     0     0    
2019/11/07  15:04:01  BASE  1.13484  338  1.35828  346  -0.4  61    -7.1  739   0     985.7    NA       0.0000   9999     0     0     0    
2019/11/07  15:05:01  BASE  1.1466   343  1.42296  348  -0.4  61    -7.0  740   0     985.7    NA       0.0000   9999     0     0     0    
2019/11/07  15:06:01  BASE  1.19364  350  1.48176  1    -0.4  62    -6.9  740   0     985.7    NA       0.0000   9999     0     0     0    
2019/11/07  15:07:01  BASE  1.21716  353  1.57584  352  -0.5  62    -6.8  740   0     985.6    NA       0.0000   9999     0     0     0    
2019/11/07  15:08:01  BASE  1.31712  349  1.57584  341  -0.6  63    -6.8  741   0     985.7    NA       0.0000   9999     0     0     0    
2019/11/07  15:09:01  BASE  1.39356  345  1.69344  360  -0.8  64    -6.8  741   0     985.6    NA       0.0000   9999     0     0     0    
2019/11/07  15:10:01  BASE  1.31712  341  1.69344  360  -0.8  65    -6.6  741   0     985.7    NA       0.0000   9999     0     0     0    
2019/11/07  15:11:01  BASE  1.24068  340  1.69344  360  -0.8  66    -6.5  742   0     985.7    NA       0.0000   9999     0     0     0    
2019/11/07  15:12:01  BASE  1.1466   341  1.69344  360  -0.9  66    -6.4  742   0     985.7    NA       0.0000   9999     0     0     0    
2019/11/07  15:13:01  BASE  1.09956  348  1.69344  360  -0.9  67    -6.2  743   0     985.7    NA       0.0000   9999     0     0     0    
2019/11/07  15:14:01  BASE  1.00548  351  1.69344  360  -0.9  68    -6.1  743   0     985.7    NA       0.0000   9999     0     0     0    
2019/11/07  15:15:01  BASE  0.45864  349  1.69344  360  -0.9  69    -5.9  743   0     985.7    NA       0.0000   9999     0     0     0    
2019/11/07  15:16:01  BASE  0.2646   351  1.69344  360  -1.0  70    -5.8  744   0     985.7    NA       0.0000   9999     0     0     0    
2019/11/07  15:17:01  BASE  0.34692  335  1.69344  360  -1.0  71    -5.6  745   0     985.7    NA       0.0000   9999     0     0     0    
2019/11/07  15:18:01  BASE  0.53508  302  1.69344  360  -1.0  71    -5.6  745   0     985.7    NA       0.0000   9999     0     0     0    
2019/11/07  15:19:01  BASE  1.01724  289  1.63464  344  -0.9  71    -5.4  745   0     985.7    NA       0.0000   9999     0     0     0    
2019/11/07  15:20:01  BASE  0.96432  291  1.63464  344  -0.9  71    -5.4  746   0     985.7    NA       0.0000   9999     0     0     0    
2019/11/07  15:21:01  BASE  0.94668  293  1.57584  360  -0.8  71    -5.3  747   0     985.7    NA       0.0000   9999     0     0     0    
2019/11/07  15:22:01  BASE  1.16424  296  1.48176  289  -0.6  71    -5.3  746   0     985.7    NA       0.0000   9999     0     0     0    
2019/11/07  15:23:01  BASE  1.176    298  1.48176  289  -0.5  70    -5.3  748   0     985.8    NA       0.0000   9999     0     0     0    
2019/11/07  15:24:01  BASE  1.2642   303  1.69344  303  -0.4  69    -5.5  747   0     985.8    NA       0.0000   9999     0     0     0    
2019/11/07  15:25:01  BASE  1.37592  313  1.69344  303  -0.4  68    -5.6  747   0     985.8    NA       0.0000   9999     0     0     0    
2019/11/07  15:26:01  BASE  1.39356  321  1.69344  303  -0.4  67    -5.8  748   0     985.8    NA       0.0000   9999     0     0     0    
2019/11/07  15:27:01  BASE  1.3524   319  1.69344  303  -0.4  66    -5.9  748   0     985.8    NA       0.0000   9999     0     0     0    
2019/11/07  15:28:01  BASE  1.4406   319  1.87572  318  -0.4  66    -6.0  749   0     985.8    NA       0.0000   9999     0     0     0    
2019/11/07  15:29:01  BASE  1.5582   319  1.87572  318  -0.4  66    -6.0  749   0     985.8    NA       0.0000   9999     0     0     0    
2019/11/07  15:30:01  BASE  1.37592  322  1.87572  318  -0.4  66    -6.0  749   0     985.8    NA       0.0000   9999     0     0     0    
2019/11/07  15:31:01  BASE  1.24656  328  1.87572  318  -0.4  66    -5.9  750   0     985.8    NA       0.0000   9999     0     0     0    
2019/11/07  15:32:01  BASE  1.35828  328  1.87572  318  -0.5  67    -5.9  748   0     985.8    NA       0.0000   9999     0     0     0    
2019/11/07  15:33:01  BASE  1.42884  327  1.87572  318  -0.4  67    -5.8  750   0     985.8    NA       0.0000   9999     0     0     0    
2019/11/07  15:34:01  BASE  1.51116  326  1.87572  318  -0.4  67    -5.8  750   0     985.8    NA       0.0000   9999     0     0     0    
2019/11/07  15:35:01  BASE  1.71108  321  1.9992   318  -0.4  67    -5.8  750   0     985.8    NA       0.0000   9999     0     0     0    
2019/11/07  15:36:01  BASE  1.86396  319  2.0874   316  -0.4  66    -5.9  750   0     985.8    NA       0.0000   9999     0     0     0    
2019/11/07  15:37:01  BASE  1.86396  317  2.1462   312  -0.4  66    -6.0  751   0     985.8    NA       0.0000   9999     0     0     0    
2019/11/07  15:38:01  BASE  1.8816   317  2.1462   312  -0.5  65    -6.2  750   0     985.8    NA       0.0000   9999     0     0     0    
2019/11/07  15:39:01  BASE  1.9404   319  2.1462   312  -0.5  65    -6.3  751   0     985.8    NA       0.0000   9999     0     0     0    
2019/11/07  15:40:01  BASE  2.00508  323  2.24028  332  -0.5  65    -6.4  751   0     985.8    NA       0.0000   9999     0     0     0    
2019/11/07  15:41:01  BASE  1.99332  327  2.24028  332  -0.6  65    -6.3  751   0     985.8    NA       0.0000   9999     0     0     0    
2019/11/07  15:42:01  BASE  1.89336  327  2.24028  332  -0.6  66    -6.2  751   0     985.8    NA       0.0000   9999     0     0     0    
2019/11/07  15:43:01  BASE  1.90512  332  2.24028  337  -0.6  66    -6.1  751   0     985.8    NA       0.0000   9999     0     0     0    
2019/11/07  15:44:01  BASE  1.84632  340  2.24028  337  -0.6  67    -5.9  751   0     985.9    NA       0.0000   9999     0     0     0    
2019/11/07  15:45:01  BASE  1.69932  344  2.24028  337  -0.6  69    -5.6  752   0     985.9    NA       0.0000   9999     0     0     0    
2019/11/07  15:46:01  BASE  1.71108  341  2.24028  337  -0.6  70    -5.3  752   0     985.9    NA       0.0000   9999     0     0     0    
2019/11/07  15:47:01  BASE  1.82868  343  2.24028  348  -0.6  71    -5.1  748   0     985.9    NA       0.0000   9999     0     0     0    
2019/11/07  15:48:01  BASE  2.11092  344  2.45196  341  -0.6  72    -5.0  560   0     986.0    NA       0.0000   9999     0     0     0    
2019/11/07  15:49:01  BASE  2.15208  342  2.45196  341  -0.7  73    -4.9  568   0     986.0    NA       0.0000   9999     0     0     0    
2019/11/07  15:50:01  BASE  1.95216  339  2.45196  341  -0.7  73    -4.9  751   0     986.0    NA       0.0000   9999     0     0     0    
2019/11/07  15:51:01  BASE  1.78752  334  2.45196  341  -0.7  73    -4.8  752   0     986.0    NA       0.0000   9999     0     0     0    
2019/11/07  15:52:01  BASE  1.66404  325  2.45196  341  -0.5  74    -4.6  752   0     986.0    NA       0.0000   9999     0     0     0    
2019/11/07  15:53:01  BASE  1.78752  321  2.45196  341  -0.4  74    -4.5  752   0     986.0    NA       0.0000   9999     0     0     0    
2019/11/07  15:54:01  BASE  1.92276  315  2.45196  341  -0.3  74    -4.3  753   0     986.0    NA       0.0000   9999     0     0     0    
2019/11/07  15:55:01  BASE  2.04624  310  2.45196  341  -0.3  75    -4.2  752   0     985.9    NA       0.0000   9999     0     0     0    
2019/11/07  15:56:01  BASE  2.19324  311  2.54016  306  -0.3  75    -4.1  752   0     986.0    NA       0.0000   9999     0     0     0    
2019/11/07  15:57:01  BASE  2.21088  313  2.54016  306  -0.3  75    -4.1  752   0     986.0    NA       0.0000   9999     0     0     0    
2019/11/07  15:58:01  BASE  2.22852  312  2.63424  314  -0.3  76    -4.1  752   0     986.0    NA       0.0000   9999     0     0     0    
2019/11/07  15:59:01  BASE  2.3226   311  2.63424  314  -0.3  76    -4.1  752   0     986.0    NA       0.0000   9999     0     0     0    
2019/11/07  16:00:01  BASE  2.26968  313  2.63424  316  -0.3  76    -4.1  752   0     986.0    NA       0.0000   9999     0     0     0    
2019/11/07  16:01:01  BASE  2.09328  312  2.63424  316  -0.3  75    -4.1  752   0     986.0    NA       0.0000   9999     0     0     0    
2019/11/07  16:02:01  BASE  2.10504  309  2.63424  316  -0.4  75    -4.2  752   0     986.0    NA       0.0000   9999     0     0     0    
2019/11/07  16:03:01  BASE  2.22852  307  2.63424  316  -0.4  75    -4.2  752   0     986.1    NA       0.0000   9999     0     0     0    
2019/11/07  16:04:01  BASE  2.2344   310  2.63424  312  -0.3  75    -4.2  752   0     986.2    NA       0.0000   9999     0     0     0    
2019/11/07  16:05:01  BASE  2.35788  311  2.69304  314  -0.3  75    -4.2  751   0     986.2    NA       0.0000   9999     0     0     0    
2019/11/07  16:06:01  BASE  2.47548  313  2.87532  309  -0.3  75    -4.3  752   0     986.2    NA       0.0000   9999     0     0     0    
2019/11/07  16:07:01  BASE  2.62248  313  2.96352  311  -0.4  74    -4.4  752   0     986.2    NA       0.0000   9999     0     0     0    
2019/11/07  16:08:01  BASE  2.75184  311  2.96352  311  -0.5  74    -4.5  752   0     986.2    NA       0.0000   9999     0     0     0    
2019/11/07  16:09:01  BASE  2.69892  311  2.96352  311  -0.5  74    -4.6  752   0     986.2    NA       0.0000   9999     0     0     0    
2019/11/07  16:10:01  BASE  2.61072  308  2.96352  311  -0.6  74    -4.6  751   0     986.2    NA       0.0000   9999     0     0     0    
2019/11/07  16:11:01  BASE  2.54604  307  2.96352  311  -0.6  74    -4.7  751   0     986.2    NA       0.0000   9999     0     0     0    
2019/11/07  16:12:01  BASE  2.72244  310  3.02232  308  -0.6  74    -4.7  751   0     986.3    NA       0.0000   9999     0     0     0    
2019/11/07  16:13:01  BASE  2.82828  314  3.02232  308  -0.6  74    -4.7  752   0     986.3    NA       0.0000   9999     0     0     0    
2019/11/07  16:14:01  BASE  2.76948  318  3.02232  308  -0.6  73    -4.7  751   0     986.3    NA       0.0000   9999     0     0     0    
2019/11/07  16:15:01  BASE  2.7636   321  3.02232  308  -0.5  73    -4.7  751   0     986.3    NA       0.0000   9999     0     0     0    
2019/11/07  16:16:01  BASE  2.66364  323  3.02232  308  -0.5  73    -4.7  750   0     986.3    NA       0.0000   9999     0     0     0    
2019/11/07  16:17:01  BASE  2.5578   322  3.02232  308  -0.5  73    -4.7  752   0     986.3    NA       0.0000   9999     0     0     0    
2019/11/07  16:18:01  BASE  2.5284   322  3.02232  308  -0.6  73    -4.8  749   0     986.3    NA       0.0000   9999     0     0     0    
2019/11/07  16:19:01  BASE  2.3226   325  3.02232  308  -0.6  73    -4.8  750   0     986.3    NA       0.0000   9999     0     0     0    
2019/11/07  16:20:01  BASE  2.25792  330  3.02232  308  -0.6  74    -4.7  750   0     986.3    NA       0.0000   9999     0     0     0    
2019/11/07  16:21:01  BASE  2.27556  333  3.02232  308  -0.5  74    -4.6  750   0     986.3    NA       0.0000   9999     0     0     0    
2019/11/07  16:22:01  BASE  2.058    336  2.93412  316  -0.5  75    -4.4  749   0     986.4    NA       0.0000   9999     0     0     0    
2019/11/07  16:23:01  BASE  1.83456  341  2.87532  322  -0.4  75    -4.2  750   0     986.4    NA       0.0000   9999     0     0     0    
2019/11/07  16:24:01  BASE  1.76988  345  2.87532  322  -0.4  76    -4.1  749   0     986.4    NA       0.0000   9999     0     0     0    
2019/11/07  16:25:01  BASE  1.88748  357  2.78124  324  -0.4  76    -4.1  750   0     986.4    NA       0.0000   9999     0     0     0    
2019/11/07  16:26:01  BASE  2.07564  5    2.69304  319  -0.5  76    -4.1  749   0     986.4    NA       0.0000   9999     0     0     0    
2019/11/07  16:27:01  BASE  1.96392  6    2.59896  323  -0.5  77    -4.1  748   0     986.4    NA       0.0000   9999     0     0     0    
2019/11/07  16:28:01  BASE  1.8228   11   2.56956  335  -0.6  77    -4.2  748   0     986.5    NA       0.0000   9999     0     0     0    
2019/11/07  16:29:01  BASE  1.84632  17   2.56956  335  -0.6  77    -4.2  749   0     986.5    NA       0.0000   9999     0     0     0    
2019/11/07  16:30:01  BASE  1.84044  18   2.32848  339  -0.6  77    -4.2  749   0     986.5    NA       0.0000   9999     0     0     0    
2019/11/07  16:31:01  BASE  1.89336  20   2.24028  360  -0.6  77    -4.1  748   0     986.5    NA       0.0000   9999     0     0     0    
2019/11/07  16:32:01  BASE  1.92276  25   2.24028  360  -0.6  77    -4.1  748   0     986.5    NA       0.0000   9999     0     0     0    
2019/11/07  16:33:01  BASE  2.04624  26   2.38728  29   -0.6  77    -4.1  746   0     986.5    NA       0.0000   9999     0     0     0    
2019/11/07  16:34:01  BASE  2.18736  26   2.45196  22   -0.5  77    -4.0  746   0     986.5    NA       0.0000   9999     0     0     0    
2019/11/07  16:35:01  BASE  2.19324  26   2.45196  22   -0.4  77    -4.0  746   0     986.5    NA       0.0000   9999     0     0     0    
2019/11/07  16:36:01  BASE  2.25792  26   2.69304  29   -0.3  77    -3.9  746   0     986.5    NA       0.0000   9999     0     0     0    
2019/11/07  16:37:01  BASE  2.36376  27   2.69304  29   -0.1  76    -3.8  746   0     986.3    NA       0.0000   9999     0     0     0    
2019/11/07  16:38:01  BASE  2.35788  24   2.69304  29   -0.1  76    -3.8  745   0     986.5    NA       0.0000   9999     0     0     0    
2019/11/07  16:39:01  BASE  2.352    21   2.69304  29   -0.1  76    -3.9  745   0     986.5    NA       0.0000   9999     0     0     0    
2019/11/07  16:40:01  BASE  2.42256  21   2.69304  22   -0.0  75    -3.9  744   0     986.5    NA       0.0000   9999     0     0     0    
2019/11/07  16:41:01  BASE  2.46372  21   2.78124  18   -0.0  75    -3.9  744   0     986.5    NA       0.0000   9999     0     0     0    
2019/11/07  16:42:01  BASE  2.46372  20   2.78124  18   -0.0  76    -3.8  744   0     986.5    NA       0.0000   9999     0     0     0    
2019/11/07  16:43:01  BASE  2.35788  19   2.78124  18   -0.0  76    -3.8  743   0     986.5    NA       0.0000   9999     0     0     0    
2019/11/07  16:44:01  BASE  2.19912  22   2.78124  18   0.0   76    -3.7  743   0     986.6    NA       0.0000   9999     0     0     0    
2019/11/07  16:45:01  BASE  2.09916  22   2.78124  18   -0.0  76    -3.8  743   0     986.6    NA       0.0000   9999     0     0     0    
2019/11/07  16:46:01  BASE  2.13444  18   2.78124  18   0.0   75    -3.8  743   0     986.6    NA       0.0000   9999     0     0     0    
2019/11/07  16:47:01  BASE  2.1168   15   2.78124  18   -0.0  75    -3.9  742   0     986.6    NA       0.0000   9999     0     0     0    
2019/11/07  16:48:01  BASE  2.00508  14   2.78124  18   0.0   75    -3.9  741   0     986.6    NA       0.0000   9999     0     0     0    
2019/11/07  16:49:01  BASE  2.04624  16   2.78124  18   0.1   75    -3.9  741   0     986.6    NA       0.0000   9999     0     0     0    
2019/11/07  16:50:00  BASE  2.11092  17   2.78124  18   0.1   75    -3.9  741   0     986.6    NA       0.0000   9999     0     0     0    
2019/11/07  16:51:01  BASE  2.19912  17   2.72244  21   0.1   75    -3.9  740   0     986.6    NA       0.0000   9999     0     0     0    
2019/11/07  16:52:01  BASE  2.33436  16   2.63424  17   0.1   74    -3.9  740   0     986.6    NA       0.0000   9999     0     0     0    
2019/11/07  16:53:01  BASE  2.26968  15   2.48136  16   0.1   74    -4.0  739   0     986.6    NA       0.0000   9999     0     0     0    
2019/11/07  16:54:01  BASE  2.16384  12   2.48136  16   0.2   74    -4.0  738   0     986.6    NA       0.0000   9999     0     0     0    
2019/11/07  16:55:01  BASE  2.13444  7    2.48136  16   0.2   73    -4.0  738   0     986.6    NA       0.0000   9999     0     0     0    
2019/11/07  16:56:01  BASE  2.13444  5    2.48136  16   0.1   73    -4.2  737   0     986.6    NA       0.0000   9999     0     0     0    
2019/11/07  16:57:01  BASE  2.13444  4    2.48136  16   0.1   73    -4.2  738   0     986.6    NA       0.0000   9999     0     0     0    
2019/11/07  16:58:01  BASE  2.205    2    2.63424  360  0.1   73    -4.2  736   0     986.6    NA       0.0000   9999     0     0     0    
2019/11/07  16:59:01  BASE  2.2344   357  2.63424  360  0.1   72    -4.3  736   0     986.6    NA       0.0000   9999     0     0     0    
2019/11/07  17:00:00  BASE  2.04624  355  2.63424  360  0.0   72    -4.4  736   0     986.7    NA       0.0000   9999     0     0     0    
2019/11/07  17:01:01  BASE  2.09916  356  2.63424  360  0.0   72    -4.4  735   0     986.6    NA       0.0000   9999     0     0     0    
2019/11/07  17:02:01  BASE  2.37552  353  2.63424  352  0.0   72    -4.5  734   0     986.7    NA       0.0000   9999     0     0     0    
2019/11/07  17:03:00  BASE  2.44608  350  2.63424  352  0.0   71    -4.6  733   0     986.7    NA       0.0000   9999     0     0     0    
2019/11/07  17:04:01  BASE  2.3814   347  2.63424  352  0.0   70    -4.7  732   0     986.7    NA       0.0000   9999     0     0     0    
2019/11/07  17:05:01  BASE  2.28144  346  2.63424  352  0.0   70    -4.8  732   0     986.7    NA       0.0000   9999     0     0     0    
2019/11/07  17:06:01  BASE  2.18148  345  2.63424  352  0.0   69    -4.9  732   0     986.7    NA       0.0000   9999     0     0     0    
2019/11/07  17:07:01  BASE  2.33436  342  2.69304  338  0.0   69    -5.0  731   0     986.7    NA       0.0000   9999     0     0     0    
2019/11/07  17:08:01  BASE  2.4696   339  2.69304  338  0.0   68    -5.2  731   0     986.7    NA       0.0000   9999     0     0     0    
2019/11/07  17:09:01  BASE  2.53428  342  2.93412  341  0.0   68    -5.2  729   0     986.1    NA       0.0000   9999     0     0     0    
2019/11/07  17:10:01  BASE  2.65188  344  2.93412  341  0.1   68    -5.2  729   0     986.7    NA       0.0000   9999     0     0     0    
2019/11/07  17:11:01  BASE  2.54016  344  2.93412  341  0.1   68    -5.1  728   0     986.7    NA       0.0000   9999     0     0     0    
2019/11/07  17:12:01  BASE  2.50488  345  2.93412  341  0.2   68    -5.0  727   0     986.7    NA       0.0000   9999     0     0     0    
2019/11/07  17:13:01  BASE  2.65188  344  2.96352  333  0.3   68    -4.9  726   0     986.8    NA       0.0000   9999     0     0     0    
2019/11/07  17:14:01  BASE  2.71656  345  3.02232  349  0.4   68    -4.8  726   0     986.8    NA       0.0000   9999     0     0     0    
2019/11/07  17:15:01  BASE  2.9694   345  3.41628  340  0.4   68    -4.8  725   0     986.8    NA       0.0000   9999     0     0     0    
2019/11/07  17:16:01  BASE  3.18108  343  3.41628  340  0.4   68    -4.9  725   0     986.8    NA       0.0000   9999     0     0     0    
2019/11/07  17:17:01  BASE  3.15756  346  3.62796  352  0.4   68    -4.9  725   0     986.8    NA       0.0000   9999     0     0     0    
2019/11/07  17:18:01  BASE  3.234    346  3.62796  352  0.4   68    -4.9  723   0     986.8    NA       0.0000   9999     0     0     0    
2019/11/07  17:19:01  BASE  3.44568  343  3.86904  343  0.4   68    -4.9  723   0     986.8    NA       0.0000   9999     0     0     0    
2019/11/07  17:20:01  BASE  3.56328  344  3.86904  343  0.4   68    -4.8  721   0     986.8    NA       0.0000   9999     0     0     0    
2019/11/07  17:21:01  BASE  3.59856  344  3.86904  343  0.4   69    -4.6  721   0     986.8    NA       0.0000   9999     0     0     0    
2019/11/07  17:22:01  BASE  3.63384  344  3.86904  343  0.4   70    -4.5  720   0     986.8    NA       0.0000   9999     0     0     0    
2019/11/07  17:23:01  BASE  3.62796  346  3.86904  343  0.4   70    -4.4  719   0     986.8    NA       0.0000   9999     0     0     0    
2019/11/07  17:24:01  BASE  3.49272  347  3.86904  343  0.4   71    -4.2  719   0     986.8    NA       0.0000   9999     0     0     0    
2019/11/07  17:25:01  BASE  3.33396  345  3.86904  343  0.3   72    -4.1  717   0     986.8    NA       0.0000   9999     0     0     0    
2019/11/07  17:26:01  BASE  3.27516  345  3.86904  343  0.3   73    -4.0  717   0     986.8    NA       0.0000   9999     0     0     0    
2019/11/07  17:27:01  BASE  3.34572  343  3.86904  343  0.3   74    -3.8  716   0     986.9    NA       0.0000   9999     0     0     0    
2019/11/07  17:28:01  BASE  3.47508  337  3.86904  343  0.3   75    -3.6  715   0     987.0    NA       0.0000   9999     0     0     0    
2019/11/07  17:29:01  BASE  3.49272  338  3.90432  335  0.2   76    -3.5  714   0     987.0    NA       0.0000   9999     0     0     0    
2019/11/07  17:30:01  BASE  3.40452  343  3.90432  335  0.2   77    -3.4  713   0     987.0    NA       0.0000   9999     0     0     0    
2019/11/07  17:31:01  BASE  3.39276  343  3.99252  340  0.2   78    -3.2  713   0     987.0    NA       0.0000   9999     0     0     0    
2019/11/07  17:32:01  BASE  3.72792  338  4.263    334  0.1   79    -3.1  711   0     987.0    NA       0.0000   9999     0     0     0    
2019/11/07  17:33:00  BASE  3.98076  336  4.263    334  0.1   80    -3.0  710   0     987.0    NA       0.0000   9999     0     0     0    
2019/11/07  17:34:01  BASE  4.01016  333  4.29828  332  0.1   80    -2.9  709   0     987.0    NA       0.0000   9999     0     0     0    
2019/11/07  17:35:01  BASE  3.9984   333  4.29828  332  0.1   81    -2.9  708   0     987.0    NA       0.0000   9999     0     0     0    
2019/11/07  17:36:01  BASE  3.86904  335  4.29828  332  0.1   81    -2.8  707   0     987.0    NA       0.0000   9999     0     0     0    
2019/11/07  17:37:00  BASE  3.77496  335  4.29828  332  0.1   81    -2.7  706   0     987.0    NA       0.0000   9999     0     0     0    
2019/11/07  17:38:01  BASE  3.7632   336  4.29828  332  0.1   82    -2.7  706   0     987.0    NA       0.0000   9999     0     0     0    
2019/11/07  17:39:00  BASE  3.65736  337  4.29828  332  0.1   82    -2.7  705   0     987.1    NA       0.0000   9999     0     0     0    
2019/11/07  17:40:01  BASE  3.36924  333  4.29828  332  0.1   82    -2.6  704   0     987.1    NA       0.0000   9999     0     0     0    
2019/11/07  17:41:00  BASE  3.22812  331  4.29828  332  0.1   82    -2.6  703   0     987.1    NA       0.0000   9999     0     0     0    
2019/11/07  17:42:00  BASE  3.11052  332  4.29828  332  -0.0  82    -2.7  702   0     987.1    NA       0.0000   9999     0     0     0    
2019/11/07  17:43:00  BASE  2.98116  328  4.29828  332  0.0   83    -2.6  701   0     987.1    NA       0.0000   9999     0     0     0    
2019/11/07  17:44:01  BASE  2.87532  327  4.2042   337  0.1   83    -2.4  700   0     987.1    NA       0.0000   9999     0     0     0    
2019/11/07  17:45:00  BASE  2.90472  322  4.08072  336  0.1   84    -2.3  699   0     987.1    NA       0.0000   9999     0     0     0    
2019/11/07  17:46:01  BASE  2.94     320  4.08072  336  0.1   84    -2.3  698   0     987.2    NA       0.0000   9999     0     0     0    
2019/11/07  17:47:00  BASE  2.79888  320  4.02192  339  0.2   84    -2.1  697   0     987.2    NA       0.0000   9999     0     0     0    
2019/11/07  17:48:01  BASE  2.94     319  3.96312  340  0.1   85    -2.1  696   0     987.2    NA       0.0000   9999     0     0     0    
2019/11/07  17:49:00  BASE  2.89884  324  3.62796  337  0.1   85    -2.1  695   0     987.2    NA       0.0000   9999     0     0     0    
2019/11/07  17:50:01  BASE  2.75772  331  3.62796  337  0.0   85    -2.1  694   0     987.2    NA       0.0000   9999     0     0     0    
2019/11/07  17:51:00  BASE  2.90472  331  3.35748  322  -0.0  86    -2.1  694   0     987.2    NA       0.0000   9999     0     0     0    
2019/11/07  17:52:01  BASE  3.00468  331  3.35748  335  -0.0  86    -2.1  693   0     987.2    NA       0.0000   9999     0     0     0    
2019/11/07  17:53:00  BASE  2.82828  339  3.35748  335  -0.0  87    -2.0  691   0     987.2    NA       0.0000   9999     0     0     0    
2019/11/07  17:54:00  BASE  2.96352  345  3.62796  350  0.0   87    -1.9  690   0     987.2    NA       0.0000   9999     0     0     0    
2019/11/07  17:55:00  BASE  3.41628  347  3.78084  344  0.1   87    -1.9  689   0     987.2    NA       0.0000   9999     0     0     0    
2019/11/07  17:56:00  BASE  3.60444  346  3.83964  351  0.1   86    -1.9  688   0     987.2    NA       0.0000   9999     0     0     0    
2019/11/07  17:57:00  BASE  3.63384  345  3.83964  351  0.1   86    -2.0  687   0     987.2    NA       0.0000   9999     0     0     0    
2019/11/07  17:58:00  BASE  3.60444  345  3.83964  345  0.1   86    -2.0  686   0     987.1    NA       0.0000   9999     0     0     0    
2019/11/07  17:59:00  BASE  3.33984  344  3.83964  345  0.1   85    -2.1  685   0     987.2    NA       0.0000   9999     0     0     0    
2019/11/07  18:00:00  BASE  3.22224  345  3.83964  345  0.0   85    -2.2  684   0     987.2    NA       0.0000   9999     0     0     0    
2019/11/07  18:01:00  BASE  3.45156  347  3.83964  348  0.1   85    -2.1  682   0     987.2    NA       0.0000   9999     0     0     0    
2019/11/07  18:02:00  BASE  3.38688  346  3.83964  348  0.0   85    -2.1  681   0     987.3    NA       0.0000   9999     0     0     0    
2019/11/07  18:03:00  BASE  3.25752  346  3.83964  348  0.0   86    -2.1  680   0     987.3    NA       0.0000   9999     0     0     0    
2019/11/07  18:04:01  BASE  3.37512  347  3.83964  348  0.0   86    -2.1  680   0     987.3    NA       0.0000   9999     0     0     0    
2019/11/07  18:05:00  BASE  3.40452  347  3.83964  348  -0.0  86    -2.1  678   0     987.3    NA       0.0000   9999     0     0     0    
2019/11/07  18:06:00  BASE  3.23988  347  3.83964  348  -0.0  86    -2.0  677   0     987.3    NA       0.0000   9999     0     0     0    
2019/11/07  18:07:00  BASE  3.13992  347  3.83964  348  -0.1  87    -2.0  676   0     987.3    NA       0.0000   9999     0     0     0    
2019/11/07  18:08:01  BASE  3.09876  349  3.83964  348  -0.1  87    -2.0  675   0     987.3    NA       0.0000   9999     0     0     0    
2019/11/07  18:09:00  BASE  3.15168  349  3.83964  348  -0.1  87    -2.0  673   0     987.3    NA       0.0000   9999     0     0     0    
2019/11/07  18:10:00  BASE  3.39276  347  3.83964  345  -0.1  87    -2.0  672   0     987.3    NA       0.0000   9999     0     0     0    
2019/11/07  18:11:00  BASE  3.53976  349  3.83964  345  -0.1  87    -2.0  671   0     987.3    NA       0.0000   9999     0     0     0    
2019/11/07  18:12:01  BASE  3.5868   352  3.83964  345  -0.2  87    -2.0  670   0     987.3    NA       0.0000   9999     0     0     0    
2019/11/07  18:13:00  BASE  3.56328  351  3.83964  345  -0.2  88    -2.0  668   0     987.3    NA       0.0000   9999     0     0     0    
2019/11/07  18:14:01  BASE  3.4398   351  3.83964  345  -0.2  88    -2.0  667   0     987.3    NA       0.0000   9999     0     0     0    
2019/11/07  18:15:00  BASE  3.29868  350  3.83964  345  -0.2  88    -2.0  666   0     987.3    NA       0.0000   9999     0     0     0    
2019/11/07  18:16:01  BASE  3.12228  349  3.83964  345  -0.2  87    -2.0  665   0     987.3    NA       0.0000   9999     0     0     0    
2019/11/07  18:17:00  BASE  2.80476  347  3.83964  345  -0.2  87    -2.0  663   0     987.3    NA       0.0000   9999     0     0     0    
2019/11/07  18:18:01  BASE  2.7048   345  3.83964  345  -0.1  87    -2.0  662   0     987.3    NA       0.0000   9999     0     0     0    
2019/11/07  18:19:00  BASE  2.76948  347  3.83964  345  -0.1  87    -2.0  661   0     987.3    NA       0.0000   9999     0     0     0    
2019/11/07  18:20:00  BASE  2.79888  347  3.75144  353  -0.1  87    -2.0  660   0     987.3    NA       0.0000   9999     0     0     0    
2019/11/07  18:21:00  BASE  2.9106   347  3.72204  353  -0.0  87    -1.9  658   0     987.3    NA       0.0000   9999     0     0     0    
2019/11/07  18:22:00  BASE  2.95764  347  3.62796  352  -0.0  87    -2.0  658   0     987.3    NA       0.0000   9999     0     0     0    
2019/11/07  18:23:00  BASE  2.793    348  3.56916  345  -0.1  87    -2.0  656   0     987.4    NA       0.0000   9999     0     0     0    
2019/11/07  18:24:00  BASE  2.78124  346  3.56916  345  -0.1  86    -2.1  655   0     987.4    NA       0.0000   9999     0     0     0    
2019/11/07  18:25:00  BASE  2.74596  344  3.41628  346  -0.0  86    -2.0  652   0     987.4    NA       0.0000   9999     0     0     0    
2019/11/07  18:26:00  BASE  2.72832  344  3.2046   354  -0.0  86    -2.1  653   0     987.4    NA       0.0000   9999     0     0     0    
2019/11/07  18:27:00  BASE  2.78712  345  3.1752   339  -0.0  86    -2.0  651   0     987.4    NA       0.0000   9999     0     0     0    
2019/11/07  18:28:00  BASE  2.62248  345  3.1752   339  0.0   86    -2.0  650   0     987.0    NA       0.0000   9999     0     0     0    
2019/11/07  18:29:00  BASE  2.499    341  3.1752   339  0.1   86    -2.0  648   0     987.4    NA       0.0000   9999     0     0     0    
2019/11/07  18:30:00  BASE  2.499    336  3.1752   339  0.1   86    -2.0  648   0     987.4    NA       0.0000   9999     0     0     0    
2019/11/07  18:31:00  BASE  2.38728  329  3.1752   339  0.1   86    -2.0  646   0     987.4    NA       0.0000   9999     0     0     0    
2019/11/07  18:32:00  BASE  2.30496  321  3.1752   339  0.1   86    -1.9  644   0     987.4    NA       0.0000   9999     0     0     0    
2019/11/07  18:33:00  BASE  2.4402   316  3.1752   339  0.2   86    -1.9  643   0     987.4    NA       0.0000   9999     0     0     0    
2019/11/07  18:34:01  BASE  2.75184  315  3.35748  314  0.2   85    -2.0  642   0     987.4    NA       0.0000   9999     0     0     0    
2019/11/07  18:35:00  BASE  2.81652  316  3.35748  314  0.2   85    -2.1  640   0     987.4    NA       0.0000   9999     0     0     0    
2019/11/07  18:36:00  BASE  2.71068  316  3.35748  314  0.1   84    -2.2  639   0     987.4    NA       0.0000   9999     0     0     0    
2019/11/07  18:37:00  BASE  2.9106   316  3.35748  314  0.1   84    -2.3  637   0     987.4    NA       0.0000   9999     0     0     0    
2019/11/07  18:38:00  BASE  3.0282   317  3.35748  314  0.0   84    -2.3  636   0     987.4    NA       0.0000   9999     0     0     0    
2019/11/07  18:39:00  BASE  3.11052  318  3.35748  314  -0.0  84    -2.3  634   0     987.5    NA       0.0000   9999     0     0     0    
2019/11/07  18:40:00  BASE  3.16344  317  3.35748  314  -0.1  85    -2.3  633   0     987.6    NA       0.0000   9999     0     0     0    
2019/11/07  18:41:00  BASE  3.16344  317  3.35748  317  -0.1  85    -2.3  632   0     987.6    NA       0.0000   9999     0     0     0    
2019/11/07  18:42:00  BASE  3.18108  318  3.35748  317  -0.1  85    -2.3  630   0     987.6    NA       0.0000   9999     0     0     0    
2019/11/07  18:43:00  BASE  3.15756  319  3.48096  320  -0.1  85    -2.4  629   0     987.6    NA       0.0000   9999     0     0     0    
2019/11/07  18:44:00  BASE  3.16932  320  3.48096  320  -0.2  85    -2.4  627   0     987.6    NA       0.0000   9999     0     0     0    
2019/11/07  18:45:00  BASE  3.13992  323  3.48096  320  -0.2  85    -2.4  625   0     987.6    NA       0.0000   9999     0     0     0    
2019/11/07  18:46:00  BASE  3.11052  324  3.48096  320  -0.2  85    -2.4  624   0     987.6    NA       0.0000   9999     0     0     0    
2019/11/07  18:47:00  BASE  2.98704  325  3.48096  320  -0.1  85    -2.4  623   0     987.6    NA       0.0000   9999     0     0     0    
2019/11/07  18:48:01  BASE  2.87532  325  3.48096  320  -0.1  85    -2.3  621   0     987.6    NA       0.0000   9999     0     0     0    
2019/11/07  18:49:00  BASE  2.92824  322  3.48096  320  -0.1  85    -2.3  620   0     987.6    NA       0.0000   9999     0     0     0    
2019/11/07  18:50:00  BASE  2.98704  320  3.48096  320  -0.0  85    -2.3  619   0     987.6    NA       0.0000   9999     0     0     0    
2019/11/07  18:51:00  BASE  2.84592  319  3.48096  320  -0.0  84    -2.3  617   0     987.6    NA       0.0000   9999     0     0     0    
2019/11/07  18:52:00  BASE  2.83416  319  3.48096  320  0.0   84    -2.3  616   0     987.7    NA       0.0000   9999     0     0     0    
2019/11/07  18:53:00  BASE  2.85768  318  3.41628  316  0.0   84    -2.3  614   0     987.7    NA       0.0000   9999     0     0     0    
2019/11/07  18:54:00  BASE  2.75184  318  3.29868  322  0.1   84    -2.3  613   0     987.7    NA       0.0000   9999     0     0     0    
2019/11/07  18:55:00  BASE  2.78124  318  3.2046   327  0.1   84    -2.3  612   0     987.7    NA       0.0000   9999     0     0     0    
2019/11/07  18:56:00  BASE  2.74008  316  3.2046   327  0.1   84    -2.2  609   0     987.4    NA       0.0000   9999     0     0     0    
2019/11/07  18:57:00  BASE  2.63424  317  3.1458   323  0.2   84    -2.1  608   0     987.4    NA       0.0000   9999     0     0     0    
2019/11/07  18:58:01  BASE  2.63424  316  3.1458   323  0.2   85    -2.1  607   0     987.7    NA       0.0000   9999     0     0     0    
2019/11/07  18:59:00  BASE  2.5872   309  3.1164   323  0.2   85    -2.0  605   0     987.7    NA       0.0000   9999     0     0     0    
2019/11/07  19:00:00  BASE  2.50488  307  3.087    318  0.2   85    -2.0  604   0     987.8    NA       0.0000   9999     0     0     0    
2019/11/07  19:01:00  BASE  2.56368  312  3.087    318  0.3   85    -1.9  601   0     987.8    NA       0.0000   9999     0     0     0    
2019/11/07  19:02:00  BASE  2.63424  315  2.96352  312  0.2   85    -1.9  600   0     987.8    NA       0.0000   9999     0     0     0    
2019/11/07  19:03:00  BASE  2.63424  318  2.96352  324  0.2   86    -1.9  599   0     987.8    NA       0.0000   9999     0     0     0    
2019/11/07  19:04:00  BASE  2.74008  322  3.02232  326  0.2   86    -1.9  598   0     987.8    NA       0.0000   9999     0     0     0    
2019/11/07  19:05:00  BASE  2.78124  328  3.02232  326  0.1   86    -1.9  596   0     987.7    NA       0.0000   9999     0     0     0    
2019/11/07  19:06:00  BASE  2.62248  337  3.02232  326  0.1   86    -2.0  594   0     987.8    NA       0.0000   9999     0     0     0    
2019/11/07  19:07:00  BASE  2.53428  343  3.02232  326  0.1   86    -1.9  592   0     987.8    NA       0.0000   9999     0     0     0    
2019/11/07  19:08:00  BASE  2.499    342  3.02232  326  0.0   87    -1.9  591   0     987.8    NA       0.0000   9999     0     0     0    
2019/11/07  19:09:00  BASE  2.61072  342  3.1458   344  0.0   87    -1.9  589   0     987.8    NA       0.0000   9999     0     0     0    
2019/11/07  19:10:00  BASE  2.8224   345  3.1458   344  0.1   87    -1.8  587   0     987.8    NA       0.0000   9999     0     0     0    
2019/11/07  19:11:00  BASE  3.03408  346  3.35748  350  0.1   88    -1.7  586   0     987.8    NA       0.0000   9999     0     0     0    
2019/11/07  19:12:00  BASE  3.18108  349  3.35748  350  0.0   88    -1.8  584   0     987.8    NA       0.0000   9999     0     0     0    
2019/11/07  19:13:00  BASE  3.2046   349  3.35748  347  0.0   88    -1.8  583   0     987.8    NA       0.0000   9999     0     0     0    
2019/11/07  19:14:00  BASE  3.30456  348  3.56916  348  -0.0  88    -1.8  581   0     987.8    NA       0.0000   9999     0     0     0    
2019/11/07  19:15:00  BASE  3.37512  347  3.56916  348  -0.0  88    -1.9  579   0     987.8    NA       0.0000   9999     0     0     0    
2019/11/07  19:16:00  BASE  3.3516   348  3.56916  348  -0.1  88    -1.9  577   0     987.9    NA       0.0000   9999     0     0     0    
2019/11/07  19:17:00  BASE  3.31044  348  3.56916  348  -0.0  88    -1.8  576   0     987.9    NA       0.0000   9999     0     0     0    
2019/11/07  19:18:00  BASE  3.2634   347  3.56916  348  -0.0  88    -1.8  574   0     987.9    NA       0.0000   9999     0     0     0    
2019/11/07  19:19:00  BASE  3.24576  346  3.56916  348  -0.0  87    -1.8  573   0     987.9    NA       0.0000   9999     0     0     0    
2019/11/07  19:20:00  BASE  3.1752   346  3.56916  348  0.0   87    -1.8  571   0     987.9    NA       0.0000   9999     0     0     0    
2019/11/07  19:21:00  BASE  3.16344  348  3.56916  348  -0.0  87    -1.8  569   0     987.9    NA       0.0000   9999     0     0     0    
2019/11/07  19:22:01  BASE  3.22224  346  3.56916  348  -0.0  88    -1.8  567   0     987.9    NA       0.0000   9999     0     0     0    
2019/11/07  19:23:00  BASE  3.03996  344  3.56916  348  -0.0  88    -1.8  565   0     987.9    NA       0.0000   9999     0     0     0    
2019/11/07  19:24:00  BASE  2.78124  340  3.53976  351  -0.0  88    -1.7  564   0     987.9    NA       0.0000   9999     0     0     0    
2019/11/07  19:25:00  BASE  2.65776  338  3.53976  351  -0.0  89    -1.6  562   0     987.9    NA       0.0000   9999     0     0     0    
2019/11/07  19:26:00  BASE  2.57544  335  3.53976  351  0.0   89    -1.5  560   0     987.9    NA       0.0000   9999     0     0     0    
2019/11/07  19:27:00  BASE  2.50488  329  3.48096  346  0.1   90    -1.4  559   0     987.9    NA       0.0000   9999     0     0     0    
2019/11/07  19:28:01  BASE  2.44608  326  3.48096  346  0.1   90    -1.3  557   0     988.0    NA       0.0000   9999     0     0     0    
2019/11/07  19:29:00  BASE  2.55192  324  3.44568  349  0.1   90    -1.2  555   0     988.0    NA       0.0000   9999     0     0     0    
2019/11/07  19:30:01  BASE  2.63424  321  3.44568  349  0.1   91    -1.2  554   0     988.0    NA       0.0000   9999     0     0     0    
2019/11/07  19:31:00  BASE  2.72244  322  3.32808  350  0.1   91    -1.2  552   0     988.0    NA       0.0000   9999     0     0     0    
2019/11/07  19:32:01  BASE  2.86944  321  3.1752   348  0.1   91    -1.2  550   0     988.0    NA       0.0000   9999     0     0     0    
2019/11/07  19:33:01  BASE  2.89884  317  3.1164   335  0.1   92    -1.1  549   0     988.0    NA       0.0000   9999     0     0     0    
2019/11/07  19:34:01  BASE  2.92236  317  3.087    325  0.1   92    -1.0  547   0     988.1    NA       0.0000   9999     0     0     0    
2019/11/07  19:35:01  BASE  2.88708  318  3.087    325  0.1   92    -1.0  545   0     988.2    NA       0.0000   9999     0     0     0    
2019/11/07  19:36:01  BASE  2.86944  319  3.087    325  0.0   92    -1.1  543   0     988.2    NA       0.0000   9999     0     0     0    
2019/11/07  19:37:00  BASE  2.8518   320  3.087    325  0.0   92    -1.1  541   0     988.2    NA       0.0000   9999     0     0     0    
2019/11/07  19:38:01  BASE  2.75184  321  3.087    325  -0.0  93    -1.1  540   0     988.2    NA       0.0000   9999     0     0     0    
2019/11/07  19:39:00  BASE  2.68128  322  3.087    325  -0.1  93    -1.1  538   0     988.2    NA       0.0000   9999     0     0     0    
2019/11/07  19:40:01  BASE  2.5872   321  3.087    325  -0.1  93    -1.1  536   0     988.2    NA       0.0000   9999     0     0     0    
2019/11/07  19:41:00  BASE  2.51076  317  3.087    325  -0.1  94    -1.0  534   0     988.2    NA       0.0000   9999     0     0     0    
2019/11/07  19:42:00  BASE  2.47548  313  3.02232  319  -0.1  94    -1.0  532   0     988.2    NA       0.0000   9999     0     0     0    
2019/11/07  19:43:00  BASE  2.39904  311  3.02232  319  -0.1  94    -0.9  530   0     988.2    NA       0.0000   9999     0     0     0    
2019/11/07  19:44:01  BASE  2.39904  308  2.93412  308  -0.1  94    -0.9  528   0     988.2    NA       0.0000   9999     0     0     0    
2019/11/07  19:45:01  BASE  2.3226   301  2.93412  308  0.0   95    -0.7  526   0     988.2    NA       0.0000   9999     0     0     0    
2019/11/07  19:46:00  BASE  2.16972  299  2.93412  308  0.1   95    -0.6  525   0     988.2    NA       0.0000   9999     0     0     0    
2019/11/07  19:47:00  BASE  2.1756   302  2.93412  308  0.1   95    -0.6  523   0     988.2    NA       0.0000   9999     0     0     0    
2019/11/07  19:48:01  BASE  2.25204  304  2.93412  308  0.2   95    -0.5  521   0     988.2    NA       0.0000   9999     0     0     0    
2019/11/07  19:49:00  BASE  2.24616  306  2.93412  308  0.2   95    -0.5  519   0     988.3    NA       0.0000   9999     0     0     0    
2019/11/07  19:50:01  BASE  2.1462   305  2.93412  308  0.1   95    -0.6  517   0     988.3    NA       0.0000   9999     0     0     0    
2019/11/07  19:51:00  BASE  2.02272  304  2.90472  305  0.1   94    -0.7  515   0     988.3    NA       0.0000   9999     0     0     0    
2019/11/07  19:52:00  BASE  2.06388  305  2.69304  301  0.1   94    -0.7  514   0     988.3    NA       0.0000   9999     0     0     0    
2019/11/07  19:53:00  BASE  2.205    305  2.69304  301  0.2   94    -0.8  511   0     988.3    NA       0.0000   9999     0     0     0    
2019/11/07  19:54:01  BASE  2.24616  304  2.54016  302  0.2   93    -0.7  510   0     988.3    NA       0.0000   9999     0     0     0    
2019/11/07  19:55:00  BASE  2.25204  301  2.54016  302  0.3   93    -0.8  508   0     988.3    NA       0.0000   9999     0     0     0    
2019/11/07  19:56:00  BASE  2.18736  299  2.54016  302  0.3   92    -0.8  506   0     988.4    NA       0.0000   9999     0     0     0    
2019/11/07  19:57:00  BASE  2.04624  301  2.54016  302  0.3   92    -0.8  504   0     988.4    NA       0.0000   9999     0     0     0    
2019/11/07  19:58:00  BASE  2.09328  303  2.59896  303  0.2   91    -1.0  502   0     988.4    NA       0.0000   9999     0     0     0    
2019/11/07  19:59:00  BASE  2.22264  305  2.59896  303  0.2   91    -1.0  501   0     988.4    NA       0.0000   9999     0     0     0    
2019/11/07  20:00:00  BASE  2.10504  307  2.59896  303  0.2   91    -1.0  499   0     988.4    NA       0.0000   9999     0     0     0    
2019/11/07  20:01:00  BASE  2.0286   309  2.59896  303  0.2   91    -1.1  497   0     988.4    NA       0.0000   9999     0     0     0    
2019/11/07  20:02:00  BASE  2.0874   309  2.59896  303  0.1   91    -1.1  495   0     988.5    NA       0.0000   9999     0     0     0    
2019/11/07  20:03:00  BASE  2.14032  312  2.59896  303  0.1   91    -1.1  493   0     988.5    NA       0.0000   9999     0     0     0    
2019/11/07  20:04:00  BASE  2.1462   314  2.59896  303  0.1   91    -1.1  491   0     988.5    NA       0.0000   9999     0     0     0    
2019/11/07  20:05:00  BASE  2.05212  314  2.59896  303  0.1   91    -1.2  489   0     988.5    NA       0.0000   9999     0     0     0    
2019/11/07  20:06:00  BASE  2.02272  312  2.59896  303  0.0   91    -1.2  487   0     988.5    NA       0.0000   9999     0     0     0    
2019/11/07  20:07:00  BASE  2.058    312  2.59896  303  0.1   92    -1.1  485   0     988.5    NA       0.0000   9999     0     0     0    
2019/11/07  20:08:00  BASE  2.00508  314  2.48136  312  0.1   92    -1.1  483   0     988.5    NA       0.0000   9999     0     0     0    
2019/11/07  20:09:00  BASE  1.98156  315  2.48136  312  0.1   91    -1.1  481   0     988.5    NA       0.0000   9999     0     0     0    
2019/11/07  20:10:00  BASE  2.09916  315  2.48136  312  0.1   91    -1.2  479   0     988.5    NA       0.0000   9999     0     0     0    
2019/11/07  20:11:00  BASE  2.0874   314  2.48136  312  0.0   91    -1.2  477   0     988.5    NA       0.0000   9999     0     0     0    
2019/11/07  20:12:01  BASE  1.9698   314  2.48136  312  -0.0  91    -1.3  475   0     988.5    NA       0.0000   9999     0     0     0    
2019/11/07  20:13:00  BASE  1.91688  310  2.48136  312  -0.1  91    -1.4  473   0     988.5    NA       0.0000   9999     0     0     0    
2019/11/07  20:14:00  BASE  1.89924  303  2.32848  313  -0.2  91    -1.4  471   0     988.5    NA       0.0000   9999     0     0     0    
2019/11/07  20:15:00  BASE  1.9404   300  2.32848  313  -0.1  91    -1.4  470   0     988.5    NA       0.0000   9999     0     0     0    
2019/11/07  20:16:00  BASE  1.93452  303  2.32848  313  -0.0  92    -1.2  467   0     988.5    NA       0.0000   9999     0     0     0    
2019/11/07  20:17:00  BASE  1.98156  305  2.29908  313  0.0   92    -1.1  465   0     988.5    NA       0.0000   9999     0     0     0    
2019/11/07  20:18:01  BASE  2.06388  301  2.29908  313  0.1   92    -1.0  458   0     988.5    NA       0.0000   9999     0     0     0    
2019/11/07  20:19:00  BASE  2.058    298  2.29908  313  0.2   92    -1.0  449   0     988.6    NA       0.0000   9999     0     0     0    
2019/11/07  20:20:00  BASE  2.09328  303  2.29908  313  0.2   91    -1.0  455   0     988.7    NA       0.0000   9999     0     0     0    
2019/11/07  20:21:00  BASE  2.03448  306  2.26968  303  0.2   91    -1.1  457   0     988.7    NA       0.0000   9999     0     0     0    
2019/11/07  20:22:01  BASE  2.09328  303  2.54016  294  0.1   91    -1.2  455   0     988.7    NA       0.0000   9999     0     0     0    
2019/11/07  20:23:00  BASE  2.13444  302  2.54016  294  0.1   91    -1.3  453   0     988.7    NA       0.0000   9999     0     0     0    
2019/11/07  20:24:00  BASE  2.1462   301  2.63424  308  0.1   91    -1.3  451   0     988.7    NA       0.0000   9999     0     0     0    
2019/11/07  20:25:00  BASE  2.205    298  2.63424  308  0.1   91    -1.2  449   0     988.7    NA       0.0000   9999     0     0     0    
2019/11/07  20:26:00  BASE  1.8816   306  2.63424  308  0.0   91    -1.2  448   0     988.7    NA       0.0000   9999     0     0     0    
2019/11/07  20:27:00  BASE  1.74048  312  2.63424  308  0.1   92    -1.1  384   0     988.7    NA       0.0000   9999     0     0     0    
2019/11/07  20:28:00  BASE  1.82868  311  2.63424  308  0.1   92    -1.1  343   0     988.7    NA       0.0000   9999     0     0     0    
2019/11/07  20:29:00  BASE  1.69344  308  2.63424  308  0.2   92    -1.0  328   0     988.7    NA       0.0000   9999     0     0     0    
2019/11/07  20:30:00  BASE  1.6464   304  2.63424  308  0.2   92    -0.9  344   0     988.7    NA       0.0000   9999     0     0     0    
2019/11/07  20:31:00  BASE  1.90512  294  2.63424  308  0.2   92    -0.9  426   0     988.7    NA       0.0000   9999     0     0     0    
2019/11/07  20:32:00  BASE  1.86396  287  2.63424  308  0.2   92    -1.0  438   0     988.7    NA       0.0000   9999     0     0     0    
2019/11/07  20:33:00  BASE  1.51116  283  2.63424  308  0.1   92    -1.1  435   0     988.7    NA       0.0000   9999     0     0     0    
2019/11/07  20:34:00  BASE  1.24656  265  2.48136  292  -0.0  92    -1.2  427   0     988.7    NA       0.0000   9999     0     0     0    
2019/11/07  20:35:00  BASE  1.37592  253  2.35788  281  -0.2  92    -1.3  426   0     988.7    NA       0.0000   9999     890   0     0    
2019/11/07  20:36:00  BASE  1.72872  253  2.35788  281  -0.3  92    -1.4  435   0     988.7    NA       0.0000   9999     0     0     0    
2019/11/07  20:37:00  BASE  1.9404   248  2.35788  281  -0.4  93    -1.4  432   0     988.7    NA       0.0000   9999     0     0     0    
2019/11/07  20:38:00  BASE  2.04036  238  2.35788  281  -0.6  93    -1.5  430   0     988.7    NA       0.0000   9999     0     0     0    
2019/11/07  20:39:00  BASE  2.08152  235  2.35788  236  -0.7  94    -1.6  428   0     988.8    NA       0.0000   9999     0     0     0    
2019/11/07  20:40:00  BASE  2.058    234  2.35788  236  -0.8  94    -1.6  424   0     988.8    NA       0.0000   9999     0     0     0    
2019/11/07  20:41:00  BASE  1.79928  229  2.35788  236  -0.9  95    -1.6  421   0     988.8    NA       0.0000   9999     0     0     0    
2019/11/07  20:42:00  BASE  1.56408  225  2.35788  236  -0.9  95    -1.7  419   0     988.9    NA       0.0000   9999     0     0     0    
2019/11/07  20:43:00  BASE  1.44648  218  2.35788  236  -0.9  95    -1.6  416   0     988.9    NA       0.0000   9999     0     0     0    
2019/11/07  20:44:00  BASE  1.323    200  2.35788  236  -0.9  95    -1.6  414   0     988.9    NA       0.0000   9999     0     0     0    
2019/11/07  20:45:00  BASE  1.24068  180  2.35788  236  -0.9  95    -1.6  412   0     988.9    NA       0.0000   9999     0     0     0    
2019/11/07  20:46:00  BASE  0.95844  173  2.35788  236  -0.8  95    -1.5  410   0     988.9    NA       0.0000   9999     0     0     0    
2019/11/07  20:47:00  BASE  0.42924  159  2.35788  236  -0.7  95    -1.4  401   0     988.9    NA       0.0000   9999     0     0     0    
2019/11/07  20:48:01  BASE  0.0882   160  2.35788  236  -0.7  95    -1.3  395   0     988.9    NA       0.0000   9999     0     0     0    
2019/11/07  20:49:00  BASE  0.49392  203  2.21088  237  -0.6  95    -1.3  391   0     988.9    NA       0.0000   9999     0     0     0    
2019/11/07  20:50:00  BASE  0.84672  233  1.81692  233  -0.6  95    -1.3  391   0     988.9    NA       0.0000   9999     0     0     0    
2019/11/07  20:51:00  BASE  0.87612  223  1.75224  226  -0.7  95    -1.4  397   0     988.9    NA       0.0000   9999     0     0     0    
2019/11/07  20:52:00  BASE  1.07016  209  1.63464  220  -0.8  94    -1.6  398   0     988.9    NA       0.0000   9999     0     0     0    
2019/11/07  20:53:00  BASE  1.04076  204  1.54056  177  -0.8  94    -1.6  396   0     988.9    NA       0.0000   9999     0     0     0    
2019/11/07  20:54:01  BASE  0.95256  192  1.54056  177  -0.8  94    -1.7  393   0     988.9    NA       0.0000   9999     0     0     0    
2019/11/07  20:55:00  BASE  1.00548  177  1.54056  149  -0.9  94    -1.7  392   0     988.9    NA       0.0000   9999     0     0     0    
2019/11/07  20:56:00  BASE  1.10544  182  1.54056  149  -0.9  94    -1.7  390   0     988.9    NA       0.0000   9999     0     0     0    
2019/11/07  20:57:00  BASE  0.95256  188  1.54056  149  -0.9  94    -1.8  388   0     989.0    NA       0.0000   9999     0     0     0    
2019/11/07  20:58:00  BASE  0.48804  188  1.54056  149  -0.9  94    -1.8  385   0     989.0    NA       0.0000   9999     0     0     0    
2019/11/07  20:59:00  BASE  0.08232  202  1.54056  149  -0.9  94    -1.8  384   0     989.0    NA       0.0000   9999     0     0     0    
2019/11/07  21:00:00  BASE  0.29988  213  1.54056  149  -0.9  94    -1.8  382   0     989.0    NA       0.0000   9999     0     0     0    
2019/11/07  21:01:00  BASE  0.69972  212  1.54056  149  -0.9  94    -1.8  379   0     989.0    NA       0.0000   9999     0     0     0    
2019/11/07  21:02:00  BASE  0.45864  217  1.54056  149  -0.9  94    -1.8  377   0     989.0    NA       0.0000   9999     0     0     0    
2019/11/07  21:03:00  BASE  0.08232  219  1.54056  149  -0.9  94    -1.7  375   0     989.0    NA       0.0000   9999     0     0     0    
2019/11/07  21:04:00  BASE  0.05292  211  1.54056  149  -0.8  94    -1.7  373   0     989.0    NA       0.0000   9999     0     0     0    
2019/11/07  21:05:00  BASE  0.08232  207  1.39356  188  -0.7  93    -1.7  371   0     989.0    NA       0.0000   9999     0     0     0    
2019/11/07  21:06:00  BASE  0.17052  195  1.32888  196  -0.7  93    -1.8  369   0     989.0    NA       0.0000   9999     0     0     0    
2019/11/07  21:07:00  BASE  0.1176   190  1.029    215  -0.7  93    -1.7  367   0     989.0    NA       0.0000   9999     0     0     0    
2019/11/07  21:08:00  BASE  0        213  1.029    215  -0.7  92    -1.8  364   0     989.0    NA       0.0000   9999     0     0     0    
2019/11/07  21:09:00  BASE  0        277  1.029    215  -0.6  92    -1.8  362   0     989.0    NA       0.0000   9999     0     0     0    
2019/11/07  21:10:00  BASE  0        268  0.90552  205  -0.6  92    -1.8  360   0     989.1    NA       0.0000   9999     0     0     0    
2019/11/07  21:11:00  BASE  0.3822   235  1.1466   230  -0.6  92    -1.8  356   0     989.0    NA       0.0000   9999     0     0     0    
2019/11/07  21:12:00  BASE  0.57624  235  1.1466   230  -0.6  91    -1.8  355   0     989.1    NA       0.0000   9999     0     0     0    
2019/11/07  21:13:00  BASE  0.18816  240  1.1466   230  -0.6  91    -1.9  353   0     989.1    NA       0.0000   9999     0     0     0    
2019/11/07  21:14:00  BASE  0.02352  249  1.1466   230  -0.7  91    -2.1  351   0     989.1    NA       0.0000   9999     0     0     0    
2019/11/07  21:15:00  BASE  0.02352  240  1.1466   230  -0.8  90    -2.2  349   0     989.1    NA       0.0000   9999     0     0     0    
2019/11/07  21:16:00  BASE  0        235  1.1466   230  -0.8  90    -2.2  347   0     989.1    NA       0.0000   9999     0     0     0    
2019/11/07  21:17:00  BASE  0        242  1.1466   230  -0.7  89    -2.3  345   0     989.1    NA       0.0000   9999     0     0     0    
2019/11/07  21:18:00  BASE  0        205  1.1466   230  -0.8  89    -2.3  342   0     989.1    NA       0.0000   9999     0     0     0    
2019/11/07  21:19:00  BASE  0.13524  177  1.1466   230  -0.7  89    -2.3  341   0     989.1    NA       0.0000   9999     0     0     0    
2019/11/07  21:20:00  BASE  0.18816  192  1.1466   230  -0.7  88    -2.4  339   0     989.1    NA       0.0000   9999     0     0     0    
2019/11/07  21:21:00  BASE  0.10584  198  0.84672  226  -0.7  88    -2.4  337   0     989.1    NA       0.0000   9999     0     0     0    
2019/11/07  21:22:00  BASE  0.36456  189  1.029    178  -0.7  88    -2.5  335   0     989.2    NA       0.0000   9999     0     0     0    
2019/11/07  21:23:00  BASE  0.55272  179  1.029    178  -0.7  88    -2.5  333   0     989.2    NA       0.0000   9999     0     0     0    
2019/11/07  21:24:00  BASE  0.43512  180  1.029    178  -0.8  88    -2.6  330   0     989.2    NA       0.0000   9999     0     0     0    
2019/11/07  21:25:00  BASE  0.29988  198  1.029    178  -0.8  88    -2.5  328   0     989.2    NA       0.0000   9999     0     0     0    
2019/11/07  21:26:00  BASE  0.4998   219  1.029    178  -0.7  88    -2.4  326   0     989.2    NA       0.0000   9999     0     0     0    
2019/11/07  21:27:00  BASE  0.81144  235  1.029    178  -0.7  88    -2.5  324   0     989.2    NA       0.0000   9999     0     0     0    
2019/11/07  21:28:00  BASE  0.53508  245  1.029    178  -0.7  88    -2.5  322   0     989.2    NA       0.0000   9999     0     0     0    
2019/11/07  21:29:00  BASE  0.4998   248  1.029    178  -0.8  88    -2.6  319   0     989.2    NA       0.0000   9999     0     0     0    
2019/11/07  21:30:00  BASE  0.59976  241  1.029    178  -0.8  87    -2.7  317   0     989.2    NA       0.0000   9999     0     0     0    
2019/11/07  21:31:00  BASE  0.29988  227  1.029    178  -0.9  87    -2.8  315   0     989.2    NA       0.0000   9999     0     0     0    
2019/11/07  21:32:00  BASE  0.49392  241  1.1466   265  -0.9  87    -2.8  313   0     989.3    NA       0.0000   9999     0     0     0    
2019/11/07  21:33:00  BASE  0.79968  263  1.1466   265  -0.9  87    -2.7  311   0     989.4    NA       0.0000   9999     0     0     0    
2019/11/07  21:34:00  BASE  0.87024  257  1.1466   265  -0.9  87    -2.7  308   0     989.4    NA       0.0000   9999     0     0     0    
2019/11/07  21:35:00  BASE  0.98784  240  1.1466   233  -0.9  87    -2.8  306   0     989.4    NA       0.0000   9999     0     0     0    
2019/11/07  21:36:00  BASE  0.97608  226  1.1466   233  -0.9  87    -2.8  304   0     989.4    NA       0.0000   9999     0     0     0    
2019/11/07  21:37:00  BASE  0.59388  221  1.1466   233  -0.9  87    -2.8  303   0     989.4    NA       0.0000   9999     0     0     0    
2019/11/07  21:38:00  BASE  0.14112  220  1.1466   233  -1.0  87    -2.8  301   0     989.4    NA       0.0000   9999     0     0     0    
2019/11/07  21:39:00  BASE  0        215  1.1466   233  -0.9  87    -2.8  299   0     989.4    NA       0.0000   9999     0     0     0    
2019/11/07  21:40:00  BASE  0        204  1.1466   233  -0.8  87    -2.7  297   0     989.4    NA       0.0000   9999     0     0     0    
2019/11/07  21:41:00  BASE  0        209  1.1466   233  -0.8  87    -2.7  295   0     989.5    NA       0.0000   9999     0     0     0    
2019/11/07  21:42:00  BASE  0        218  1.1466   233  -0.7  86    -2.7  293   0     989.5    NA       0.0000   9999     0     0     0    
2019/11/07  21:43:00  BASE  0        212  1.1466   233  -0.6  86    -2.7  291   0     989.5    NA       0.0000   9999     0     0     0    
2019/11/07  21:44:00  BASE  0        210  1.1466   233  -0.6  86    -2.7  289   0     989.5    NA       0.0000   9999     0     0     0    
2019/11/07  21:45:00  BASE  0        210  1.0584   212  -0.6  85    -2.8  286   0     989.5    NA       0.0000   9999     0     0     0    
2019/11/07  21:46:00  BASE  0        191  0.72324  226  -0.5  85    -2.8  284   0     989.5    NA       0.0000   9999     0     0     0    
2019/11/07  21:47:00  BASE  0        164  0        M    -0.5  84    -2.8  283   0     989.5    NA       0.0000   9999     0     0     0    
2019/11/07  21:48:00  BASE  0        158  0        M    -0.4  84    -2.8  280   0     989.5    NA       0.0000   9999     0     0     0    
2019/11/07  21:49:00  BASE  0        334  0        M    -0.4  83    -2.9  278   0     989.5    NA       0.0000   9999     0     0     0    
2019/11/07  21:50:00  BASE  0        328  0        M    -0.3  83    -2.8  276   0     989.5    NA       0.0000   9999     0     0     0    
2019/11/07  21:51:00  BASE  0.02352  326  0.60564  324  -0.3  83    -2.9  275   0     989.6    NA       0.0000   9999     0     0     0    
2019/11/07  21:52:00  BASE  0.29988  310  1.0584   314  -0.3  83    -2.9  273   0     989.6    NA       0.0000   9999     0     0     0    
2019/11/07  21:53:00  BASE  0.4998   286  1.0584   314  -0.3  83    -2.9  271   0     989.6    NA       0.0000   9999     0     0     0    
2019/11/07  21:54:00  BASE  0.22344  290  1.0584   314  -0.4  83    -2.9  268   0     989.6    NA       0.0000   9999     0     0     0    
2019/11/07  21:55:00  BASE  0.06468  311  1.0584   314  -0.5  83    -3.0  266   0     989.6    NA       0.0000   9999     0     0     0    
2019/11/07  21:56:00  BASE  0.27048  323  1.0584   314  -0.5  83    -3.0  264   0     989.6    NA       0.0000   9999     0     0     0    
2019/11/07  21:57:00  BASE  0.25284  314  1.0584   314  -0.5  84    -3.0  262   0     989.6    NA       0.0000   9999     0     0     0    
2019/11/07  21:58:00  BASE  0.18816  302  1.0584   314  -0.5  84    -2.9  261   0     989.6    NA       0.0000   9999     0     0     0    
2019/11/07  21:59:00  BASE  0.22344  298  1.0584   314  -0.4  84    -2.8  258   0     989.6    NA       0.0000   9999     0     0     0    
2019/11/07  22:00:00  BASE  0.2352   272  1.0584   314  -0.4  84    -2.9  256   0     989.7    NA       0.0000   9999     0     0     0    
2019/11/07  22:01:00  BASE  0.25284  246  1.0584   314  -0.5  83    -3.0  254   0     989.7    NA       0.0000   9999     0     0     0    
2019/11/07  22:02:00  BASE  0.2058   245  0.9702   297  -0.6  83    -3.1  252   0     989.7    NA       0.0000   9999     0     0     0    
2019/11/07  22:03:00  BASE  0.09996  253  0.81732  330  -0.7  83    -3.3  251   0     989.7    NA       0.0000   9999     0     0     0    
2019/11/07  22:04:00  BASE  0        255  0.81732  330  -0.8  83    -3.4  248   0     989.7    NA       0.0000   9999     0     0     0    
2019/11/07  22:05:00  BASE  0        249  0.81732  330  -0.8  83    -3.4  245   0     989.7    NA       0.0000   9999     0     0     0    
2019/11/07  22:06:00  BASE  0        266  0.78792  248  -0.8  82    -3.4  244   0     989.7    NA       0.0000   9999     0     0     0    
2019/11/07  22:07:00  BASE  0        331  0.78792  248  -0.8  82    -3.5  242   0     989.7    NA       0.0000   9999     0     0     0    
2019/11/07  22:08:01  BASE  0        275  0.78792  248  -0.7  82    -3.5  240   0     989.7    NA       0.0000   9999     0     0     0    
2019/11/07  22:09:00  BASE  0        203  0.78792  248  -0.7  81    -3.5  238   0     989.7    NA       0.0000   9999     0     0     0    
2019/11/07  22:10:00  BASE  0        178  0.63504  235  -0.7  81    -3.6  236   0     989.7    NA       0.0000   9999     0     0     0    
2019/11/07  22:11:00  BASE  0        123  0.63504  235  -0.6  81    -3.6  234   0     989.7    NA       0.0000   9999     0     0     0    
2019/11/07  22:12:00  BASE  0.05292  5    0.63504  354  -0.5  80    -3.5  232   0     989.7    NA       0.0000   9999     0     0     0    
2019/11/07  22:13:00  BASE  0.12936  336  0.63504  327  -0.4  80    -3.4  230   0     989.7    NA       0.0000   9999     0     0     0    
2019/11/07  22:14:00  BASE  0.07644  302  0.63504  327  -0.2  79    -3.4  228   0     989.7    NA       0.0000   9999     0     0     0    
2019/11/07  22:15:00  BASE  0        240  0.63504  327  -0.1  79    -3.4  227   0     989.7    NA       0.0000   9999     0     0     0    
2019/11/07  22:16:00  BASE  0        268  0.63504  327  -0.1  79    -3.4  224   0     989.7    NA       0.0000   9999     0     0     0    
2019/11/07  22:17:00  BASE  0.05292  329  0.69384  8    -0.2  78    -3.5  222   0     989.7    NA       0.0000   9999     0     0     0    
2019/11/07  22:18:00  BASE  0.38808  360  0.9702   9    -0.2  78    -3.6  221   0     989.7    NA       0.0000   9999     0     0     0    
2019/11/07  22:19:00  BASE  0.90552  0    1.27008  5    -0.3  79    -3.6  218   0     989.7    NA       0.0000   9999     0     0     0    
2019/11/07  22:20:00  BASE  1.2054   360  1.51116  9    -0.3  79    -3.5  216   0     989.7    NA       0.0000   9999     0     0     0    
2019/11/07  22:21:00  BASE  1.34652  357  1.60524  342  -0.3  80    -3.3  214   0     989.7    NA       0.0000   9999     0     0     0    
2019/11/07  22:22:00  BASE  1.3524   354  1.60524  342  -0.4  81    -3.3  212   0     989.7    NA       0.0000   9999     0     0     0    
2019/11/07  22:23:00  BASE  1.25244  360  1.60524  342  -0.5  82    -3.2  210   0     989.7    NA       0.0000   9999     0     0     0    
2019/11/07  22:24:00  BASE  1.2054   6    1.60524  342  -0.5  83    -3.1  209   0     989.7    NA       0.0000   9999     0     0     0    
2019/11/07  22:25:00  BASE  1.12308  9    1.60524  342  -0.6  83    -3.1  207   0     989.7    NA       0.0000   9999     0     0     0    
2019/11/07  22:26:00  BASE  1.11132  9    1.60524  342  -0.7  84    -3.1  205   0     989.7    NA       0.0000   9999     0     0     0    
2019/11/07  22:27:00  BASE  1.21716  8    1.60524  342  -0.7  85    -3.0  203   0     989.7    NA       0.0000   9999     0     0     0    
2019/11/07  22:28:00  BASE  1.27596  11   1.60524  342  -0.7  85    -2.9  201   0     989.7    NA       0.0000   9999     0     0     0    
2019/11/07  22:29:00  BASE  1.17012  13   1.60524  342  -0.7  86    -2.7  199   0     989.8    NA       0.0000   9999     0     0     0    
2019/11/07  22:30:00  BASE  0.98196  10   1.60524  342  -0.7  86    -2.7  197   0     989.8    NA       0.0000   9999     0     0     0    
2019/11/07  22:31:00  BASE  0.89964  7    1.48176  12   -0.7  86    -2.7  195   0     989.8    NA       0.0000   9999     0     0     0    
2019/11/07  22:32:00  BASE  0.92904  6    1.48176  12   -0.7  86    -2.7  193   0     989.8    NA       0.0000   9999     0     0     0    
2019/11/07  22:33:00  BASE  0.9702   3    1.48176  12   -0.7  86    -2.7  191   0     989.8    NA       0.0000   9999     0     0     0    
2019/11/07  22:34:00  BASE  0.72324  358  1.48176  12   -0.8  86    -2.8  189   0     989.8    NA       0.0000   9999     0     0     0    
2019/11/07  22:35:00  BASE  0.48804  5    1.48176  12   -0.8  86    -2.8  187   0     989.8    NA       0.0000   9999     0     0     0    
2019/11/07  22:36:00  BASE  0.6174   12   1.48176  12   -0.8  85    -3.0  186   0     989.8    NA       0.0000   9999     0     0     0    
2019/11/07  22:37:00  BASE  0.68796  3    1.48176  12   -0.8  85    -3.0  184   0     989.8    NA       0.0000   9999     0     0     0    
2019/11/07  22:38:00  BASE  0.69972  357  1.24068  10   -0.8  85    -3.1  182   0     989.8    NA       0.0000   9999     0     0     0    
2019/11/07  22:39:00  BASE  0.8232   351  1.21128  3    -0.8  84    -3.1  180   0     989.8    NA       0.0000   9999     0     0     0    
2019/11/07  22:40:00  BASE  0.75264  350  1.21128  3    -0.8  84    -3.1  178   0     989.8    NA       0.0000   9999     0     0     0    
2019/11/07  22:41:00  BASE  0.69384  354  1.21128  3    -0.7  84    -3.1  176   0     989.8    NA       0.0000   9999     0     0     0    
2019/11/07  22:42:00  BASE  0.78204  350  1.21128  3    -0.8  83    -3.2  175   0     989.9    NA       0.0000   9999     0     0     0    
2019/11/07  22:43:00  BASE  0.78204  350  1.029    337  -0.8  83    -3.3  173   0     989.9    NA       0.0000   9999     0     0     0    
2019/11/07  22:44:00  BASE  0.7938   347  1.029    337  -0.8  83    -3.3  171   0     989.9    NA       0.0000   9999     0     0     0    
2019/11/07  22:45:00  BASE  0.84084  338  1.029    337  -0.8  83    -3.4  169   0     989.9    NA       0.0000   9999     0     0     0    
2019/11/07  22:46:00  BASE  0.86436  334  1.029    337  -0.9  83    -3.4  167   0     989.9    NA       0.0000   9999     0     0     0    
2019/11/07  22:47:00  BASE  0.84084  340  1.029    337  -0.9  83    -3.4  166   0     989.9    NA       0.0000   9999     0     0     0    
2019/11/07  22:48:00  BASE  0.87024  356  1.0584   360  -0.9  83    -3.4  164   0     989.9    NA       0.0000   9999     0     0     0    
2019/11/07  22:49:00  BASE  0.85848  8    1.0878   351  -0.9  83    -3.4  162   0     989.9    NA       0.0000   9999     0     0     0    
2019/11/07  22:50:00  BASE  0.82908  13   1.0878   351  -0.9  83    -3.4  160   0     990.0    NA       0.0000   9999     0     0     0    
2019/11/07  22:51:00  BASE  0.82908  19   1.0878   351  -1.0  84    -3.4  159   0     990.1    NA       0.0000   9999     0     0     0    
2019/11/07  22:52:00  BASE  0.89376  17   1.1172   1    -1.0  84    -3.4  157   0     990.0    NA       0.0000   9999     0     0     0    
2019/11/07  22:53:00  BASE  1.00548  9    1.1172   1    -0.9  84    -3.3  155   0     990.1    NA       0.0000   9999     0     0     0    
2019/11/07  22:54:00  BASE  0.99372  1    1.1466   4    -0.9  84    -3.3  153   0     990.1    NA       0.0000   9999     0     0     0    
2019/11/07  22:55:00  BASE  0.95844  1    1.1466   4    -0.9  84    -3.3  152   0     990.1    NA       0.0000   9999     0     0     0    
2019/11/07  22:56:00  BASE  0.95256  360  1.1466   353  -0.9  84    -3.2  150   0     990.1    NA       0.0000   9999     0     0     0    
2019/11/07  22:57:00  BASE  0.90552  353  1.1466   353  -0.9  85    -3.2  148   0     990.1    NA       0.0000   9999     0     0     0    
2019/11/07  22:58:00  BASE  0.82908  350  1.1466   353  -1.0  85    -3.2  146   0     990.1    NA       0.0000   9999     0     0     0    
2019/11/07  22:59:00  BASE  0.81732  352  1.1466   353  -1.0  85    -3.2  145   0     990.1    NA       0.0000   9999     0     0     0    
2019/11/07  23:00:00  BASE  0.71148  353  1.1466   353  -1.0  85    -3.2  143   0     990.2    NA       0.0000   9999     0     0     0    
2019/11/07  23:01:00  BASE  0.5586   355  1.1466   353  -1.0  85    -3.2  141   0     990.2    NA       0.0000   9999     0     0     0    
2019/11/07  23:02:00  BASE  0.6174   1    1.1466   353  -1.0  85    -3.2  139   0     990.2    NA       0.0000   9999     0     0     0    
2019/11/07  23:03:00  BASE  0.75852  5    1.1466   353  -1.0  85    -3.3  138   0     990.2    NA       0.0000   9999     0     0     0    
2019/11/07  23:04:00  BASE  0.79968  8    1.1466   353  -1.0  84    -3.3  136   0     990.2    NA       0.0000   9999     0     0     0    
2019/11/07  23:05:00  BASE  0.86436  12   1.1466   353  -1.0  84    -3.3  134   0     990.2    NA       0.0000   9999     0     0     0    
2019/11/07  23:06:00  BASE  0.87024  15   1.0878   20   -1.0  84    -3.4  132   0     990.2    NA       0.0000   9999     0     0     0    
2019/11/07  23:07:00  BASE  0.89964  17   1.0878   15   -1.0  84    -3.5  129   0     990.2    NA       0.0000   9999     0     0     0    
2019/11/07  23:08:00  BASE  0.98196  16   1.0878   13   -1.1  84    -3.5  127   0     990.2    NA       0.0000   9999     0     0     0    
2019/11/07  23:09:00  BASE  1.03488  15   1.21128  12   -1.1  84    -3.5  125   0     990.2    NA       0.0000   9999     0     0     0    
2019/11/07  23:10:00  BASE  1.09956  16   1.24068  16   -1.1  84    -3.6  123   0     990.3    NA       0.0000   9999     0     0     0    
2019/11/07  23:11:00  BASE  1.13484  17   1.32888  13   -1.1  84    -3.5  121   0     990.3    NA       0.0000   9999     0     0     0    
2019/11/07  23:12:00  BASE  1.1466   22   1.32888  13   -1.1  84    -3.4  119   0     990.3    NA       0.0000   9999     0     0     0    
2019/11/07  23:13:00  BASE  1.22304  32   1.39356  40   -1.1  84    -3.4  116   0     990.3    NA       0.0000   9999     0     0     0    
2019/11/07  23:14:00  BASE  1.27008  38   1.45236  26   -1.1  85    -3.4  114   0     990.3    NA       0.0000   9999     0     0     0    
2019/11/07  23:15:00  BASE  1.2054   35   1.45236  26   -1.1  85    -3.3  112   0     990.3    NA       0.0000   9999     0     0     0    
2019/11/07  23:16:00  BASE  1.1466   34   1.45236  26   -1.1  86    -3.2  110   0     990.3    NA       0.0000   9999     0     0     0    
2019/11/07  23:17:00  BASE  1.1466   34   1.45236  26   -1.1  86    -3.2  107   0     990.3    NA       0.0000   9999     0     0     0    
2019/11/07  23:18:00  BASE  1.17012  30   1.45236  26   -1.1  85    -3.3  105   0     990.3    NA       0.0000   9999     0     0     0    
2019/11/07  23:19:00  BASE  1.0878   25   1.45236  26   -1.1  85    -3.3  103   0     990.4    NA       0.0000   9999     0     0     0    
2019/11/07  23:20:00  BASE  1.02312  23   1.45236  26   -1.1  84    -3.4  101   0     990.4    NA       0.0000   9999     0     0     0    
2019/11/07  23:21:00  BASE  0.98196  24   1.45236  26   -1.1  84    -3.5  99    0     990.4    NA       0.0000   9999     0     0     0    
2019/11/07  23:22:00  BASE  0.84084  25   1.45236  26   -1.1  83    -3.6  97    0     990.4    NA       0.0000   9999     0     0     0    
2019/11/07  23:23:00  BASE  0.71148  25   1.45236  26   -1.1  83    -3.6  95    0     990.4    NA       0.0000   9999     0     0     0    
2019/11/07  23:24:00  BASE  0.66444  24   1.35828  26   -1.1  82    -3.7  93    0     990.4    NA       0.0000   9999     0     0     0    
2019/11/07  23:25:00  BASE  0.7644   19   1.32888  33   -1.1  82    -3.8  90    0     990.4    NA       0.0000   9999     0     0     0    
2019/11/07  23:26:00  BASE  0.81732  19   1.32888  33   -1.2  82    -3.9  88    0     990.4    NA       0.0000   9999     0     0     0    
2019/11/07  23:27:00  BASE  0.81732  20   1.29948  29   -1.2  81    -4.0  86    0     990.4    NA       0.0000   9999     0     0     0    
2019/11/07  23:28:00  BASE  0.90552  19   1.18188  21   -1.2  81    -4.1  84    0     990.4    NA       0.0000   9999     0     0     0    
2019/11/07  23:29:00  BASE  1.01724  19   1.18188  21   -1.3  81    -4.1  82    0     990.4    NA       0.0000   9999     0     0     0    
2019/11/07  23:30:00  BASE  1.00548  18   1.1466   20   -1.3  81    -4.2  80    0     990.4    NA       0.0000   9999     0     0     0    
2019/11/07  23:31:00  BASE  0.97608  13   1.1466   11   -1.3  81    -4.2  78    0     990.4    NA       0.0000   9999     0     0     0    
2019/11/07  23:32:00  BASE  0.95256  6    1.1466   11   -1.4  81    -4.3  77    0     990.4    NA       0.0000   9999     0     0     0    
2019/11/07  23:33:00  BASE  0.77616  3    1.1466   11   -1.4  81    -4.3  75    0     990.4    NA       0.0000   9999     0     0     0    
2019/11/07  23:34:00  BASE  0.54096  4    1.1466   11   -1.5  81    -4.3  73    0     990.5    NA       0.0000   9999     0     0     0    
2019/11/07  23:35:00  BASE  0.28812  5    1.1466   11   -1.5  81    -4.2  71    0     990.5    NA       0.0000   9999     0     0     0    
2019/11/07  23:36:00  BASE  0.3528   0    1.1466   11   -1.5  82    -4.2  70    0     990.5    NA       0.0000   9999     0     0     0    
2019/11/07  23:37:00  BASE  0.46452  355  1.1466   11   -1.5  82    -4.2  68    0     990.5    NA       0.0000   9999     0     0     0    
2019/11/07  23:38:00  BASE  0.3528   347  1.1466   11   -1.4  82    -4.1  66    0     990.5    NA       0.0000   9999     0     0     0    
2019/11/07  23:39:00  BASE  0.33516  330  1.1466   11   -1.4  82    -4.0  65    0     990.5    NA       0.0000   9999     0     0     0    
2019/11/07  23:40:00  BASE  0.51156  311  1.1466   11   -1.3  83    -3.8  63    0     990.6    NA       0.0000   9999     0     0     0    
2019/11/07  23:41:00  BASE  0.65268  300  1.0584   288  -1.2  83    -3.7  61    0     990.7    NA       0.0000   9999     0     0     0    
2019/11/07  23:42:00  BASE  0.31752  291  1.0584   288  -1.1  83    -3.5  60    0     990.7    NA       0.0000   9999     0     0     0    
2019/11/07  23:43:00  BASE  0.1176   306  1.0584   288  -1.0  84    -3.4  58    0     990.7    NA       0.0000   9999     0     0     0    
2019/11/07  23:44:00  BASE  0.25872  326  1.0584   288  -1.0  84    -3.3  56    0     990.7    NA       0.0000   9999     0     0     0    
2019/11/07  23:45:00  BASE  0.14112  342  1.0584   288  -1.1  85    -3.3  55    0     990.7    NA       0.0000   9999     0     0     0    
2019/11/07  23:46:00  BASE  0.08232  11   1.0584   288  -1.1  85    -3.2  53    0     990.7    NA       0.0000   9999     0     0     0    
2019/11/07  23:47:00  BASE  0.19404  7    1.0584   288  -1.1  86    -3.1  52    0     990.7    NA       0.0000   9999     0     0     0    
2019/11/07  23:48:00  BASE  0.46452  331  1.0878   313  -1.1  86    -3.1  50    0     990.7    NA       0.0000   9999     0     0     0    
2019/11/07  23:49:00  BASE  0.53508  306  1.0878   313  -1.1  87    -3.0  49    0     990.7    NA       0.0000   9999     0     0     0    
2019/11/07  23:50:00  BASE  0.28224  312  1.0878   313  -1.0  87    -2.9  47    0     990.7    NA       0.0000   9999     0     0     0    
2019/11/07  23:51:00  BASE  0.4998   321  1.0878   313  -1.0  88    -2.8  46    0     990.8    NA       0.0000   9999     0     0     0    
2019/11/07  23:52:00  BASE  0.9114   326  1.1172   324  -1.0  88    -2.8  45    0     990.8    NA       0.0000   9999     0     0     0    
2019/11/07  23:53:00  BASE  0.9702   328  1.21128  333  -1.0  88    -2.8  43    0     990.8    NA       0.0000   9999     0     0     0    
2019/11/07  23:54:00  BASE  0.6762   333  1.21128  333  -1.1  88    -2.8  42    0     990.8    NA       0.0000   9999     0     0     0    
2019/11/07  23:55:00  BASE  0.7644   318  1.35828  289  -1.2  88    -2.8  41    0     990.8    NA       0.0000   9999     0     0     0    
2019/11/07  23:56:00  BASE  1.1172   306  1.39356  321  -1.2  89    -2.8  39    0     990.8    NA       0.0000   9999     0     0     0    
2019/11/07  23:57:00  BASE  1.09956  309  1.39356  321  -1.2  89    -2.8  38    0     990.8    NA       0.0000   9999     0     0     0    
2019/11/07  23:58:00  BASE  0.87024  309  1.39356  321  -1.2  90    -2.7  37    0     990.8    NA       0.0000   9999     0     0     0    
2019/11/07  23:59:00  BASE  0.65268  326  1.39356  321  -1.3  90    -2.7  36    0     990.9    NA       0.0000   9999     0     0     0